<?xml version="1.0" encoding="UTF-8" standalone="no" ?>
<gpx xmlns="http://www.topografix.com/GPX/1/1" xmlns:xsi="http://www.w3.org/2001/XMLSchema-instance" xsi:schemaLocation="http://www.topografix.com/GPX/1/1 http://www.topografix.com/GPX/1/1/gpx.xsd" version="1.1" creator="VisuGPX - https://www.visugpx.com">
  <metadata>
    <name>Road trip fait P/E</name>
  </metadata>
  <trk>
    <name><![CDATA[Road trip fait P/E_13]]></name>
    <extensions>
      <line xmlns="http://www.topografix.com/GPX/gpx_style/0/2">
        <color>FF00FF</color>
        <width>4</width>
      </line>
    </extensions>
    <trkseg>
      <trkpt lat="39.14337" lon="-1.73844">
        <ele>625.1133</ele>
        <time>2021-07-19T19:58:10Z</time>
      </trkpt>
      <trkpt lat="39.14337" lon="-1.73844">
        <ele>625.1133</ele>
        <time>2021-07-19T19:58:10Z</time>
      </trkpt>
      <trkpt lat="39.002" lon="-1.86752">
        <ele>677.5797</ele>
        <time>2021-07-20T08:59:36Z</time>
      </trkpt>
      <trkpt lat="39.00201" lon="-1.86749">
        <ele>677.9617</ele>
        <time>2021-07-20T09:00:35Z</time>
      </trkpt>
      <trkpt lat="39.00203" lon="-1.86742">
        <ele>678.3828</ele>
        <time>2021-07-20T09:00:46Z</time>
      </trkpt>
      <trkpt lat="39.00201" lon="-1.86756">
        <ele>677.6224</ele>
        <time>2021-07-20T09:01:21Z</time>
      </trkpt>
      <trkpt lat="39.00196" lon="-1.86756">
        <ele>677.5747</ele>
        <time>2021-07-20T09:01:33Z</time>
      </trkpt>
      <trkpt lat="39.00193" lon="-1.86751">
        <ele>677.0051</ele>
        <time>2021-07-20T09:01:44Z</time>
      </trkpt>
      <trkpt lat="39.00189" lon="-1.86749">
        <ele>676.6523</ele>
        <time>2021-07-20T09:01:55Z</time>
      </trkpt>
      <trkpt lat="39.00183" lon="-1.86776">
        <ele>677.3928</ele>
        <time>2021-07-20T09:02:06Z</time>
      </trkpt>
      <trkpt lat="39.00178" lon="-1.8678">
        <ele>678.3977</ele>
        <time>2021-07-20T09:02:20Z</time>
      </trkpt>
      <trkpt lat="39.00107" lon="-1.86916">
        <ele>677.4473</ele>
        <time>2021-07-20T09:02:31Z</time>
      </trkpt>
      <trkpt lat="39.0002" lon="-1.8702">
        <ele>678.1253</ele>
        <time>2021-07-20T09:02:42Z</time>
      </trkpt>
      <trkpt lat="38.99933" lon="-1.87089">
        <ele>678.1048</ele>
        <time>2021-07-20T09:02:53Z</time>
      </trkpt>
      <trkpt lat="38.99881" lon="-1.87124">
        <ele>678.3639</ele>
        <time>2021-07-20T09:03:04Z</time>
      </trkpt>
      <trkpt lat="38.9986" lon="-1.87154">
        <ele>680.1024</ele>
        <time>2021-07-20T09:03:15Z</time>
      </trkpt>
      <trkpt lat="38.99853" lon="-1.87124">
        <ele>679.5696</ele>
        <time>2021-07-20T09:03:26Z</time>
      </trkpt>
      <trkpt lat="38.99901" lon="-1.87103">
        <ele>677.8781</ele>
        <time>2021-07-20T09:03:37Z</time>
      </trkpt>
      <trkpt lat="38.99938" lon="-1.87071">
        <ele>678.1939</ele>
        <time>2021-07-20T09:03:48Z</time>
      </trkpt>
      <trkpt lat="38.99974" lon="-1.87044">
        <ele>677.0324</ele>
        <time>2021-07-20T09:03:59Z</time>
      </trkpt>
      <trkpt lat="39.00059" lon="-1.86972">
        <ele>677.1021</ele>
        <time>2021-07-20T09:04:10Z</time>
      </trkpt>
      <trkpt lat="39.00132" lon="-1.86858">
        <ele>677.4916</ele>
        <time>2021-07-20T09:04:21Z</time>
      </trkpt>
      <trkpt lat="39.00198" lon="-1.86748">
        <ele>676.4624</ele>
        <time>2021-07-20T09:04:32Z</time>
      </trkpt>
      <trkpt lat="39.00265" lon="-1.86626">
        <ele>676.3656</ele>
        <time>2021-07-20T09:04:43Z</time>
      </trkpt>
      <trkpt lat="39.00346" lon="-1.86544">
        <ele>676.7385</ele>
        <time>2021-07-20T09:04:54Z</time>
      </trkpt>
      <trkpt lat="39.00392" lon="-1.86509">
        <ele>676.6576</ele>
        <time>2021-07-20T09:05:05Z</time>
      </trkpt>
      <trkpt lat="39.00437" lon="-1.865">
        <ele>677.2585</ele>
        <time>2021-07-20T09:05:16Z</time>
      </trkpt>
      <trkpt lat="39.00511" lon="-1.86517">
        <ele>673.9111</ele>
        <time>2021-07-20T09:05:27Z</time>
      </trkpt>
      <trkpt lat="39.00616" lon="-1.86447">
        <ele>674.0364</ele>
        <time>2021-07-20T09:05:38Z</time>
      </trkpt>
      <trkpt lat="39.00746" lon="-1.86355">
        <ele>674.8274</ele>
        <time>2021-07-20T09:05:49Z</time>
      </trkpt>
      <trkpt lat="39.00826" lon="-1.86293">
        <ele>673.7632</ele>
        <time>2021-07-20T09:06:00Z</time>
      </trkpt>
      <trkpt lat="39.0087" lon="-1.86256">
        <ele>674.6325</ele>
        <time>2021-07-20T09:06:11Z</time>
      </trkpt>
      <trkpt lat="39.01021" lon="-1.86163">
        <ele>674.45</ele>
        <time>2021-07-20T09:06:23Z</time>
      </trkpt>
      <trkpt lat="39.01198" lon="-1.86016">
        <ele>680.5917</ele>
        <time>2021-07-20T09:06:34Z</time>
      </trkpt>
      <trkpt lat="39.01307" lon="-1.85803">
        <ele>675.8745</ele>
        <time>2021-07-20T09:06:45Z</time>
      </trkpt>
      <trkpt lat="39.01248" lon="-1.85695">
        <ele>676.4097</ele>
        <time>2021-07-20T09:06:56Z</time>
      </trkpt>
      <trkpt lat="39.01216" lon="-1.85502">
        <ele>679.5426</ele>
        <time>2021-07-20T09:07:07Z</time>
      </trkpt>
      <trkpt lat="39.01284" lon="-1.85314">
        <ele>674.9449</ele>
        <time>2021-07-20T09:07:18Z</time>
      </trkpt>
      <trkpt lat="39.01369" lon="-1.85266">
        <ele>674.3459</ele>
        <time>2021-07-20T09:07:29Z</time>
      </trkpt>
      <trkpt lat="39.01345" lon="-1.85424">
        <ele>674.0168</ele>
        <time>2021-07-20T09:07:40Z</time>
      </trkpt>
      <trkpt lat="39.0148" lon="-1.8554">
        <ele>674.2853</ele>
        <time>2021-07-20T09:07:51Z</time>
      </trkpt>
      <trkpt lat="39.01652" lon="-1.85656">
        <ele>675.4598</ele>
        <time>2021-07-20T09:08:02Z</time>
      </trkpt>
      <trkpt lat="39.01862" lon="-1.8553">
        <ele>675.8261</ele>
        <time>2021-07-20T09:08:13Z</time>
      </trkpt>
      <trkpt lat="39.02092" lon="-1.85372">
        <ele>676.1058</ele>
        <time>2021-07-20T09:08:24Z</time>
      </trkpt>
      <trkpt lat="39.02325" lon="-1.85214">
        <ele>675.8762</ele>
        <time>2021-07-20T09:08:35Z</time>
      </trkpt>
      <trkpt lat="39.02535" lon="-1.85015">
        <ele>676.8947</ele>
        <time>2021-07-20T09:08:46Z</time>
      </trkpt>
      <trkpt lat="39.02647" lon="-1.84883">
        <ele>679.0059</ele>
        <time>2021-07-20T09:08:57Z</time>
      </trkpt>
      <trkpt lat="39.02838" lon="-1.8483">
        <ele>676.979</ele>
        <time>2021-07-20T09:09:08Z</time>
      </trkpt>
      <trkpt lat="39.03048" lon="-1.84707">
        <ele>679.565</ele>
        <time>2021-07-20T09:09:19Z</time>
      </trkpt>
      <trkpt lat="39.03248" lon="-1.84569">
        <ele>679.9935</ele>
        <time>2021-07-20T09:09:30Z</time>
      </trkpt>
      <trkpt lat="39.03425" lon="-1.84444">
        <ele>680.6429</ele>
        <time>2021-07-20T09:09:41Z</time>
      </trkpt>
      <trkpt lat="39.03594" lon="-1.84326">
        <ele>679.9528</ele>
        <time>2021-07-20T09:09:52Z</time>
      </trkpt>
      <trkpt lat="39.03779" lon="-1.84179">
        <ele>679.4132</ele>
        <time>2021-07-20T09:10:03Z</time>
      </trkpt>
      <trkpt lat="39.03908" lon="-1.84035">
        <ele>682.9767</ele>
        <time>2021-07-20T09:10:14Z</time>
      </trkpt>
      <trkpt lat="39.03984" lon="-1.84011">
        <ele>684.1658</ele>
        <time>2021-07-20T09:10:25Z</time>
      </trkpt>
      <trkpt lat="39.04202" lon="-1.83894">
        <ele>682.9186</ele>
        <time>2021-07-20T09:10:36Z</time>
      </trkpt>
      <trkpt lat="39.04419" lon="-1.83739">
        <ele>682.4887</ele>
        <time>2021-07-20T09:10:47Z</time>
      </trkpt>
      <trkpt lat="39.04637" lon="-1.83584">
        <ele>683.5279</ele>
        <time>2021-07-20T09:10:58Z</time>
      </trkpt>
      <trkpt lat="39.04841" lon="-1.83415">
        <ele>683.5514</ele>
        <time>2021-07-20T09:11:09Z</time>
      </trkpt>
      <trkpt lat="39.04946" lon="-1.83223">
        <ele>684.8986</ele>
        <time>2021-07-20T09:11:20Z</time>
      </trkpt>
      <trkpt lat="39.04977" lon="-1.83265">
        <ele>681.0105</ele>
        <time>2021-07-20T09:11:31Z</time>
      </trkpt>
      <trkpt lat="39.04975" lon="-1.83351">
        <ele>677.96</ele>
        <time>2021-07-20T09:11:42Z</time>
      </trkpt>
      <trkpt lat="39.05179" lon="-1.83223">
        <ele>682.1134</ele>
        <time>2021-07-20T09:11:53Z</time>
      </trkpt>
      <trkpt lat="39.05411" lon="-1.83058">
        <ele>684.164</ele>
        <time>2021-07-20T09:12:04Z</time>
      </trkpt>
      <trkpt lat="39.0564" lon="-1.82896">
        <ele>684.5728</ele>
        <time>2021-07-20T09:12:15Z</time>
      </trkpt>
      <trkpt lat="39.05876" lon="-1.82731">
        <ele>684.3332</ele>
        <time>2021-07-20T09:12:26Z</time>
      </trkpt>
      <trkpt lat="39.06085" lon="-1.82582">
        <ele>682.5852</ele>
        <time>2021-07-20T09:12:37Z</time>
      </trkpt>
      <trkpt lat="39.06332" lon="-1.82407">
        <ele>679.666</ele>
        <time>2021-07-20T09:12:48Z</time>
      </trkpt>
      <trkpt lat="39.06559" lon="-1.82247">
        <ele>677.7428</ele>
        <time>2021-07-20T09:12:59Z</time>
      </trkpt>
      <trkpt lat="39.06788" lon="-1.82086">
        <ele>676.5685</ele>
        <time>2021-07-20T09:13:10Z</time>
      </trkpt>
      <trkpt lat="39.07016" lon="-1.81923">
        <ele>676.7177</ele>
        <time>2021-07-20T09:13:21Z</time>
      </trkpt>
      <trkpt lat="39.07239" lon="-1.81766">
        <ele>681.6638</ele>
        <time>2021-07-20T09:13:32Z</time>
      </trkpt>
      <trkpt lat="39.07465" lon="-1.81605">
        <ele>683.5776</ele>
        <time>2021-07-20T09:13:43Z</time>
      </trkpt>
      <trkpt lat="39.07691" lon="-1.81445">
        <ele>681.9134</ele>
        <time>2021-07-20T09:13:54Z</time>
      </trkpt>
      <trkpt lat="39.07904" lon="-1.81295">
        <ele>680.3471</ele>
        <time>2021-07-20T09:14:05Z</time>
      </trkpt>
      <trkpt lat="39.08096" lon="-1.81158">
        <ele>680.4795</ele>
        <time>2021-07-20T09:14:16Z</time>
      </trkpt>
      <trkpt lat="39.08269" lon="-1.81034">
        <ele>682.3564</ele>
        <time>2021-07-20T09:14:27Z</time>
      </trkpt>
      <trkpt lat="39.0843" lon="-1.8092">
        <ele>685.2999</ele>
        <time>2021-07-20T09:14:38Z</time>
      </trkpt>
      <trkpt lat="39.08642" lon="-1.8077">
        <ele>687.3273</ele>
        <time>2021-07-20T09:14:49Z</time>
      </trkpt>
      <trkpt lat="39.0884" lon="-1.80631">
        <ele>686.8979</ele>
        <time>2021-07-20T09:15:00Z</time>
      </trkpt>
      <trkpt lat="39.09045" lon="-1.80486">
        <ele>685.1973</ele>
        <time>2021-07-20T09:15:11Z</time>
      </trkpt>
      <trkpt lat="39.09256" lon="-1.80335">
        <ele>684.9323</ele>
        <time>2021-07-20T09:15:22Z</time>
      </trkpt>
      <trkpt lat="39.09472" lon="-1.80185">
        <ele>685.8619</ele>
        <time>2021-07-20T09:15:33Z</time>
      </trkpt>
      <trkpt lat="39.09684" lon="-1.80033">
        <ele>685.6395</ele>
        <time>2021-07-20T09:15:44Z</time>
      </trkpt>
      <trkpt lat="39.09882" lon="-1.79889">
        <ele>683.9861</ele>
        <time>2021-07-20T09:15:55Z</time>
      </trkpt>
      <trkpt lat="39.10075" lon="-1.79754">
        <ele>680.0502</ele>
        <time>2021-07-20T09:16:06Z</time>
      </trkpt>
      <trkpt lat="39.10328" lon="-1.79578">
        <ele>679.1869</ele>
        <time>2021-07-20T09:16:17Z</time>
      </trkpt>
      <trkpt lat="39.10532" lon="-1.79429">
        <ele>676.308</ele>
        <time>2021-07-20T09:16:28Z</time>
      </trkpt>
      <trkpt lat="39.10738" lon="-1.79284">
        <ele>673.7461</ele>
        <time>2021-07-20T09:16:39Z</time>
      </trkpt>
      <trkpt lat="39.10948" lon="-1.79135">
        <ele>673.6844</ele>
        <time>2021-07-20T09:16:50Z</time>
      </trkpt>
      <trkpt lat="39.11241" lon="-1.7893">
        <ele>674.6064</ele>
        <time>2021-07-20T09:17:01Z</time>
      </trkpt>
      <trkpt lat="39.1143" lon="-1.78796">
        <ele>671.6379</ele>
        <time>2021-07-20T09:17:12Z</time>
      </trkpt>
      <trkpt lat="39.11624" lon="-1.78657">
        <ele>670.9675</ele>
        <time>2021-07-20T09:17:23Z</time>
      </trkpt>
      <trkpt lat="39.1184" lon="-1.78502">
        <ele>675.7084</ele>
        <time>2021-07-20T09:17:34Z</time>
      </trkpt>
      <trkpt lat="39.121" lon="-1.78319">
        <ele>674.0275</ele>
        <time>2021-07-20T09:17:45Z</time>
      </trkpt>
      <trkpt lat="39.12344" lon="-1.78146">
        <ele>673.6082</ele>
        <time>2021-07-20T09:17:56Z</time>
      </trkpt>
      <trkpt lat="39.12581" lon="-1.77977">
        <ele>670.4699</ele>
        <time>2021-07-20T09:18:07Z</time>
      </trkpt>
      <trkpt lat="39.12812" lon="-1.77813">
        <ele>664.3031</ele>
        <time>2021-07-20T09:18:18Z</time>
      </trkpt>
      <trkpt lat="39.13035" lon="-1.77655">
        <ele>666.4639</ele>
        <time>2021-07-20T09:18:29Z</time>
      </trkpt>
      <trkpt lat="39.13257" lon="-1.77493">
        <ele>667.1251</ele>
        <time>2021-07-20T09:18:40Z</time>
      </trkpt>
      <trkpt lat="39.13462" lon="-1.77348">
        <ele>665.0255</ele>
        <time>2021-07-20T09:18:51Z</time>
      </trkpt>
      <trkpt lat="39.13687" lon="-1.77191">
        <ele>667.8608</ele>
        <time>2021-07-20T09:19:02Z</time>
      </trkpt>
      <trkpt lat="39.13899" lon="-1.77003">
        <ele>662.8666</ele>
        <time>2021-07-20T09:19:13Z</time>
      </trkpt>
      <trkpt lat="39.14059" lon="-1.76739">
        <ele>650.357</ele>
        <time>2021-07-20T09:19:24Z</time>
      </trkpt>
      <trkpt lat="39.14205" lon="-1.76449">
        <ele>634.7894</ele>
        <time>2021-07-20T09:19:35Z</time>
      </trkpt>
      <trkpt lat="39.14474" lon="-1.763">
        <ele>624.7733</ele>
        <time>2021-07-20T09:19:46Z</time>
      </trkpt>
      <trkpt lat="39.14706" lon="-1.76155">
        <ele>632.5332</ele>
        <time>2021-07-20T09:19:57Z</time>
      </trkpt>
      <trkpt lat="39.14849" lon="-1.75953">
        <ele>634.2563</ele>
        <time>2021-07-20T09:20:08Z</time>
      </trkpt>
      <trkpt lat="39.14991" lon="-1.75779">
        <ele>643.4792</ele>
        <time>2021-07-20T09:20:19Z</time>
      </trkpt>
      <trkpt lat="39.15191" lon="-1.75677">
        <ele>652.3712</ele>
        <time>2021-07-20T09:20:30Z</time>
      </trkpt>
      <trkpt lat="39.15453" lon="-1.75699">
        <ele>664.6815</ele>
        <time>2021-07-20T09:20:41Z</time>
      </trkpt>
      <trkpt lat="39.15671" lon="-1.75678">
        <ele>677.6866</ele>
        <time>2021-07-20T09:20:52Z</time>
      </trkpt>
      <trkpt lat="39.15886" lon="-1.75574">
        <ele>683.1132</ele>
        <time>2021-07-20T09:21:03Z</time>
      </trkpt>
      <trkpt lat="39.16134" lon="-1.75441">
        <ele>682.4387</ele>
        <time>2021-07-20T09:21:14Z</time>
      </trkpt>
      <trkpt lat="39.16405" lon="-1.75296">
        <ele>682.457</ele>
        <time>2021-07-20T09:21:25Z</time>
      </trkpt>
      <trkpt lat="39.16651" lon="-1.75165">
        <ele>684.2742</ele>
        <time>2021-07-20T09:21:36Z</time>
      </trkpt>
      <trkpt lat="39.16904" lon="-1.75029">
        <ele>683.6078</ele>
        <time>2021-07-20T09:21:47Z</time>
      </trkpt>
      <trkpt lat="39.17188" lon="-1.74878">
        <ele>685.5972</ele>
        <time>2021-07-20T09:21:58Z</time>
      </trkpt>
      <trkpt lat="39.17457" lon="-1.74735">
        <ele>684.8641</ele>
        <time>2021-07-20T09:22:09Z</time>
      </trkpt>
      <trkpt lat="39.17736" lon="-1.74693">
        <ele>681.7692</ele>
        <time>2021-07-20T09:22:20Z</time>
      </trkpt>
      <trkpt lat="39.17997" lon="-1.74665">
        <ele>676.3884</ele>
        <time>2021-07-20T09:22:31Z</time>
      </trkpt>
      <trkpt lat="39.18205" lon="-1.7448">
        <ele>671.6995</ele>
        <time>2021-07-20T09:22:42Z</time>
      </trkpt>
      <trkpt lat="39.18405" lon="-1.74283">
        <ele>664.6856</ele>
        <time>2021-07-20T09:22:53Z</time>
      </trkpt>
      <trkpt lat="39.18587" lon="-1.74102">
        <ele>660.8959</ele>
        <time>2021-07-20T09:23:04Z</time>
      </trkpt>
      <trkpt lat="39.18808" lon="-1.73918">
        <ele>666.9672</ele>
        <time>2021-07-20T09:23:15Z</time>
      </trkpt>
      <trkpt lat="39.19066" lon="-1.73903">
        <ele>669.207</ele>
        <time>2021-07-20T09:23:26Z</time>
      </trkpt>
      <trkpt lat="39.1936" lon="-1.73789">
        <ele>671.2883</ele>
        <time>2021-07-20T09:23:37Z</time>
      </trkpt>
      <trkpt lat="39.19606" lon="-1.73624">
        <ele>673.0211</ele>
        <time>2021-07-20T09:23:48Z</time>
      </trkpt>
      <trkpt lat="39.19864" lon="-1.73451">
        <ele>675.4732</ele>
        <time>2021-07-20T09:23:59Z</time>
      </trkpt>
      <trkpt lat="39.20107" lon="-1.73288">
        <ele>676.0163</ele>
        <time>2021-07-20T09:24:10Z</time>
      </trkpt>
      <trkpt lat="39.20321" lon="-1.73141">
        <ele>675.5261</ele>
        <time>2021-07-20T09:24:21Z</time>
      </trkpt>
      <trkpt lat="39.20534" lon="-1.73">
        <ele>676.2516</ele>
        <time>2021-07-20T09:24:32Z</time>
      </trkpt>
      <trkpt lat="39.20748" lon="-1.72857">
        <ele>675.1369</ele>
        <time>2021-07-20T09:24:43Z</time>
      </trkpt>
      <trkpt lat="39.20888" lon="-1.72659">
        <ele>669.9045</ele>
        <time>2021-07-20T09:24:54Z</time>
      </trkpt>
      <trkpt lat="39.20955" lon="-1.72462">
        <ele>667.3641</ele>
        <time>2021-07-20T09:25:05Z</time>
      </trkpt>
      <trkpt lat="39.21009" lon="-1.7229">
        <ele>666.9792</ele>
        <time>2021-07-20T09:25:16Z</time>
      </trkpt>
      <trkpt lat="39.21102" lon="-1.7203">
        <ele>667.9494</ele>
        <time>2021-07-20T09:25:27Z</time>
      </trkpt>
      <trkpt lat="39.2121" lon="-1.71723">
        <ele>672.4307</ele>
        <time>2021-07-20T09:25:38Z</time>
      </trkpt>
      <trkpt lat="39.2132" lon="-1.71408">
        <ele>669.2729</ele>
        <time>2021-07-20T09:25:49Z</time>
      </trkpt>
      <trkpt lat="39.21426" lon="-1.71094">
        <ele>674.7397</ele>
        <time>2021-07-20T09:26:00Z</time>
      </trkpt>
      <trkpt lat="39.21532" lon="-1.7079">
        <ele>678.6125</ele>
        <time>2021-07-20T09:26:11Z</time>
      </trkpt>
      <trkpt lat="39.21643" lon="-1.7047">
        <ele>677.8708</ele>
        <time>2021-07-20T09:26:22Z</time>
      </trkpt>
      <trkpt lat="39.21751" lon="-1.70157">
        <ele>682.0375</ele>
        <time>2021-07-20T09:26:33Z</time>
      </trkpt>
      <trkpt lat="39.21853" lon="-1.6986">
        <ele>684.5855</ele>
        <time>2021-07-20T09:26:44Z</time>
      </trkpt>
      <trkpt lat="39.21953" lon="-1.69565">
        <ele>684.8862</ele>
        <time>2021-07-20T09:26:55Z</time>
      </trkpt>
      <trkpt lat="39.22058" lon="-1.69265">
        <ele>683.2401</ele>
        <time>2021-07-20T09:27:06Z</time>
      </trkpt>
      <trkpt lat="39.22154" lon="-1.68987">
        <ele>681.998</ele>
        <time>2021-07-20T09:27:17Z</time>
      </trkpt>
      <trkpt lat="39.22262" lon="-1.68675">
        <ele>682.2002</ele>
        <time>2021-07-20T09:27:28Z</time>
      </trkpt>
      <trkpt lat="39.22376" lon="-1.68347">
        <ele>683.7918</ele>
        <time>2021-07-20T09:27:39Z</time>
      </trkpt>
      <trkpt lat="39.22481" lon="-1.68042">
        <ele>687.2576</ele>
        <time>2021-07-20T09:27:50Z</time>
      </trkpt>
      <trkpt lat="39.22587" lon="-1.67726">
        <ele>694.7726</ele>
        <time>2021-07-20T09:28:01Z</time>
      </trkpt>
      <trkpt lat="39.22695" lon="-1.67418">
        <ele>700.4658</ele>
        <time>2021-07-20T09:28:12Z</time>
      </trkpt>
      <trkpt lat="39.22802" lon="-1.67108">
        <ele>701.114</ele>
        <time>2021-07-20T09:28:23Z</time>
      </trkpt>
      <trkpt lat="39.2291" lon="-1.66797">
        <ele>703.7228</ele>
        <time>2021-07-20T09:28:34Z</time>
      </trkpt>
      <trkpt lat="39.23017" lon="-1.66488">
        <ele>708.6696</ele>
        <time>2021-07-20T09:28:45Z</time>
      </trkpt>
      <trkpt lat="39.2312" lon="-1.66178">
        <ele>717.4921</ele>
        <time>2021-07-20T09:28:56Z</time>
      </trkpt>
      <trkpt lat="39.23231" lon="-1.65864">
        <ele>714.1118</ele>
        <time>2021-07-20T09:29:07Z</time>
      </trkpt>
      <trkpt lat="39.23339" lon="-1.6555">
        <ele>712.3093</ele>
        <time>2021-07-20T09:29:19Z</time>
      </trkpt>
      <trkpt lat="39.23445" lon="-1.65245">
        <ele>718.9862</ele>
        <time>2021-07-20T09:29:30Z</time>
      </trkpt>
      <trkpt lat="39.23518" lon="-1.64927">
        <ele>724.2244</ele>
        <time>2021-07-20T09:29:41Z</time>
      </trkpt>
      <trkpt lat="39.23568" lon="-1.64603">
        <ele>733.1622</ele>
        <time>2021-07-20T09:29:52Z</time>
      </trkpt>
      <trkpt lat="39.23631" lon="-1.6428">
        <ele>737.5591</ele>
        <time>2021-07-20T09:30:03Z</time>
      </trkpt>
      <trkpt lat="39.23718" lon="-1.63927">
        <ele>740.9728</ele>
        <time>2021-07-20T09:30:14Z</time>
      </trkpt>
      <trkpt lat="39.23792" lon="-1.63628">
        <ele>738.0768</ele>
        <time>2021-07-20T09:30:25Z</time>
      </trkpt>
      <trkpt lat="39.23841" lon="-1.63424">
        <ele>738.2997</ele>
        <time>2021-07-20T09:30:36Z</time>
      </trkpt>
      <trkpt lat="39.23898" lon="-1.63192">
        <ele>737.5673</ele>
        <time>2021-07-20T09:30:47Z</time>
      </trkpt>
      <trkpt lat="39.23968" lon="-1.62897">
        <ele>738.7632</ele>
        <time>2021-07-20T09:30:58Z</time>
      </trkpt>
      <trkpt lat="39.24054" lon="-1.62545">
        <ele>738.2429</ele>
        <time>2021-07-20T09:31:09Z</time>
      </trkpt>
      <trkpt lat="39.2412" lon="-1.62279">
        <ele>739.1718</ele>
        <time>2021-07-20T09:31:20Z</time>
      </trkpt>
      <trkpt lat="39.24192" lon="-1.62044">
        <ele>739.4835</ele>
        <time>2021-07-20T09:31:31Z</time>
      </trkpt>
      <trkpt lat="39.2428" lon="-1.61772">
        <ele>737.5449</ele>
        <time>2021-07-20T09:31:42Z</time>
      </trkpt>
      <trkpt lat="39.24388" lon="-1.61446">
        <ele>733.182</ele>
        <time>2021-07-20T09:31:53Z</time>
      </trkpt>
      <trkpt lat="39.24489" lon="-1.61132">
        <ele>728.8407</ele>
        <time>2021-07-20T09:32:04Z</time>
      </trkpt>
      <trkpt lat="39.24597" lon="-1.608">
        <ele>728.2854</ele>
        <time>2021-07-20T09:32:15Z</time>
      </trkpt>
      <trkpt lat="39.24696" lon="-1.60496">
        <ele>731.754</ele>
        <time>2021-07-20T09:32:26Z</time>
      </trkpt>
      <trkpt lat="39.24812" lon="-1.60194">
        <ele>726.4412</ele>
        <time>2021-07-20T09:32:37Z</time>
      </trkpt>
      <trkpt lat="39.24929" lon="-1.59898">
        <ele>723.8601</ele>
        <time>2021-07-20T09:32:48Z</time>
      </trkpt>
      <trkpt lat="39.25054" lon="-1.59615">
        <ele>719.5172</ele>
        <time>2021-07-20T09:32:59Z</time>
      </trkpt>
      <trkpt lat="39.252" lon="-1.59346">
        <ele>708.9955</ele>
        <time>2021-07-20T09:33:10Z</time>
      </trkpt>
      <trkpt lat="39.25309" lon="-1.59029">
        <ele>701.1393</ele>
        <time>2021-07-20T09:33:21Z</time>
      </trkpt>
      <trkpt lat="39.25408" lon="-1.5873">
        <ele>693.5587</ele>
        <time>2021-07-20T09:33:32Z</time>
      </trkpt>
      <trkpt lat="39.25509" lon="-1.58412">
        <ele>689.8574</ele>
        <time>2021-07-20T09:33:43Z</time>
      </trkpt>
      <trkpt lat="39.25649" lon="-1.58089">
        <ele>685.136</ele>
        <time>2021-07-20T09:33:54Z</time>
      </trkpt>
      <trkpt lat="39.25809" lon="-1.57827">
        <ele>678.871</ele>
        <time>2021-07-20T09:34:05Z</time>
      </trkpt>
      <trkpt lat="39.26002" lon="-1.57593">
        <ele>668.8005</ele>
        <time>2021-07-20T09:34:16Z</time>
      </trkpt>
      <trkpt lat="39.26215" lon="-1.57383">
        <ele>658.106</ele>
        <time>2021-07-20T09:34:27Z</time>
      </trkpt>
      <trkpt lat="39.26431" lon="-1.57177">
        <ele>653.3921</ele>
        <time>2021-07-20T09:34:38Z</time>
      </trkpt>
      <trkpt lat="39.26641" lon="-1.5697">
        <ele>655.0716</ele>
        <time>2021-07-20T09:34:49Z</time>
      </trkpt>
      <trkpt lat="39.2684" lon="-1.56744">
        <ele>654.4051</ele>
        <time>2021-07-20T09:35:00Z</time>
      </trkpt>
      <trkpt lat="39.27018" lon="-1.56507">
        <ele>656.3842</ele>
        <time>2021-07-20T09:35:11Z</time>
      </trkpt>
      <trkpt lat="39.27188" lon="-1.56233">
        <ele>664.7728</ele>
        <time>2021-07-20T09:35:22Z</time>
      </trkpt>
      <trkpt lat="39.27337" lon="-1.55945">
        <ele>676.7039</ele>
        <time>2021-07-20T09:35:33Z</time>
      </trkpt>
      <trkpt lat="39.27451" lon="-1.5567">
        <ele>688.3455</ele>
        <time>2021-07-20T09:35:44Z</time>
      </trkpt>
      <trkpt lat="39.27566" lon="-1.55359">
        <ele>698.1929</ele>
        <time>2021-07-20T09:35:55Z</time>
      </trkpt>
      <trkpt lat="39.27683" lon="-1.55045">
        <ele>705.8564</ele>
        <time>2021-07-20T09:36:06Z</time>
      </trkpt>
      <trkpt lat="39.27797" lon="-1.54739">
        <ele>709.4459</ele>
        <time>2021-07-20T09:36:17Z</time>
      </trkpt>
      <trkpt lat="39.2791" lon="-1.54387">
        <ele>710.8266</ele>
        <time>2021-07-20T09:36:28Z</time>
      </trkpt>
      <trkpt lat="39.27998" lon="-1.54072">
        <ele>714.4564</ele>
        <time>2021-07-20T09:36:39Z</time>
      </trkpt>
      <trkpt lat="39.28069" lon="-1.53749">
        <ele>717.2048</ele>
        <time>2021-07-20T09:36:50Z</time>
      </trkpt>
      <trkpt lat="39.28127" lon="-1.53428">
        <ele>721.2418</ele>
        <time>2021-07-20T09:37:01Z</time>
      </trkpt>
      <trkpt lat="39.28171" lon="-1.53086">
        <ele>726.5025</ele>
        <time>2021-07-20T09:37:12Z</time>
      </trkpt>
      <trkpt lat="39.28198" lon="-1.5274">
        <ele>727.4873</ele>
        <time>2021-07-20T09:37:23Z</time>
      </trkpt>
      <trkpt lat="39.28215" lon="-1.52392">
        <ele>724.8699</ele>
        <time>2021-07-20T09:37:34Z</time>
      </trkpt>
      <trkpt lat="39.28228" lon="-1.52062">
        <ele>723.89</ele>
        <time>2021-07-20T09:37:45Z</time>
      </trkpt>
      <trkpt lat="39.28244" lon="-1.51704">
        <ele>723.6711</ele>
        <time>2021-07-20T09:37:56Z</time>
      </trkpt>
      <trkpt lat="39.28232" lon="-1.51339">
        <ele>724.6431</ele>
        <time>2021-07-20T09:38:07Z</time>
      </trkpt>
      <trkpt lat="39.28176" lon="-1.50985">
        <ele>727.1764</ele>
        <time>2021-07-20T09:38:18Z</time>
      </trkpt>
      <trkpt lat="39.28069" lon="-1.50626">
        <ele>730.2812</ele>
        <time>2021-07-20T09:38:29Z</time>
      </trkpt>
      <trkpt lat="39.27934" lon="-1.50324">
        <ele>729.9535</ele>
        <time>2021-07-20T09:38:40Z</time>
      </trkpt>
      <trkpt lat="39.27775" lon="-1.50039">
        <ele>727.9936</ele>
        <time>2021-07-20T09:38:51Z</time>
      </trkpt>
      <trkpt lat="39.27624" lon="-1.49748">
        <ele>725.9573</ele>
        <time>2021-07-20T09:39:02Z</time>
      </trkpt>
      <trkpt lat="39.27501" lon="-1.49424">
        <ele>726.2335</ele>
        <time>2021-07-20T09:39:13Z</time>
      </trkpt>
      <trkpt lat="39.27416" lon="-1.49096">
        <ele>728.7796</ele>
        <time>2021-07-20T09:39:24Z</time>
      </trkpt>
      <trkpt lat="39.27363" lon="-1.4875">
        <ele>729.3032</ele>
        <time>2021-07-20T09:39:35Z</time>
      </trkpt>
      <trkpt lat="39.27345" lon="-1.48401">
        <ele>729.4283</ele>
        <time>2021-07-20T09:39:46Z</time>
      </trkpt>
      <trkpt lat="39.27362" lon="-1.48084">
        <ele>730.3972</ele>
        <time>2021-07-20T09:39:57Z</time>
      </trkpt>
      <trkpt lat="39.27416" lon="-1.47709">
        <ele>727.7686</ele>
        <time>2021-07-20T09:40:08Z</time>
      </trkpt>
      <trkpt lat="39.27476" lon="-1.47371">
        <ele>724.8675</ele>
        <time>2021-07-20T09:40:19Z</time>
      </trkpt>
      <trkpt lat="39.27537" lon="-1.47025">
        <ele>720.5108</ele>
        <time>2021-07-20T09:40:30Z</time>
      </trkpt>
      <trkpt lat="39.27613" lon="-1.46681">
        <ele>711.9372</ele>
        <time>2021-07-20T09:40:41Z</time>
      </trkpt>
      <trkpt lat="39.27721" lon="-1.46351">
        <ele>704.1815</ele>
        <time>2021-07-20T09:40:52Z</time>
      </trkpt>
      <trkpt lat="39.2786" lon="-1.46048">
        <ele>701.664</ele>
        <time>2021-07-20T09:41:03Z</time>
      </trkpt>
      <trkpt lat="39.28017" lon="-1.45746">
        <ele>699.7325</ele>
        <time>2021-07-20T09:41:14Z</time>
      </trkpt>
      <trkpt lat="39.28154" lon="-1.45427">
        <ele>695.6581</ele>
        <time>2021-07-20T09:41:25Z</time>
      </trkpt>
      <trkpt lat="39.28248" lon="-1.45117">
        <ele>695.9083</ele>
        <time>2021-07-20T09:41:36Z</time>
      </trkpt>
      <trkpt lat="39.28311" lon="-1.44791">
        <ele>696.9322</ele>
        <time>2021-07-20T09:41:47Z</time>
      </trkpt>
      <trkpt lat="39.28342" lon="-1.4448">
        <ele>699.4409</ele>
        <time>2021-07-20T09:41:58Z</time>
      </trkpt>
      <trkpt lat="39.28342" lon="-1.44154">
        <ele>701.8108</ele>
        <time>2021-07-20T09:42:09Z</time>
      </trkpt>
      <trkpt lat="39.28312" lon="-1.43835">
        <ele>705.0737</ele>
        <time>2021-07-20T09:42:20Z</time>
      </trkpt>
      <trkpt lat="39.28271" lon="-1.43502">
        <ele>704.9557</ele>
        <time>2021-07-20T09:42:31Z</time>
      </trkpt>
      <trkpt lat="39.28221" lon="-1.43098">
        <ele>702.4139</ele>
        <time>2021-07-20T09:42:42Z</time>
      </trkpt>
      <trkpt lat="39.28203" lon="-1.42682">
        <ele>702.9435</ele>
        <time>2021-07-20T09:42:53Z</time>
      </trkpt>
      <trkpt lat="39.28216" lon="-1.42348">
        <ele>698.821</ele>
        <time>2021-07-20T09:43:04Z</time>
      </trkpt>
      <trkpt lat="39.28198" lon="-1.42039">
        <ele>696.0106</ele>
        <time>2021-07-20T09:43:15Z</time>
      </trkpt>
      <trkpt lat="39.28155" lon="-1.41717">
        <ele>695.8827</ele>
        <time>2021-07-20T09:43:26Z</time>
      </trkpt>
      <trkpt lat="39.28185" lon="-1.41396">
        <ele>693.4183</ele>
        <time>2021-07-20T09:43:37Z</time>
      </trkpt>
      <trkpt lat="39.2811" lon="-1.41067">
        <ele>697.7549</ele>
        <time>2021-07-20T09:43:48Z</time>
      </trkpt>
      <trkpt lat="39.28049" lon="-1.40744">
        <ele>698.9906</ele>
        <time>2021-07-20T09:44:00Z</time>
      </trkpt>
      <trkpt lat="39.27995" lon="-1.40427">
        <ele>697.3831</ele>
        <time>2021-07-20T09:44:11Z</time>
      </trkpt>
      <trkpt lat="39.28039" lon="-1.40148">
        <ele>699.1946</ele>
        <time>2021-07-20T09:44:22Z</time>
      </trkpt>
      <trkpt lat="39.28238" lon="-1.39957">
        <ele>700.486</ele>
        <time>2021-07-20T09:44:33Z</time>
      </trkpt>
      <trkpt lat="39.28443" lon="-1.39708">
        <ele>700.8152</ele>
        <time>2021-07-20T09:44:44Z</time>
      </trkpt>
      <trkpt lat="39.28611" lon="-1.39449">
        <ele>704.0579</ele>
        <time>2021-07-20T09:44:55Z</time>
      </trkpt>
      <trkpt lat="39.28725" lon="-1.3915">
        <ele>708.5645</ele>
        <time>2021-07-20T09:45:06Z</time>
      </trkpt>
      <trkpt lat="39.28792" lon="-1.38835">
        <ele>708.9515</ele>
        <time>2021-07-20T09:45:17Z</time>
      </trkpt>
      <trkpt lat="39.28862" lon="-1.38518">
        <ele>711.7185</ele>
        <time>2021-07-20T09:45:28Z</time>
      </trkpt>
      <trkpt lat="39.2893" lon="-1.38198">
        <ele>715.466</ele>
        <time>2021-07-20T09:45:39Z</time>
      </trkpt>
      <trkpt lat="39.28997" lon="-1.37871">
        <ele>716.5007</ele>
        <time>2021-07-20T09:45:50Z</time>
      </trkpt>
      <trkpt lat="39.29067" lon="-1.37554">
        <ele>723.5716</ele>
        <time>2021-07-20T09:46:01Z</time>
      </trkpt>
      <trkpt lat="39.29155" lon="-1.37274">
        <ele>730.8797</ele>
        <time>2021-07-20T09:46:12Z</time>
      </trkpt>
      <trkpt lat="39.29287" lon="-1.36981">
        <ele>733.9258</ele>
        <time>2021-07-20T09:46:23Z</time>
      </trkpt>
      <trkpt lat="39.29397" lon="-1.3663">
        <ele>733.7374</ele>
        <time>2021-07-20T09:46:34Z</time>
      </trkpt>
      <trkpt lat="39.29477" lon="-1.36305">
        <ele>729.6345</ele>
        <time>2021-07-20T09:46:45Z</time>
      </trkpt>
      <trkpt lat="39.29561" lon="-1.35987">
        <ele>724.0859</ele>
        <time>2021-07-20T09:46:56Z</time>
      </trkpt>
      <trkpt lat="39.29731" lon="-1.35732">
        <ele>720.2393</ele>
        <time>2021-07-20T09:47:07Z</time>
      </trkpt>
      <trkpt lat="39.29945" lon="-1.35539">
        <ele>714.2427</ele>
        <time>2021-07-20T09:47:18Z</time>
      </trkpt>
      <trkpt lat="39.30163" lon="-1.35354">
        <ele>715.0104</ele>
        <time>2021-07-20T09:47:29Z</time>
      </trkpt>
      <trkpt lat="39.30284" lon="-1.35122">
        <ele>711.9242</ele>
        <time>2021-07-20T09:47:40Z</time>
      </trkpt>
      <trkpt lat="39.30315" lon="-1.34818">
        <ele>701.2597</ele>
        <time>2021-07-20T09:47:51Z</time>
      </trkpt>
      <trkpt lat="39.30262" lon="-1.34611">
        <ele>688.8305</ele>
        <time>2021-07-20T09:48:02Z</time>
      </trkpt>
      <trkpt lat="39.30328" lon="-1.34373">
        <ele>681.5097</ele>
        <time>2021-07-20T09:48:13Z</time>
      </trkpt>
      <trkpt lat="39.30221" lon="-1.34146">
        <ele>668.3987</ele>
        <time>2021-07-20T09:48:24Z</time>
      </trkpt>
      <trkpt lat="39.30361" lon="-1.33982">
        <ele>653.3017</ele>
        <time>2021-07-20T09:48:35Z</time>
      </trkpt>
      <trkpt lat="39.3054" lon="-1.33798">
        <ele>633.5318</ele>
        <time>2021-07-20T09:48:46Z</time>
      </trkpt>
      <trkpt lat="39.30613" lon="-1.33618">
        <ele>628.712</ele>
        <time>2021-07-20T09:48:57Z</time>
      </trkpt>
      <trkpt lat="39.30606" lon="-1.33417">
        <ele>618.7487</ele>
        <time>2021-07-20T09:49:08Z</time>
      </trkpt>
      <trkpt lat="39.30826" lon="-1.33319">
        <ele>605.0897</ele>
        <time>2021-07-20T09:49:19Z</time>
      </trkpt>
      <trkpt lat="39.30948" lon="-1.3309">
        <ele>588.0569</ele>
        <time>2021-07-20T09:49:30Z</time>
      </trkpt>
      <trkpt lat="39.31181" lon="-1.32986">
        <ele>580.4532</ele>
        <time>2021-07-20T09:49:41Z</time>
      </trkpt>
      <trkpt lat="39.31353" lon="-1.32981">
        <ele>567.2287</ele>
        <time>2021-07-20T09:49:52Z</time>
      </trkpt>
      <trkpt lat="39.31512" lon="-1.3287">
        <ele>557.2624</ele>
        <time>2021-07-20T09:50:03Z</time>
      </trkpt>
      <trkpt lat="39.31657" lon="-1.32821">
        <ele>541.1183</ele>
        <time>2021-07-20T09:50:14Z</time>
      </trkpt>
      <trkpt lat="39.3175" lon="-1.32581">
        <ele>531.1681</ele>
        <time>2021-07-20T09:50:25Z</time>
      </trkpt>
      <trkpt lat="39.31906" lon="-1.32376">
        <ele>519.3533</ele>
        <time>2021-07-20T09:50:36Z</time>
      </trkpt>
      <trkpt lat="39.32118" lon="-1.32412">
        <ele>509.2608</ele>
        <time>2021-07-20T09:50:47Z</time>
      </trkpt>
      <trkpt lat="39.32363" lon="-1.32215">
        <ele>494.2135</ele>
        <time>2021-07-20T09:50:58Z</time>
      </trkpt>
      <trkpt lat="39.32511" lon="-1.32394">
        <ele>480.8267</ele>
        <time>2021-07-20T09:51:09Z</time>
      </trkpt>
      <trkpt lat="39.32544" lon="-1.3266">
        <ele>470.8135</ele>
        <time>2021-07-20T09:51:20Z</time>
      </trkpt>
      <trkpt lat="39.32581" lon="-1.32947">
        <ele>461.7111</ele>
        <time>2021-07-20T09:51:31Z</time>
      </trkpt>
      <trkpt lat="39.32623" lon="-1.33258">
        <ele>450.4591</ele>
        <time>2021-07-20T09:51:42Z</time>
      </trkpt>
      <trkpt lat="39.32679" lon="-1.33578">
        <ele>444.9094</ele>
        <time>2021-07-20T09:51:53Z</time>
      </trkpt>
      <trkpt lat="39.32751" lon="-1.33882">
        <ele>446.1234</ele>
        <time>2021-07-20T09:52:04Z</time>
      </trkpt>
      <trkpt lat="39.32876" lon="-1.34145">
        <ele>448.35</ele>
        <time>2021-07-20T09:52:15Z</time>
      </trkpt>
      <trkpt lat="39.33064" lon="-1.34347">
        <ele>449.1151</ele>
        <time>2021-07-20T09:52:26Z</time>
      </trkpt>
      <trkpt lat="39.33293" lon="-1.34478">
        <ele>443.9398</ele>
        <time>2021-07-20T09:52:37Z</time>
      </trkpt>
      <trkpt lat="39.33487" lon="-1.34568">
        <ele>434.7</ele>
        <time>2021-07-20T09:52:48Z</time>
      </trkpt>
      <trkpt lat="39.33697" lon="-1.34673">
        <ele>424.4645</ele>
        <time>2021-07-20T09:52:59Z</time>
      </trkpt>
      <trkpt lat="39.33929" lon="-1.3479">
        <ele>423.6107</ele>
        <time>2021-07-20T09:53:10Z</time>
      </trkpt>
      <trkpt lat="39.34157" lon="-1.34901">
        <ele>417.9053</ele>
        <time>2021-07-20T09:53:21Z</time>
      </trkpt>
      <trkpt lat="39.34412" lon="-1.35004">
        <ele>420.3657</ele>
        <time>2021-07-20T09:53:32Z</time>
      </trkpt>
      <trkpt lat="39.34657" lon="-1.35055">
        <ele>423.7493</ele>
        <time>2021-07-20T09:53:43Z</time>
      </trkpt>
      <trkpt lat="39.3491" lon="-1.35077">
        <ele>428.6858</ele>
        <time>2021-07-20T09:53:54Z</time>
      </trkpt>
      <trkpt lat="39.35148" lon="-1.35069">
        <ele>437.7949</ele>
        <time>2021-07-20T09:54:05Z</time>
      </trkpt>
      <trkpt lat="39.35319" lon="-1.34843">
        <ele>447.2829</ele>
        <time>2021-07-20T09:54:16Z</time>
      </trkpt>
      <trkpt lat="39.35542" lon="-1.34687">
        <ele>456.4193</ele>
        <time>2021-07-20T09:54:27Z</time>
      </trkpt>
      <trkpt lat="39.35848" lon="-1.34598">
        <ele>461.2782</ele>
        <time>2021-07-20T09:54:38Z</time>
      </trkpt>
      <trkpt lat="39.36141" lon="-1.34744">
        <ele>480.3665</ele>
        <time>2021-07-20T09:54:49Z</time>
      </trkpt>
      <trkpt lat="39.36415" lon="-1.34691">
        <ele>499.637</ele>
        <time>2021-07-20T09:55:00Z</time>
      </trkpt>
      <trkpt lat="39.36609" lon="-1.34478">
        <ele>519.6924</ele>
        <time>2021-07-20T09:55:11Z</time>
      </trkpt>
      <trkpt lat="39.36887" lon="-1.3452">
        <ele>534.565</ele>
        <time>2021-07-20T09:55:22Z</time>
      </trkpt>
      <trkpt lat="39.37162" lon="-1.34387">
        <ele>559.1284</ele>
        <time>2021-07-20T09:55:33Z</time>
      </trkpt>
      <trkpt lat="39.37479" lon="-1.34384">
        <ele>578.6893</ele>
        <time>2021-07-20T09:55:44Z</time>
      </trkpt>
      <trkpt lat="39.37735" lon="-1.34376">
        <ele>585.3332</ele>
        <time>2021-07-20T09:55:55Z</time>
      </trkpt>
      <trkpt lat="39.3803" lon="-1.3433">
        <ele>586.9738</ele>
        <time>2021-07-20T09:56:06Z</time>
      </trkpt>
      <trkpt lat="39.38307" lon="-1.34407">
        <ele>603.2481</ele>
        <time>2021-07-20T09:56:17Z</time>
      </trkpt>
      <trkpt lat="39.38576" lon="-1.34343">
        <ele>597.1012</ele>
        <time>2021-07-20T09:56:28Z</time>
      </trkpt>
      <trkpt lat="39.38838" lon="-1.34151">
        <ele>616.6396</ele>
        <time>2021-07-20T09:56:39Z</time>
      </trkpt>
      <trkpt lat="39.39072" lon="-1.33887">
        <ele>632.3438</ele>
        <time>2021-07-20T09:56:50Z</time>
      </trkpt>
      <trkpt lat="39.39389" lon="-1.33815">
        <ele>637.4476</ele>
        <time>2021-07-20T09:57:01Z</time>
      </trkpt>
      <trkpt lat="39.39701" lon="-1.33749">
        <ele>644.5927</ele>
        <time>2021-07-20T09:57:12Z</time>
      </trkpt>
      <trkpt lat="39.3992" lon="-1.33529">
        <ele>648.6733</ele>
        <time>2021-07-20T09:57:23Z</time>
      </trkpt>
      <trkpt lat="39.4018" lon="-1.33543">
        <ele>642.9209</ele>
        <time>2021-07-20T09:57:34Z</time>
      </trkpt>
      <trkpt lat="39.40402" lon="-1.3353">
        <ele>656.0517</ele>
        <time>2021-07-20T09:57:45Z</time>
      </trkpt>
      <trkpt lat="39.40483" lon="-1.33266">
        <ele>661.3629</ele>
        <time>2021-07-20T09:57:56Z</time>
      </trkpt>
      <trkpt lat="39.40609" lon="-1.32993">
        <ele>665.101</ele>
        <time>2021-07-20T09:58:07Z</time>
      </trkpt>
      <trkpt lat="39.40707" lon="-1.3271">
        <ele>662.5199</ele>
        <time>2021-07-20T09:58:18Z</time>
      </trkpt>
      <trkpt lat="39.40956" lon="-1.32458">
        <ele>646.4538</ele>
        <time>2021-07-20T09:58:29Z</time>
      </trkpt>
      <trkpt lat="39.41158" lon="-1.32144">
        <ele>630.7265</ele>
        <time>2021-07-20T09:58:40Z</time>
      </trkpt>
      <trkpt lat="39.41269" lon="-1.31785">
        <ele>624.4437</ele>
        <time>2021-07-20T09:58:51Z</time>
      </trkpt>
      <trkpt lat="39.41372" lon="-1.31448">
        <ele>620.8923</ele>
        <time>2021-07-20T09:59:02Z</time>
      </trkpt>
      <trkpt lat="39.41391" lon="-1.31126">
        <ele>612.5023</ele>
        <time>2021-07-20T09:59:13Z</time>
      </trkpt>
      <trkpt lat="39.41462" lon="-1.30926">
        <ele>609.6299</ele>
        <time>2021-07-20T09:59:24Z</time>
      </trkpt>
      <trkpt lat="39.41646" lon="-1.30743">
        <ele>601.7332</ele>
        <time>2021-07-20T09:59:35Z</time>
      </trkpt>
      <trkpt lat="39.41692" lon="-1.30448">
        <ele>593.4858</ele>
        <time>2021-07-20T09:59:46Z</time>
      </trkpt>
      <trkpt lat="39.41712" lon="-1.30195">
        <ele>588.6763</ele>
        <time>2021-07-20T09:59:57Z</time>
      </trkpt>
      <trkpt lat="39.41777" lon="-1.30012">
        <ele>582.4959</ele>
        <time>2021-07-20T10:00:08Z</time>
      </trkpt>
      <trkpt lat="39.41851" lon="-1.29859">
        <ele>587.6068</ele>
        <time>2021-07-20T10:00:19Z</time>
      </trkpt>
      <trkpt lat="39.41865" lon="-1.29834">
        <ele>589.0521</ele>
        <time>2021-07-20T10:00:30Z</time>
      </trkpt>
      <trkpt lat="39.41908" lon="-1.29753">
        <ele>594.4365</ele>
        <time>2021-07-20T10:00:41Z</time>
      </trkpt>
      <trkpt lat="39.41978" lon="-1.29605">
        <ele>597.5878</ele>
        <time>2021-07-20T10:00:52Z</time>
      </trkpt>
      <trkpt lat="39.42068" lon="-1.29431">
        <ele>603.8951</ele>
        <time>2021-07-20T10:01:03Z</time>
      </trkpt>
      <trkpt lat="39.42161" lon="-1.29251">
        <ele>613.4289</ele>
        <time>2021-07-20T10:01:14Z</time>
      </trkpt>
      <trkpt lat="39.42285" lon="-1.29094">
        <ele>622.1959</ele>
        <time>2021-07-20T10:01:25Z</time>
      </trkpt>
      <trkpt lat="39.42516" lon="-1.28889">
        <ele>619.7246</ele>
        <time>2021-07-20T10:01:36Z</time>
      </trkpt>
      <trkpt lat="39.42751" lon="-1.28659">
        <ele>627.0582</ele>
        <time>2021-07-20T10:01:47Z</time>
      </trkpt>
      <trkpt lat="39.42851" lon="-1.28323">
        <ele>642.7922</ele>
        <time>2021-07-20T10:01:58Z</time>
      </trkpt>
      <trkpt lat="39.42779" lon="-1.27957">
        <ele>652.2409</ele>
        <time>2021-07-20T10:02:09Z</time>
      </trkpt>
      <trkpt lat="39.42801" lon="-1.27627">
        <ele>656.9464</ele>
        <time>2021-07-20T10:02:20Z</time>
      </trkpt>
      <trkpt lat="39.42827" lon="-1.27278">
        <ele>651.3847</ele>
        <time>2021-07-20T10:02:31Z</time>
      </trkpt>
      <trkpt lat="39.42851" lon="-1.26943">
        <ele>654.3707</ele>
        <time>2021-07-20T10:02:42Z</time>
      </trkpt>
      <trkpt lat="39.42875" lon="-1.26627">
        <ele>660.4704</ele>
        <time>2021-07-20T10:02:54Z</time>
      </trkpt>
      <trkpt lat="39.42898" lon="-1.26315">
        <ele>670.0353</ele>
        <time>2021-07-20T10:03:05Z</time>
      </trkpt>
      <trkpt lat="39.42922" lon="-1.25978">
        <ele>672.7168</ele>
        <time>2021-07-20T10:03:16Z</time>
      </trkpt>
      <trkpt lat="39.42945" lon="-1.25643">
        <ele>678.2056</ele>
        <time>2021-07-20T10:03:27Z</time>
      </trkpt>
      <trkpt lat="39.42982" lon="-1.2531">
        <ele>663.664</ele>
        <time>2021-07-20T10:03:38Z</time>
      </trkpt>
      <trkpt lat="39.431" lon="-1.24994">
        <ele>643.9936</ele>
        <time>2021-07-20T10:03:49Z</time>
      </trkpt>
      <trkpt lat="39.43132" lon="-1.2469">
        <ele>629.4133</ele>
        <time>2021-07-20T10:04:00Z</time>
      </trkpt>
      <trkpt lat="39.43067" lon="-1.24358">
        <ele>614.7598</ele>
        <time>2021-07-20T10:04:11Z</time>
      </trkpt>
      <trkpt lat="39.4323" lon="-1.24079">
        <ele>602.759</ele>
        <time>2021-07-20T10:04:22Z</time>
      </trkpt>
      <trkpt lat="39.4323" lon="-1.23762">
        <ele>590.7502</ele>
        <time>2021-07-20T10:04:33Z</time>
      </trkpt>
      <trkpt lat="39.43137" lon="-1.23394">
        <ele>582.1332</ele>
        <time>2021-07-20T10:04:44Z</time>
      </trkpt>
      <trkpt lat="39.43214" lon="-1.23059">
        <ele>571.6196</ele>
        <time>2021-07-20T10:04:55Z</time>
      </trkpt>
      <trkpt lat="39.43327" lon="-1.22782">
        <ele>565.0591</ele>
        <time>2021-07-20T10:05:06Z</time>
      </trkpt>
      <trkpt lat="39.43448" lon="-1.22483">
        <ele>566.3852</ele>
        <time>2021-07-20T10:05:17Z</time>
      </trkpt>
      <trkpt lat="39.4357" lon="-1.2218">
        <ele>574.6141</ele>
        <time>2021-07-20T10:05:28Z</time>
      </trkpt>
      <trkpt lat="39.43691" lon="-1.21879">
        <ele>577.5821</ele>
        <time>2021-07-20T10:05:39Z</time>
      </trkpt>
      <trkpt lat="39.43815" lon="-1.21573">
        <ele>577.9837</ele>
        <time>2021-07-20T10:05:50Z</time>
      </trkpt>
      <trkpt lat="39.43932" lon="-1.21288">
        <ele>581.3604</ele>
        <time>2021-07-20T10:06:01Z</time>
      </trkpt>
      <trkpt lat="39.44053" lon="-1.20993">
        <ele>579.7982</ele>
        <time>2021-07-20T10:06:12Z</time>
      </trkpt>
      <trkpt lat="39.4417" lon="-1.20702">
        <ele>589.49</ele>
        <time>2021-07-20T10:06:23Z</time>
      </trkpt>
      <trkpt lat="39.44291" lon="-1.20395">
        <ele>604.2109</ele>
        <time>2021-07-20T10:06:34Z</time>
      </trkpt>
      <trkpt lat="39.44421" lon="-1.20081">
        <ele>602.4327</ele>
        <time>2021-07-20T10:06:45Z</time>
      </trkpt>
      <trkpt lat="39.44562" lon="-1.19729">
        <ele>602.8554</ele>
        <time>2021-07-20T10:06:56Z</time>
      </trkpt>
      <trkpt lat="39.44678" lon="-1.19449">
        <ele>607.4025</ele>
        <time>2021-07-20T10:07:07Z</time>
      </trkpt>
      <trkpt lat="39.44801" lon="-1.19148">
        <ele>613.478</ele>
        <time>2021-07-20T10:07:18Z</time>
      </trkpt>
      <trkpt lat="39.44926" lon="-1.18841">
        <ele>606.728</ele>
        <time>2021-07-20T10:07:29Z</time>
      </trkpt>
      <trkpt lat="39.45049" lon="-1.18535">
        <ele>604.3507</ele>
        <time>2021-07-20T10:07:40Z</time>
      </trkpt>
      <trkpt lat="39.45172" lon="-1.1823">
        <ele>607.0015</ele>
        <time>2021-07-20T10:07:51Z</time>
      </trkpt>
      <trkpt lat="39.45296" lon="-1.17924">
        <ele>610.9612</ele>
        <time>2021-07-20T10:08:02Z</time>
      </trkpt>
      <trkpt lat="39.45417" lon="-1.17622">
        <ele>614.6839</ele>
        <time>2021-07-20T10:08:13Z</time>
      </trkpt>
      <trkpt lat="39.45538" lon="-1.17324">
        <ele>613.5384</ele>
        <time>2021-07-20T10:08:24Z</time>
      </trkpt>
      <trkpt lat="39.45658" lon="-1.17027">
        <ele>614.9364</ele>
        <time>2021-07-20T10:08:35Z</time>
      </trkpt>
      <trkpt lat="39.45793" lon="-1.16698">
        <ele>617.8989</ele>
        <time>2021-07-20T10:08:46Z</time>
      </trkpt>
      <trkpt lat="39.45917" lon="-1.16394">
        <ele>621.6065</ele>
        <time>2021-07-20T10:08:57Z</time>
      </trkpt>
      <trkpt lat="39.46037" lon="-1.16096">
        <ele>632.7165</ele>
        <time>2021-07-20T10:09:08Z</time>
      </trkpt>
      <trkpt lat="39.46136" lon="-1.15836">
        <ele>647.8745</ele>
        <time>2021-07-20T10:09:19Z</time>
      </trkpt>
      <trkpt lat="39.46251" lon="-1.15543">
        <ele>644.4602</ele>
        <time>2021-07-20T10:09:30Z</time>
      </trkpt>
      <trkpt lat="39.46368" lon="-1.15239">
        <ele>640.9892</ele>
        <time>2021-07-20T10:09:41Z</time>
      </trkpt>
      <trkpt lat="39.46483" lon="-1.14937">
        <ele>643.0631</ele>
        <time>2021-07-20T10:09:52Z</time>
      </trkpt>
      <trkpt lat="39.46608" lon="-1.14606">
        <ele>644.2496</ele>
        <time>2021-07-20T10:10:03Z</time>
      </trkpt>
      <trkpt lat="39.46723" lon="-1.14308">
        <ele>646.1578</ele>
        <time>2021-07-20T10:10:14Z</time>
      </trkpt>
      <trkpt lat="39.46839" lon="-1.14007">
        <ele>651.7826</ele>
        <time>2021-07-20T10:10:25Z</time>
      </trkpt>
      <trkpt lat="39.46963" lon="-1.13684">
        <ele>654.3629</ele>
        <time>2021-07-20T10:10:36Z</time>
      </trkpt>
      <trkpt lat="39.47083" lon="-1.13363">
        <ele>661.2467</ele>
        <time>2021-07-20T10:10:47Z</time>
      </trkpt>
      <trkpt lat="39.47202" lon="-1.13044">
        <ele>663.9264</ele>
        <time>2021-07-20T10:10:58Z</time>
      </trkpt>
      <trkpt lat="39.47299" lon="-1.12783">
        <ele>670.3511</ele>
        <time>2021-07-20T10:11:09Z</time>
      </trkpt>
      <trkpt lat="39.47387" lon="-1.12542">
        <ele>668.4061</ele>
        <time>2021-07-20T10:11:20Z</time>
      </trkpt>
      <trkpt lat="39.47478" lon="-1.12313">
        <ele>662.7043</ele>
        <time>2021-07-20T10:11:31Z</time>
      </trkpt>
      <trkpt lat="39.47547" lon="-1.12128">
        <ele>661.5662</ele>
        <time>2021-07-20T10:11:42Z</time>
      </trkpt>
      <trkpt lat="39.47606" lon="-1.11969">
        <ele>664.6384</ele>
        <time>2021-07-20T10:11:53Z</time>
      </trkpt>
      <trkpt lat="39.47656" lon="-1.11845">
        <ele>663.4181</ele>
        <time>2021-07-20T10:12:04Z</time>
      </trkpt>
      <trkpt lat="39.47745" lon="-1.11746">
        <ele>657.8984</ele>
        <time>2021-07-20T10:12:15Z</time>
      </trkpt>
      <trkpt lat="39.47871" lon="-1.11627">
        <ele>654.4303</ele>
        <time>2021-07-20T10:12:26Z</time>
      </trkpt>
      <trkpt lat="39.47983" lon="-1.11443">
        <ele>652.3753</ele>
        <time>2021-07-20T10:12:37Z</time>
      </trkpt>
      <trkpt lat="39.481" lon="-1.11211">
        <ele>652.453</ele>
        <time>2021-07-20T10:12:48Z</time>
      </trkpt>
      <trkpt lat="39.48221" lon="-1.10975">
        <ele>656.7666</ele>
        <time>2021-07-20T10:12:59Z</time>
      </trkpt>
      <trkpt lat="39.48319" lon="-1.10784">
        <ele>668.2516</ele>
        <time>2021-07-20T10:13:10Z</time>
      </trkpt>
      <trkpt lat="39.48345" lon="-1.10697">
        <ele>672.236</ele>
        <time>2021-07-20T10:13:21Z</time>
      </trkpt>
      <trkpt lat="39.48363" lon="-1.10627">
        <ele>673.6823</ele>
        <time>2021-07-20T10:13:32Z</time>
      </trkpt>
      <trkpt lat="39.48377" lon="-1.10524">
        <ele>680.5013</ele>
        <time>2021-07-20T10:13:43Z</time>
      </trkpt>
      <trkpt lat="39.48369" lon="-1.10405">
        <ele>686.0352</ele>
        <time>2021-07-20T10:13:54Z</time>
      </trkpt>
      <trkpt lat="39.48356" lon="-1.10293">
        <ele>684.7909</ele>
        <time>2021-07-20T10:14:05Z</time>
      </trkpt>
      <trkpt lat="39.48346" lon="-1.10198">
        <ele>680.6732</ele>
        <time>2021-07-20T10:14:16Z</time>
      </trkpt>
      <trkpt lat="39.48333" lon="-1.10063">
        <ele>679.9733</ele>
        <time>2021-07-20T10:14:27Z</time>
      </trkpt>
      <trkpt lat="39.48319" lon="-1.09878">
        <ele>675.6652</ele>
        <time>2021-07-20T10:14:38Z</time>
      </trkpt>
      <trkpt lat="39.48336" lon="-1.0972">
        <ele>674.7142</ele>
        <time>2021-07-20T10:14:49Z</time>
      </trkpt>
      <trkpt lat="39.4837" lon="-1.0957">
        <ele>675.6401</ele>
        <time>2021-07-20T10:15:00Z</time>
      </trkpt>
      <trkpt lat="39.48401" lon="-1.09431">
        <ele>678.9658</ele>
        <time>2021-07-20T10:15:11Z</time>
      </trkpt>
      <trkpt lat="39.48431" lon="-1.09303">
        <ele>686.659</ele>
        <time>2021-07-20T10:15:22Z</time>
      </trkpt>
      <trkpt lat="39.48461" lon="-1.09161">
        <ele>691.5693</ele>
        <time>2021-07-20T10:15:33Z</time>
      </trkpt>
      <trkpt lat="39.48493" lon="-1.09017">
        <ele>696.701</ele>
        <time>2021-07-20T10:15:44Z</time>
      </trkpt>
      <trkpt lat="39.48501" lon="-1.0893">
        <ele>697.48</ele>
        <time>2021-07-20T10:15:55Z</time>
      </trkpt>
      <trkpt lat="39.48516" lon="-1.08856">
        <ele>699.3245</ele>
        <time>2021-07-20T10:16:06Z</time>
      </trkpt>
      <trkpt lat="39.4853" lon="-1.08769">
        <ele>699.4334</ele>
        <time>2021-07-20T10:16:17Z</time>
      </trkpt>
      <trkpt lat="39.48522" lon="-1.08596">
        <ele>701.1392</ele>
        <time>2021-07-20T10:16:28Z</time>
      </trkpt>
      <trkpt lat="39.48502" lon="-1.08458">
        <ele>703.4439</ele>
        <time>2021-07-20T10:16:39Z</time>
      </trkpt>
      <trkpt lat="39.48503" lon="-1.08278">
        <ele>703.6695</ele>
        <time>2021-07-20T10:16:50Z</time>
      </trkpt>
      <trkpt lat="39.48492" lon="-1.08091">
        <ele>705.9774</ele>
        <time>2021-07-20T10:17:01Z</time>
      </trkpt>
      <trkpt lat="39.48478" lon="-1.07859">
        <ele>713.2578</ele>
        <time>2021-07-20T10:17:12Z</time>
      </trkpt>
      <trkpt lat="39.48461" lon="-1.07614">
        <ele>718.6024</ele>
        <time>2021-07-20T10:17:23Z</time>
      </trkpt>
      <trkpt lat="39.48439" lon="-1.07338">
        <ele>710.9163</ele>
        <time>2021-07-20T10:17:34Z</time>
      </trkpt>
      <trkpt lat="39.48449" lon="-1.07034">
        <ele>717.0789</ele>
        <time>2021-07-20T10:17:45Z</time>
      </trkpt>
      <trkpt lat="39.48466" lon="-1.06733">
        <ele>726.4405</ele>
        <time>2021-07-20T10:17:56Z</time>
      </trkpt>
      <trkpt lat="39.4843" lon="-1.06423">
        <ele>727.4389</ele>
        <time>2021-07-20T10:18:07Z</time>
      </trkpt>
      <trkpt lat="39.48309" lon="-1.06122">
        <ele>723.8474</ele>
        <time>2021-07-20T10:18:18Z</time>
      </trkpt>
      <trkpt lat="39.48176" lon="-1.05808">
        <ele>713.7937</ele>
        <time>2021-07-20T10:18:29Z</time>
      </trkpt>
      <trkpt lat="39.48048" lon="-1.05511">
        <ele>700.1688</ele>
        <time>2021-07-20T10:18:40Z</time>
      </trkpt>
      <trkpt lat="39.4793" lon="-1.05213">
        <ele>686.2263</ele>
        <time>2021-07-20T10:18:51Z</time>
      </trkpt>
      <trkpt lat="39.47922" lon="-1.04879">
        <ele>677.092</ele>
        <time>2021-07-20T10:19:02Z</time>
      </trkpt>
      <trkpt lat="39.47953" lon="-1.04539">
        <ele>686.5127</ele>
        <time>2021-07-20T10:19:13Z</time>
      </trkpt>
      <trkpt lat="39.47885" lon="-1.04219">
        <ele>701.7207</ele>
        <time>2021-07-20T10:19:24Z</time>
      </trkpt>
      <trkpt lat="39.47781" lon="-1.03915">
        <ele>712.2136</ele>
        <time>2021-07-20T10:19:35Z</time>
      </trkpt>
      <trkpt lat="39.47703" lon="-1.03595">
        <ele>715.2377</ele>
        <time>2021-07-20T10:19:46Z</time>
      </trkpt>
      <trkpt lat="39.47629" lon="-1.03289">
        <ele>712.732</ele>
        <time>2021-07-20T10:19:57Z</time>
      </trkpt>
      <trkpt lat="39.47554" lon="-1.02966">
        <ele>712.6761</ele>
        <time>2021-07-20T10:20:08Z</time>
      </trkpt>
      <trkpt lat="39.47474" lon="-1.02632">
        <ele>712.0525</ele>
        <time>2021-07-20T10:20:19Z</time>
      </trkpt>
      <trkpt lat="39.4739" lon="-1.02272">
        <ele>709.3708</ele>
        <time>2021-07-20T10:20:30Z</time>
      </trkpt>
      <trkpt lat="39.47309" lon="-1.01924">
        <ele>707.6642</ele>
        <time>2021-07-20T10:20:41Z</time>
      </trkpt>
      <trkpt lat="39.47242" lon="-1.01595">
        <ele>708.1338</ele>
        <time>2021-07-20T10:20:52Z</time>
      </trkpt>
      <trkpt lat="39.47175" lon="-1.01295">
        <ele>709.5995</ele>
        <time>2021-07-20T10:21:03Z</time>
      </trkpt>
      <trkpt lat="39.47067" lon="-1.01188">
        <ele>708.551</ele>
        <time>2021-07-20T10:21:14Z</time>
      </trkpt>
      <trkpt lat="39.47036" lon="-1.01164">
        <ele>706.1741</ele>
        <time>2021-07-20T10:21:25Z</time>
      </trkpt>
      <trkpt lat="39.47117" lon="-1.01135">
        <ele>709.2509</ele>
        <time>2021-07-20T10:21:36Z</time>
      </trkpt>
      <trkpt lat="39.47082" lon="-1.00957">
        <ele>714.0686</ele>
        <time>2021-07-20T10:21:47Z</time>
      </trkpt>
      <trkpt lat="39.47008" lon="-1.0064">
        <ele>715.446</ele>
        <time>2021-07-20T10:21:58Z</time>
      </trkpt>
      <trkpt lat="39.4691" lon="-1.00305">
        <ele>716.5064</ele>
        <time>2021-07-20T10:22:09Z</time>
      </trkpt>
      <trkpt lat="39.46829" lon="-0.99953">
        <ele>715.4317</ele>
        <time>2021-07-20T10:22:20Z</time>
      </trkpt>
      <trkpt lat="39.46746" lon="-0.99598">
        <ele>712.6365</ele>
        <time>2021-07-20T10:22:31Z</time>
      </trkpt>
      <trkpt lat="39.46653" lon="-0.9929">
        <ele>712.913</ele>
        <time>2021-07-20T10:22:42Z</time>
      </trkpt>
      <trkpt lat="39.46607" lon="-0.99096">
        <ele>709.0765</ele>
        <time>2021-07-20T10:22:53Z</time>
      </trkpt>
      <trkpt lat="39.4655" lon="-0.98783">
        <ele>701.6894</ele>
        <time>2021-07-20T10:23:04Z</time>
      </trkpt>
      <trkpt lat="39.4647" lon="-0.98455">
        <ele>698.0361</ele>
        <time>2021-07-20T10:23:15Z</time>
      </trkpt>
      <trkpt lat="39.46395" lon="-0.98177">
        <ele>702.6498</ele>
        <time>2021-07-20T10:23:26Z</time>
      </trkpt>
      <trkpt lat="39.46334" lon="-0.97887">
        <ele>698.5043</ele>
        <time>2021-07-20T10:23:37Z</time>
      </trkpt>
      <trkpt lat="39.46243" lon="-0.97547">
        <ele>709.7641</ele>
        <time>2021-07-20T10:23:48Z</time>
      </trkpt>
      <trkpt lat="39.46164" lon="-0.97231">
        <ele>713.24</ele>
        <time>2021-07-20T10:23:59Z</time>
      </trkpt>
      <trkpt lat="39.46097" lon="-0.96854">
        <ele>704.8891</ele>
        <time>2021-07-20T10:24:10Z</time>
      </trkpt>
      <trkpt lat="39.46042" lon="-0.96467">
        <ele>702.5148</ele>
        <time>2021-07-20T10:24:21Z</time>
      </trkpt>
      <trkpt lat="39.45987" lon="-0.96079">
        <ele>697.1317</ele>
        <time>2021-07-20T10:24:32Z</time>
      </trkpt>
      <trkpt lat="39.45932" lon="-0.95698">
        <ele>693.8033</ele>
        <time>2021-07-20T10:24:43Z</time>
      </trkpt>
      <trkpt lat="39.45826" lon="-0.95408">
        <ele>697.9664</ele>
        <time>2021-07-20T10:24:54Z</time>
      </trkpt>
      <trkpt lat="39.45816" lon="-0.95287">
        <ele>699.534</ele>
        <time>2021-07-20T10:25:05Z</time>
      </trkpt>
      <trkpt lat="39.45822" lon="-0.95282">
        <ele>700.2325</ele>
        <time>2021-07-20T10:25:20Z</time>
      </trkpt>
      <trkpt lat="39.45928" lon="-0.95111">
        <ele>704.4221</ele>
        <time>2021-07-20T10:25:31Z</time>
      </trkpt>
      <trkpt lat="39.46047" lon="-0.94847">
        <ele>703.4673</ele>
        <time>2021-07-20T10:25:42Z</time>
      </trkpt>
      <trkpt lat="39.4613" lon="-0.9455">
        <ele>717.5861</ele>
        <time>2021-07-20T10:25:53Z</time>
      </trkpt>
      <trkpt lat="39.46255" lon="-0.94328">
        <ele>731.1763</ele>
        <time>2021-07-20T10:26:04Z</time>
      </trkpt>
      <trkpt lat="39.46381" lon="-0.94039">
        <ele>732.6345</ele>
        <time>2021-07-20T10:26:15Z</time>
      </trkpt>
      <trkpt lat="39.46574" lon="-0.93806">
        <ele>730.9355</ele>
        <time>2021-07-20T10:26:26Z</time>
      </trkpt>
      <trkpt lat="39.46763" lon="-0.93657">
        <ele>736.6755</ele>
        <time>2021-07-20T10:26:37Z</time>
      </trkpt>
      <trkpt lat="39.46673" lon="-0.93493">
        <ele>751.5097</ele>
        <time>2021-07-20T10:26:48Z</time>
      </trkpt>
      <trkpt lat="39.46733" lon="-0.93278">
        <ele>765.1726</ele>
        <time>2021-07-20T10:26:59Z</time>
      </trkpt>
      <trkpt lat="39.46874" lon="-0.93052">
        <ele>760.4832</ele>
        <time>2021-07-20T10:27:10Z</time>
      </trkpt>
      <trkpt lat="39.47093" lon="-0.92863">
        <ele>758.8561</ele>
        <time>2021-07-20T10:27:21Z</time>
      </trkpt>
      <trkpt lat="39.47308" lon="-0.92686">
        <ele>754.6442</ele>
        <time>2021-07-20T10:27:32Z</time>
      </trkpt>
      <trkpt lat="39.47295" lon="-0.92375">
        <ele>739.5021</ele>
        <time>2021-07-20T10:27:43Z</time>
      </trkpt>
      <trkpt lat="39.47337" lon="-0.92106">
        <ele>724.2803</ele>
        <time>2021-07-20T10:27:54Z</time>
      </trkpt>
      <trkpt lat="39.47303" lon="-0.91946">
        <ele>715.6775</ele>
        <time>2021-07-20T10:28:05Z</time>
      </trkpt>
      <trkpt lat="39.47383" lon="-0.91858">
        <ele>709.5044</ele>
        <time>2021-07-20T10:28:16Z</time>
      </trkpt>
      <trkpt lat="39.4743" lon="-0.91781">
        <ele>705.1555</ele>
        <time>2021-07-20T10:28:27Z</time>
      </trkpt>
      <trkpt lat="39.47378" lon="-0.91669">
        <ele>702.5251</ele>
        <time>2021-07-20T10:28:38Z</time>
      </trkpt>
      <trkpt lat="39.47337" lon="-0.9158">
        <ele>704.3696</ele>
        <time>2021-07-20T10:28:49Z</time>
      </trkpt>
      <trkpt lat="39.47289" lon="-0.91484">
        <ele>697.4721</ele>
        <time>2021-07-20T10:29:00Z</time>
      </trkpt>
      <trkpt lat="39.47195" lon="-0.9146">
        <ele>690.8732</ele>
        <time>2021-07-20T10:29:11Z</time>
      </trkpt>
      <trkpt lat="39.47104" lon="-0.91405">
        <ele>682.8198</ele>
        <time>2021-07-20T10:29:22Z</time>
      </trkpt>
      <trkpt lat="39.47046" lon="-0.91266">
        <ele>677.3583</ele>
        <time>2021-07-20T10:29:33Z</time>
      </trkpt>
      <trkpt lat="39.46961" lon="-0.91042">
        <ele>673.6471</ele>
        <time>2021-07-20T10:29:44Z</time>
      </trkpt>
      <trkpt lat="39.46793" lon="-0.91025">
        <ele>681.4062</ele>
        <time>2021-07-20T10:29:55Z</time>
      </trkpt>
      <trkpt lat="39.46652" lon="-0.90911">
        <ele>685.0227</ele>
        <time>2021-07-20T10:30:06Z</time>
      </trkpt>
      <trkpt lat="39.46486" lon="-0.90827">
        <ele>686.7535</ele>
        <time>2021-07-20T10:30:17Z</time>
      </trkpt>
      <trkpt lat="39.46281" lon="-0.9074">
        <ele>684.8904</ele>
        <time>2021-07-20T10:30:28Z</time>
      </trkpt>
      <trkpt lat="39.46087" lon="-0.90724">
        <ele>670.7541</ele>
        <time>2021-07-20T10:30:39Z</time>
      </trkpt>
      <trkpt lat="39.4585" lon="-0.90554">
        <ele>665.3241</ele>
        <time>2021-07-20T10:30:50Z</time>
      </trkpt>
      <trkpt lat="39.45667" lon="-0.90396">
        <ele>655.8996</ele>
        <time>2021-07-20T10:31:01Z</time>
      </trkpt>
      <trkpt lat="39.45602" lon="-0.90333">
        <ele>649.9674</ele>
        <time>2021-07-20T10:31:12Z</time>
      </trkpt>
      <trkpt lat="39.4567" lon="-0.90394">
        <ele>655.094</ele>
        <time>2021-07-20T10:31:23Z</time>
      </trkpt>
      <trkpt lat="39.45888" lon="-0.90578">
        <ele>670.8168</ele>
        <time>2021-07-20T10:31:34Z</time>
      </trkpt>
      <trkpt lat="39.46138" lon="-0.90753">
        <ele>680.4631</ele>
        <time>2021-07-20T10:31:45Z</time>
      </trkpt>
      <trkpt lat="39.46334" lon="-0.90766">
        <ele>687.201</ele>
        <time>2021-07-20T10:31:56Z</time>
      </trkpt>
      <trkpt lat="39.46568" lon="-0.90856">
        <ele>686.2086</ele>
        <time>2021-07-20T10:32:07Z</time>
      </trkpt>
      <trkpt lat="39.46736" lon="-0.90978">
        <ele>682.7482</ele>
        <time>2021-07-20T10:32:18Z</time>
      </trkpt>
      <trkpt lat="39.46883" lon="-0.90999">
        <ele>677.7521</ele>
        <time>2021-07-20T10:32:29Z</time>
      </trkpt>
      <trkpt lat="39.47007" lon="-0.91146">
        <ele>669.085</ele>
        <time>2021-07-20T10:32:40Z</time>
      </trkpt>
      <trkpt lat="39.47076" lon="-0.91322">
        <ele>678.5436</ele>
        <time>2021-07-20T10:32:51Z</time>
      </trkpt>
      <trkpt lat="39.47134" lon="-0.91443">
        <ele>685.6089</ele>
        <time>2021-07-20T10:33:02Z</time>
      </trkpt>
      <trkpt lat="39.47247" lon="-0.91451">
        <ele>695.382</ele>
        <time>2021-07-20T10:33:13Z</time>
      </trkpt>
      <trkpt lat="39.47313" lon="-0.91518">
        <ele>699.6685</ele>
        <time>2021-07-20T10:33:24Z</time>
      </trkpt>
      <trkpt lat="39.47348" lon="-0.91595">
        <ele>704.6089</ele>
        <time>2021-07-20T10:33:35Z</time>
      </trkpt>
      <trkpt lat="39.47274" lon="-0.91651">
        <ele>706.9473</ele>
        <time>2021-07-20T10:33:46Z</time>
      </trkpt>
      <trkpt lat="39.47225" lon="-0.91689">
        <ele>712.5132</ele>
        <time>2021-07-20T10:33:57Z</time>
      </trkpt>
      <trkpt lat="39.47191" lon="-0.91724">
        <ele>709.2976</ele>
        <time>2021-07-20T10:34:08Z</time>
      </trkpt>
      <trkpt lat="39.47163" lon="-0.91767">
        <ele>709.1193</ele>
        <time>2021-07-20T10:34:19Z</time>
      </trkpt>
      <trkpt lat="39.47119" lon="-0.91656">
        <ele>708.9017</ele>
        <time>2021-07-20T10:34:30Z</time>
      </trkpt>
      <trkpt lat="39.47087" lon="-0.91602">
        <ele>704.8572</ele>
        <time>2021-07-20T10:34:41Z</time>
      </trkpt>
      <trkpt lat="39.47085" lon="-0.91595">
        <ele>712.5992</ele>
        <time>2021-07-20T10:34:52Z</time>
      </trkpt>
      <trkpt lat="39.47087" lon="-0.91598">
        <ele>724.8311</ele>
        <time>2021-07-20T10:35:16Z</time>
      </trkpt>
      <trkpt lat="39.4708" lon="-0.91557">
        <ele>734.6906</ele>
        <time>2021-07-20T10:35:27Z</time>
      </trkpt>
      <trkpt lat="39.47054" lon="-0.915">
        <ele>718.4015</ele>
        <time>2021-07-20T10:35:38Z</time>
      </trkpt>
      <trkpt lat="39.47021" lon="-0.91483">
        <ele>712.0846</ele>
        <time>2021-07-20T10:35:49Z</time>
      </trkpt>
      <trkpt lat="39.47009" lon="-0.91432">
        <ele>704.2243</ele>
        <time>2021-07-20T10:36:00Z</time>
      </trkpt>
      <trkpt lat="39.47066" lon="-0.91388">
        <ele>694.71</ele>
        <time>2021-07-20T10:36:11Z</time>
      </trkpt>
      <trkpt lat="39.47085" lon="-0.91386">
        <ele>693.2846</ele>
        <time>2021-07-20T10:36:22Z</time>
      </trkpt>
      <trkpt lat="39.4709" lon="-0.91383">
        <ele>690.362</ele>
        <time>2021-07-20T10:36:33Z</time>
      </trkpt>
      <trkpt lat="39.47094" lon="-0.91383">
        <ele>690.5254</ele>
        <time>2021-07-20T10:36:45Z</time>
      </trkpt>
      <trkpt lat="39.47093" lon="-0.91382">
        <ele>686.6087</ele>
        <time>2021-07-20T10:37:44Z</time>
      </trkpt>
      <trkpt lat="39.47092" lon="-0.91381">
        <ele>686.7115</ele>
        <time>2021-07-20T10:38:43Z</time>
      </trkpt>
      <trkpt lat="39.4713" lon="-0.91442">
        <ele>689.6743</ele>
        <time>2021-07-20T10:38:54Z</time>
      </trkpt>
      <trkpt lat="39.47243" lon="-0.91452">
        <ele>697.7905</ele>
        <time>2021-07-20T10:39:05Z</time>
      </trkpt>
      <trkpt lat="39.47308" lon="-0.915">
        <ele>700.4578</ele>
        <time>2021-07-20T10:39:16Z</time>
      </trkpt>
      <trkpt lat="39.47343" lon="-0.91503">
        <ele>699.9241</ele>
        <time>2021-07-20T10:39:27Z</time>
      </trkpt>
      <trkpt lat="39.47351" lon="-0.91503">
        <ele>699.6164</ele>
        <time>2021-07-20T10:39:38Z</time>
      </trkpt>
      <trkpt lat="39.47357" lon="-0.91505">
        <ele>700.0924</ele>
        <time>2021-07-20T10:39:49Z</time>
      </trkpt>
      <trkpt lat="39.47384" lon="-0.91501">
        <ele>701.1319</ele>
        <time>2021-07-20T10:40:00Z</time>
      </trkpt>
      <trkpt lat="39.47369" lon="-0.91505">
        <ele>700.4745</ele>
        <time>2021-07-20T10:40:11Z</time>
      </trkpt>
      <trkpt lat="39.47364" lon="-0.91504">
        <ele>700.3</ele>
        <time>2021-07-20T10:40:24Z</time>
      </trkpt>
      <trkpt lat="39.47361" lon="-0.91502">
        <ele>698.3027</ele>
        <time>2021-07-20T10:40:35Z</time>
      </trkpt>
      <trkpt lat="39.47361" lon="-0.91502">
        <ele>700.9576</ele>
        <time>2021-07-20T10:41:33Z</time>
      </trkpt>
      <trkpt lat="39.47357" lon="-0.91503">
        <ele>701.1333</ele>
        <time>2021-07-20T10:41:55Z</time>
      </trkpt>
      <trkpt lat="39.47352" lon="-0.91503">
        <ele>701.9754</ele>
        <time>2021-07-20T10:42:08Z</time>
      </trkpt>
      <trkpt lat="39.47342" lon="-0.91499">
        <ele>702.1839</ele>
        <time>2021-07-20T10:42:19Z</time>
      </trkpt>
      <trkpt lat="39.47348" lon="-0.91499">
        <ele>695.0376</ele>
        <time>2021-07-20T10:42:30Z</time>
      </trkpt>
      <trkpt lat="39.4734" lon="-0.91502">
        <ele>694.6458</ele>
        <time>2021-07-20T10:42:41Z</time>
      </trkpt>
      <trkpt lat="39.47336" lon="-0.91507">
        <ele>696.5482</ele>
        <time>2021-07-20T10:42:52Z</time>
      </trkpt>
      <trkpt lat="39.47339" lon="-0.91505">
        <ele>696.6681</ele>
        <time>2021-07-20T10:43:13Z</time>
      </trkpt>
      <trkpt lat="39.47339" lon="-0.91506">
        <ele>696.0085</ele>
        <time>2021-07-20T10:44:12Z</time>
      </trkpt>
      <trkpt lat="39.47341" lon="-0.91506">
        <ele>696.3625</ele>
        <time>2021-07-20T10:45:10Z</time>
      </trkpt>
      <trkpt lat="39.47342" lon="-0.91505">
        <ele>696.3519</ele>
        <time>2021-07-20T10:46:08Z</time>
      </trkpt>
      <trkpt lat="39.47339" lon="-0.91508">
        <ele>696.5956</ele>
        <time>2021-07-20T10:46:48Z</time>
      </trkpt>
      <trkpt lat="39.47341" lon="-0.91512">
        <ele>696.3259</ele>
        <time>2021-07-20T10:47:15Z</time>
      </trkpt>
      <trkpt lat="39.47339" lon="-0.9151">
        <ele>696.741</ele>
        <time>2021-07-20T10:48:13Z</time>
      </trkpt>
      <trkpt lat="39.47339" lon="-0.91507">
        <ele>696.4991</ele>
        <time>2021-07-20T10:49:11Z</time>
      </trkpt>
      <trkpt lat="39.4734" lon="-0.91508">
        <ele>696.8562</ele>
        <time>2021-07-20T10:50:10Z</time>
      </trkpt>
      <trkpt lat="39.47341" lon="-0.91508">
        <ele>696.2005</ele>
        <time>2021-07-20T10:51:10Z</time>
      </trkpt>
      <trkpt lat="39.4734" lon="-0.91509">
        <ele>696.778</ele>
        <time>2021-07-20T10:52:10Z</time>
      </trkpt>
      <trkpt lat="39.47341" lon="-0.91505">
        <ele>697.0906</ele>
        <time>2021-07-20T10:53:10Z</time>
      </trkpt>
      <trkpt lat="39.4734" lon="-0.91506">
        <ele>696.6194</ele>
        <time>2021-07-20T10:54:09Z</time>
      </trkpt>
      <trkpt lat="39.47342" lon="-0.91506">
        <ele>696.7697</ele>
        <time>2021-07-20T10:55:09Z</time>
      </trkpt>
      <trkpt lat="39.47342" lon="-0.91503">
        <ele>696.3849</ele>
        <time>2021-07-20T10:56:08Z</time>
      </trkpt>
      <trkpt lat="39.47344" lon="-0.91505">
        <ele>695.8125</ele>
        <time>2021-07-20T10:57:08Z</time>
      </trkpt>
      <trkpt lat="39.47342" lon="-0.91507">
        <ele>696.4855</ele>
        <time>2021-07-20T10:58:08Z</time>
      </trkpt>
      <trkpt lat="39.47338" lon="-0.91507">
        <ele>696.5866</ele>
        <time>2021-07-20T10:59:08Z</time>
      </trkpt>
      <trkpt lat="39.47338" lon="-0.91507">
        <ele>696.4869</ele>
        <time>2021-07-20T11:00:07Z</time>
      </trkpt>
      <trkpt lat="39.4734" lon="-0.91504">
        <ele>696.366</ele>
        <time>2021-07-20T11:01:06Z</time>
      </trkpt>
      <trkpt lat="39.4734" lon="-0.91509">
        <ele>696.2412</ele>
        <time>2021-07-20T11:02:06Z</time>
      </trkpt>
      <trkpt lat="39.4734" lon="-0.91507">
        <ele>696.7784</ele>
        <time>2021-07-20T11:03:06Z</time>
      </trkpt>
      <trkpt lat="39.47339" lon="-0.91507">
        <ele>696.2193</ele>
        <time>2021-07-20T11:04:06Z</time>
      </trkpt>
      <trkpt lat="39.4734" lon="-0.91508">
        <ele>696.0424</ele>
        <time>2021-07-20T11:05:05Z</time>
      </trkpt>
      <trkpt lat="39.47339" lon="-0.91506">
        <ele>696.8337</ele>
        <time>2021-07-20T11:06:05Z</time>
      </trkpt>
      <trkpt lat="39.47341" lon="-0.91508">
        <ele>696.8799</ele>
        <time>2021-07-20T11:07:03Z</time>
      </trkpt>
      <trkpt lat="39.47342" lon="-0.91506">
        <ele>696.0484</ele>
        <time>2021-07-20T11:08:03Z</time>
      </trkpt>
      <trkpt lat="39.47343" lon="-0.91504">
        <ele>696.5091</ele>
        <time>2021-07-20T11:09:02Z</time>
      </trkpt>
      <trkpt lat="39.47345" lon="-0.91505">
        <ele>696.5806</ele>
        <time>2021-07-20T11:10:00Z</time>
      </trkpt>
      <trkpt lat="39.47342" lon="-0.91509">
        <ele>696.3423</ele>
        <time>2021-07-20T11:10:23Z</time>
      </trkpt>
      <trkpt lat="39.47341" lon="-0.91508">
        <ele>696.7956</ele>
        <time>2021-07-20T11:11:23Z</time>
      </trkpt>
      <trkpt lat="39.4734" lon="-0.91509">
        <ele>696.6412</ele>
        <time>2021-07-20T11:12:23Z</time>
      </trkpt>
      <trkpt lat="39.47343" lon="-0.91508">
        <ele>696.322</ele>
        <time>2021-07-20T11:13:23Z</time>
      </trkpt>
      <trkpt lat="39.47343" lon="-0.91507">
        <ele>696.378</ele>
        <time>2021-07-20T11:14:23Z</time>
      </trkpt>
      <trkpt lat="39.47343" lon="-0.91508">
        <ele>696.1296</ele>
        <time>2021-07-20T11:15:23Z</time>
      </trkpt>
      <trkpt lat="39.47341" lon="-0.9151">
        <ele>696.1161</ele>
        <time>2021-07-20T11:16:23Z</time>
      </trkpt>
      <trkpt lat="39.47341" lon="-0.9151">
        <ele>696.1161</ele>
        <time>2021-07-20T11:17:23Z</time>
      </trkpt>
      <trkpt lat="39.47341" lon="-0.91509">
        <ele>696.5872</ele>
        <time>2021-07-20T11:18:23Z</time>
      </trkpt>
      <trkpt lat="39.47342" lon="-0.91508">
        <ele>696.4896</ele>
        <time>2021-07-20T11:19:23Z</time>
      </trkpt>
      <trkpt lat="39.47342" lon="-0.91508">
        <ele>696.4896</ele>
        <time>2021-07-20T11:20:23Z</time>
      </trkpt>
      <trkpt lat="39.4734" lon="-0.9151">
        <ele>696.7236</ele>
        <time>2021-07-20T11:21:22Z</time>
      </trkpt>
      <trkpt lat="39.47343" lon="-0.91508">
        <ele>696.2651</ele>
        <time>2021-07-20T11:21:53Z</time>
      </trkpt>
      <trkpt lat="39.47341" lon="-0.91508">
        <ele>696.2496</ele>
        <time>2021-07-20T11:22:53Z</time>
      </trkpt>
      <trkpt lat="39.47343" lon="-0.91506">
        <ele>695.9823</ele>
        <time>2021-07-20T11:23:52Z</time>
      </trkpt>
      <trkpt lat="39.47343" lon="-0.91506">
        <ele>696.0446</ele>
        <time>2021-07-20T11:24:50Z</time>
      </trkpt>
      <trkpt lat="39.47344" lon="-0.91507">
        <ele>695.6492</ele>
        <time>2021-07-20T11:25:49Z</time>
      </trkpt>
      <trkpt lat="39.47343" lon="-0.91505">
        <ele>695.8167</ele>
        <time>2021-07-20T11:26:48Z</time>
      </trkpt>
      <trkpt lat="39.47343" lon="-0.91505">
        <ele>695.8167</ele>
        <time>2021-07-20T11:27:47Z</time>
      </trkpt>
      <trkpt lat="39.47343" lon="-0.91504">
        <ele>695.6844</ele>
        <time>2021-07-20T11:28:46Z</time>
      </trkpt>
      <trkpt lat="39.47347" lon="-0.91502">
        <ele>694.5882</ele>
        <time>2021-07-20T11:29:41Z</time>
      </trkpt>
      <trkpt lat="39.47343" lon="-0.91506">
        <ele>696.2474</ele>
        <time>2021-07-20T11:30:00Z</time>
      </trkpt>
      <trkpt lat="39.47343" lon="-0.91506">
        <ele>696.1662</ele>
        <time>2021-07-20T11:30:59Z</time>
      </trkpt>
      <trkpt lat="39.47343" lon="-0.91506">
        <ele>696.1662</ele>
        <time>2021-07-20T11:31:59Z</time>
      </trkpt>
      <trkpt lat="39.47343" lon="-0.91506">
        <ele>696.1662</ele>
        <time>2021-07-20T11:32:58Z</time>
      </trkpt>
      <trkpt lat="39.47345" lon="-0.91505">
        <ele>696.1737</ele>
        <time>2021-07-20T11:33:58Z</time>
      </trkpt>
      <trkpt lat="39.47345" lon="-0.91505">
        <ele>696.1737</ele>
        <time>2021-07-20T11:34:57Z</time>
      </trkpt>
      <trkpt lat="39.47345" lon="-0.91505">
        <ele>696.1737</ele>
        <time>2021-07-20T11:35:57Z</time>
      </trkpt>
      <trkpt lat="39.47343" lon="-0.91507">
        <ele>695.845</ele>
        <time>2021-07-20T11:36:13Z</time>
      </trkpt>
      <trkpt lat="39.47342" lon="-0.91507">
        <ele>696.5141</ele>
        <time>2021-07-20T11:37:12Z</time>
      </trkpt>
      <trkpt lat="39.47342" lon="-0.91508">
        <ele>696.3041</ele>
        <time>2021-07-20T11:38:11Z</time>
      </trkpt>
      <trkpt lat="39.47342" lon="-0.91508">
        <ele>696.3041</ele>
        <time>2021-07-20T11:39:10Z</time>
      </trkpt>
      <trkpt lat="39.47343" lon="-0.91507">
        <ele>696.4396</ele>
        <time>2021-07-20T11:40:09Z</time>
      </trkpt>
      <trkpt lat="39.47343" lon="-0.91507">
        <ele>696.4396</ele>
        <time>2021-07-20T11:41:08Z</time>
      </trkpt>
      <trkpt lat="39.47343" lon="-0.91507">
        <ele>696.4396</ele>
        <time>2021-07-20T11:42:08Z</time>
      </trkpt>
      <trkpt lat="39.4734" lon="-0.91508">
        <ele>696.6601</ele>
        <time>2021-07-20T11:42:56Z</time>
      </trkpt>
      <trkpt lat="39.47336" lon="-0.91509">
        <ele>696.8979</ele>
        <time>2021-07-20T11:43:27Z</time>
      </trkpt>
      <trkpt lat="39.47341" lon="-0.91507">
        <ele>695.6254</ele>
        <time>2021-07-20T11:43:38Z</time>
      </trkpt>
      <trkpt lat="39.47343" lon="-0.91504">
        <ele>696.3029</ele>
        <time>2021-07-20T11:44:01Z</time>
      </trkpt>
      <trkpt lat="39.47339" lon="-0.91506">
        <ele>695.3104</ele>
        <time>2021-07-20T11:44:29Z</time>
      </trkpt>
      <trkpt lat="39.4734" lon="-0.91504">
        <ele>695.5815</ele>
        <time>2021-07-20T11:45:27Z</time>
      </trkpt>
      <trkpt lat="39.47346" lon="-0.9151">
        <ele>696.2764</ele>
        <time>2021-07-20T11:45:38Z</time>
      </trkpt>
      <trkpt lat="39.4735" lon="-0.91511">
        <ele>697.0406</ele>
        <time>2021-07-20T11:46:12Z</time>
      </trkpt>
      <trkpt lat="39.47363" lon="-0.91504">
        <ele>695.4578</ele>
        <time>2021-07-20T11:46:23Z</time>
      </trkpt>
      <trkpt lat="39.47361" lon="-0.91501">
        <ele>695.4481</ele>
        <time>2021-07-20T11:47:22Z</time>
      </trkpt>
      <trkpt lat="39.47361" lon="-0.91502">
        <ele>696.4901</ele>
        <time>2021-07-20T11:48:21Z</time>
      </trkpt>
      <trkpt lat="39.4736" lon="-0.91501">
        <ele>697.2288</ele>
        <time>2021-07-20T11:49:20Z</time>
      </trkpt>
      <trkpt lat="39.47362" lon="-0.91501">
        <ele>695.7648</ele>
        <time>2021-07-20T11:50:19Z</time>
      </trkpt>
      <trkpt lat="39.47362" lon="-0.91506">
        <ele>695.1179</ele>
        <time>2021-07-20T11:50:45Z</time>
      </trkpt>
      <trkpt lat="39.47365" lon="-0.91503">
        <ele>697.104</ele>
        <time>2021-07-20T11:51:05Z</time>
      </trkpt>
      <trkpt lat="39.47351" lon="-0.91504">
        <ele>696.0368</ele>
        <time>2021-07-20T11:51:16Z</time>
      </trkpt>
      <trkpt lat="39.47314" lon="-0.91506">
        <ele>697.2387</ele>
        <time>2021-07-20T11:51:27Z</time>
      </trkpt>
      <trkpt lat="39.47272" lon="-0.91458">
        <ele>692.0137</ele>
        <time>2021-07-20T11:51:38Z</time>
      </trkpt>
      <trkpt lat="39.47151" lon="-0.91457">
        <ele>686.9884</ele>
        <time>2021-07-20T11:51:49Z</time>
      </trkpt>
      <trkpt lat="39.47071" lon="-0.91325">
        <ele>680.838</ele>
        <time>2021-07-20T11:52:00Z</time>
      </trkpt>
      <trkpt lat="39.46999" lon="-0.91143">
        <ele>669.0539</ele>
        <time>2021-07-20T11:52:11Z</time>
      </trkpt>
      <trkpt lat="39.46883" lon="-0.91004">
        <ele>676.2456</ele>
        <time>2021-07-20T11:52:22Z</time>
      </trkpt>
      <trkpt lat="39.46753" lon="-0.91001">
        <ele>684.0173</ele>
        <time>2021-07-20T11:52:33Z</time>
      </trkpt>
      <trkpt lat="39.46623" lon="-0.9089">
        <ele>688.3826</ele>
        <time>2021-07-20T11:52:44Z</time>
      </trkpt>
      <trkpt lat="39.46453" lon="-0.90813">
        <ele>689.2325</ele>
        <time>2021-07-20T11:52:55Z</time>
      </trkpt>
      <trkpt lat="39.46285" lon="-0.90742">
        <ele>686.6654</ele>
        <time>2021-07-20T11:53:06Z</time>
      </trkpt>
      <trkpt lat="39.46136" lon="-0.90754">
        <ele>676.5482</ele>
        <time>2021-07-20T11:53:17Z</time>
      </trkpt>
      <trkpt lat="39.4597" lon="-0.90649">
        <ele>670.2362</ele>
        <time>2021-07-20T11:53:28Z</time>
      </trkpt>
      <trkpt lat="39.45801" lon="-0.90511">
        <ele>660.4998</ele>
        <time>2021-07-20T11:53:39Z</time>
      </trkpt>
      <trkpt lat="39.45652" lon="-0.90381">
        <ele>655.0846</ele>
        <time>2021-07-20T11:53:50Z</time>
      </trkpt>
      <trkpt lat="39.456" lon="-0.90323">
        <ele>649.2599</ele>
        <time>2021-07-20T11:54:01Z</time>
      </trkpt>
      <trkpt lat="39.45675" lon="-0.90251">
        <ele>647.6622</ele>
        <time>2021-07-20T11:54:12Z</time>
      </trkpt>
      <trkpt lat="39.4569" lon="-0.90074">
        <ele>643.8777</ele>
        <time>2021-07-20T11:54:23Z</time>
      </trkpt>
      <trkpt lat="39.45646" lon="-0.899">
        <ele>638.5324</ele>
        <time>2021-07-20T11:54:34Z</time>
      </trkpt>
      <trkpt lat="39.45651" lon="-0.89808">
        <ele>631.4025</ele>
        <time>2021-07-20T11:54:45Z</time>
      </trkpt>
      <trkpt lat="39.45627" lon="-0.89702">
        <ele>633.0191</ele>
        <time>2021-07-20T11:54:56Z</time>
      </trkpt>
      <trkpt lat="39.4567" lon="-0.89441">
        <ele>622.1635</ele>
        <time>2021-07-20T11:55:07Z</time>
      </trkpt>
      <trkpt lat="39.45728" lon="-0.8915">
        <ele>616.8695</ele>
        <time>2021-07-20T11:55:18Z</time>
      </trkpt>
      <trkpt lat="39.45641" lon="-0.88917">
        <ele>613.8817</ele>
        <time>2021-07-20T11:55:29Z</time>
      </trkpt>
      <trkpt lat="39.45685" lon="-0.88701">
        <ele>609.7354</ele>
        <time>2021-07-20T11:55:40Z</time>
      </trkpt>
      <trkpt lat="39.45711" lon="-0.88437">
        <ele>607.281</ele>
        <time>2021-07-20T11:55:51Z</time>
      </trkpt>
      <trkpt lat="39.45676" lon="-0.88098">
        <ele>606.4231</ele>
        <time>2021-07-20T11:56:02Z</time>
      </trkpt>
      <trkpt lat="39.45683" lon="-0.87768">
        <ele>603.6627</ele>
        <time>2021-07-20T11:56:13Z</time>
      </trkpt>
      <trkpt lat="39.45666" lon="-0.87499">
        <ele>596.4433</ele>
        <time>2021-07-20T11:56:24Z</time>
      </trkpt>
      <trkpt lat="39.45665" lon="-0.8724">
        <ele>590.2955</ele>
        <time>2021-07-20T11:56:35Z</time>
      </trkpt>
      <trkpt lat="39.45449" lon="-0.87113">
        <ele>589.7909</ele>
        <time>2021-07-20T11:56:46Z</time>
      </trkpt>
      <trkpt lat="39.45302" lon="-0.86876">
        <ele>586.5206</ele>
        <time>2021-07-20T11:56:57Z</time>
      </trkpt>
      <trkpt lat="39.4535" lon="-0.86686">
        <ele>591.6075</ele>
        <time>2021-07-20T11:57:08Z</time>
      </trkpt>
      <trkpt lat="39.45568" lon="-0.86559">
        <ele>584.267</ele>
        <time>2021-07-20T11:57:19Z</time>
      </trkpt>
      <trkpt lat="39.45499" lon="-0.86268">
        <ele>582.861</ele>
        <time>2021-07-20T11:57:30Z</time>
      </trkpt>
      <trkpt lat="39.45352" lon="-0.85998">
        <ele>581.8504</ele>
        <time>2021-07-20T11:57:41Z</time>
      </trkpt>
      <trkpt lat="39.4526" lon="-0.85648">
        <ele>586.0621</ele>
        <time>2021-07-20T11:57:52Z</time>
      </trkpt>
      <trkpt lat="39.45072" lon="-0.85379">
        <ele>602.6805</ele>
        <time>2021-07-20T11:58:03Z</time>
      </trkpt>
      <trkpt lat="39.44982" lon="-0.85056">
        <ele>612.7625</ele>
        <time>2021-07-20T11:58:14Z</time>
      </trkpt>
      <trkpt lat="39.4489" lon="-0.8472">
        <ele>608.8331</ele>
        <time>2021-07-20T11:58:25Z</time>
      </trkpt>
      <trkpt lat="39.44745" lon="-0.84399">
        <ele>603.9786</ele>
        <time>2021-07-20T11:58:36Z</time>
      </trkpt>
      <trkpt lat="39.44595" lon="-0.84161">
        <ele>606.9239</ele>
        <time>2021-07-20T11:58:47Z</time>
      </trkpt>
      <trkpt lat="39.44468" lon="-0.83874">
        <ele>602.0307</ele>
        <time>2021-07-20T11:58:58Z</time>
      </trkpt>
      <trkpt lat="39.44402" lon="-0.83546">
        <ele>587.8712</ele>
        <time>2021-07-20T11:59:09Z</time>
      </trkpt>
      <trkpt lat="39.44302" lon="-0.83224">
        <ele>593.4687</ele>
        <time>2021-07-20T11:59:20Z</time>
      </trkpt>
      <trkpt lat="39.44225" lon="-0.82881">
        <ele>600.2324</ele>
        <time>2021-07-20T11:59:31Z</time>
      </trkpt>
      <trkpt lat="39.44088" lon="-0.82565">
        <ele>598.1776</ele>
        <time>2021-07-20T11:59:42Z</time>
      </trkpt>
      <trkpt lat="39.43869" lon="-0.8231">
        <ele>590.4552</ele>
        <time>2021-07-20T11:59:53Z</time>
      </trkpt>
      <trkpt lat="39.43644" lon="-0.82142">
        <ele>589.7766</ele>
        <time>2021-07-20T12:00:04Z</time>
      </trkpt>
      <trkpt lat="39.43413" lon="-0.8199">
        <ele>590.996</ele>
        <time>2021-07-20T12:00:15Z</time>
      </trkpt>
      <trkpt lat="39.43221" lon="-0.81834">
        <ele>569.8049</ele>
        <time>2021-07-20T12:00:26Z</time>
      </trkpt>
      <trkpt lat="39.43164" lon="-0.81524">
        <ele>552.4642</ele>
        <time>2021-07-20T12:00:37Z</time>
      </trkpt>
      <trkpt lat="39.43094" lon="-0.81222">
        <ele>534.3903</ele>
        <time>2021-07-20T12:00:48Z</time>
      </trkpt>
      <trkpt lat="39.43073" lon="-0.80933">
        <ele>520.5834</ele>
        <time>2021-07-20T12:00:59Z</time>
      </trkpt>
      <trkpt lat="39.43139" lon="-0.80635">
        <ele>504.5582</ele>
        <time>2021-07-20T12:01:10Z</time>
      </trkpt>
      <trkpt lat="39.42982" lon="-0.80348">
        <ele>486.5289</ele>
        <time>2021-07-20T12:01:21Z</time>
      </trkpt>
      <trkpt lat="39.4294" lon="-0.80019">
        <ele>474.2542</ele>
        <time>2021-07-20T12:01:32Z</time>
      </trkpt>
      <trkpt lat="39.42959" lon="-0.79745">
        <ele>462.6713</ele>
        <time>2021-07-20T12:01:43Z</time>
      </trkpt>
      <trkpt lat="39.42817" lon="-0.79444">
        <ele>444.3264</ele>
        <time>2021-07-20T12:01:54Z</time>
      </trkpt>
      <trkpt lat="39.42686" lon="-0.79307">
        <ele>430.5796</ele>
        <time>2021-07-20T12:02:05Z</time>
      </trkpt>
      <trkpt lat="39.42583" lon="-0.79185">
        <ele>423.1962</ele>
        <time>2021-07-20T12:02:16Z</time>
      </trkpt>
      <trkpt lat="39.42496" lon="-0.7907">
        <ele>417.8244</ele>
        <time>2021-07-20T12:02:27Z</time>
      </trkpt>
      <trkpt lat="39.42447" lon="-0.78997">
        <ele>419.9914</ele>
        <time>2021-07-20T12:02:38Z</time>
      </trkpt>
      <trkpt lat="39.42468" lon="-0.78934">
        <ele>421.3499</ele>
        <time>2021-07-20T12:02:49Z</time>
      </trkpt>
      <trkpt lat="39.42521" lon="-0.7884">
        <ele>419.344</ele>
        <time>2021-07-20T12:03:00Z</time>
      </trkpt>
      <trkpt lat="39.42428" lon="-0.7882">
        <ele>414.0417</ele>
        <time>2021-07-20T12:03:11Z</time>
      </trkpt>
      <trkpt lat="39.42308" lon="-0.78862">
        <ele>406.4001</ele>
        <time>2021-07-20T12:03:22Z</time>
      </trkpt>
      <trkpt lat="39.42203" lon="-0.78896">
        <ele>394.6477</ele>
        <time>2021-07-20T12:03:33Z</time>
      </trkpt>
      <trkpt lat="39.42117" lon="-0.78966">
        <ele>384.4327</ele>
        <time>2021-07-20T12:03:44Z</time>
      </trkpt>
      <trkpt lat="39.42105" lon="-0.78962">
        <ele>385.4447</ele>
        <time>2021-07-20T12:03:55Z</time>
      </trkpt>
      <trkpt lat="39.42074" lon="-0.78964">
        <ele>386.0368</ele>
        <time>2021-07-20T12:04:06Z</time>
      </trkpt>
      <trkpt lat="39.41971" lon="-0.78949">
        <ele>382.6266</ele>
        <time>2021-07-20T12:04:17Z</time>
      </trkpt>
      <trkpt lat="39.41876" lon="-0.7888">
        <ele>375.3389</ele>
        <time>2021-07-20T12:04:28Z</time>
      </trkpt>
      <trkpt lat="39.41793" lon="-0.78836">
        <ele>370.2151</ele>
        <time>2021-07-20T12:04:39Z</time>
      </trkpt>
      <trkpt lat="39.41717" lon="-0.78793">
        <ele>367.437</ele>
        <time>2021-07-20T12:04:50Z</time>
      </trkpt>
      <trkpt lat="39.4168" lon="-0.78783">
        <ele>368.8089</ele>
        <time>2021-07-20T12:05:01Z</time>
      </trkpt>
      <trkpt lat="39.41648" lon="-0.78836">
        <ele>370.0378</ele>
        <time>2021-07-20T12:05:12Z</time>
      </trkpt>
      <trkpt lat="39.41596" lon="-0.78925">
        <ele>356.7072</ele>
        <time>2021-07-20T12:05:23Z</time>
      </trkpt>
      <trkpt lat="39.41505" lon="-0.78874">
        <ele>343.2709</ele>
        <time>2021-07-20T12:05:34Z</time>
      </trkpt>
      <trkpt lat="39.41412" lon="-0.78797">
        <ele>342.2608</ele>
        <time>2021-07-20T12:05:45Z</time>
      </trkpt>
      <trkpt lat="39.41293" lon="-0.78689">
        <ele>328.1056</ele>
        <time>2021-07-20T12:05:56Z</time>
      </trkpt>
      <trkpt lat="39.41106" lon="-0.78634">
        <ele>317.2466</ele>
        <time>2021-07-20T12:06:07Z</time>
      </trkpt>
      <trkpt lat="39.40862" lon="-0.78562">
        <ele>310.8578</ele>
        <time>2021-07-20T12:06:18Z</time>
      </trkpt>
      <trkpt lat="39.4065" lon="-0.78491">
        <ele>304.3548</ele>
        <time>2021-07-20T12:06:29Z</time>
      </trkpt>
      <trkpt lat="39.40439" lon="-0.78453">
        <ele>307.8018</ele>
        <time>2021-07-20T12:06:40Z</time>
      </trkpt>
      <trkpt lat="39.40263" lon="-0.7836">
        <ele>317.2002</ele>
        <time>2021-07-20T12:06:51Z</time>
      </trkpt>
      <trkpt lat="39.40093" lon="-0.78284">
        <ele>320.7976</ele>
        <time>2021-07-20T12:07:02Z</time>
      </trkpt>
      <trkpt lat="39.39943" lon="-0.78311">
        <ele>325.4731</ele>
        <time>2021-07-20T12:07:13Z</time>
      </trkpt>
      <trkpt lat="39.39857" lon="-0.7846">
        <ele>318.827</ele>
        <time>2021-07-20T12:07:24Z</time>
      </trkpt>
      <trkpt lat="39.39776" lon="-0.78327">
        <ele>323.1881</ele>
        <time>2021-07-20T12:07:35Z</time>
      </trkpt>
      <trkpt lat="39.39714" lon="-0.7815">
        <ele>331.9888</ele>
        <time>2021-07-20T12:07:46Z</time>
      </trkpt>
      <trkpt lat="39.39633" lon="-0.78137">
        <ele>337.0961</ele>
        <time>2021-07-20T12:07:57Z</time>
      </trkpt>
      <trkpt lat="39.39533" lon="-0.78027">
        <ele>341.2124</ele>
        <time>2021-07-20T12:08:08Z</time>
      </trkpt>
      <trkpt lat="39.3945" lon="-0.77893">
        <ele>345.0073</ele>
        <time>2021-07-20T12:08:19Z</time>
      </trkpt>
      <trkpt lat="39.39414" lon="-0.77759">
        <ele>347.8587</ele>
        <time>2021-07-20T12:08:30Z</time>
      </trkpt>
      <trkpt lat="39.39373" lon="-0.7759">
        <ele>340.1167</ele>
        <time>2021-07-20T12:08:41Z</time>
      </trkpt>
      <trkpt lat="39.39379" lon="-0.7742">
        <ele>329.0817</ele>
        <time>2021-07-20T12:08:52Z</time>
      </trkpt>
      <trkpt lat="39.393" lon="-0.77302">
        <ele>315.5802</ele>
        <time>2021-07-20T12:09:03Z</time>
      </trkpt>
      <trkpt lat="39.39242" lon="-0.77186">
        <ele>309.8945</ele>
        <time>2021-07-20T12:09:14Z</time>
      </trkpt>
      <trkpt lat="39.39156" lon="-0.77095">
        <ele>307.7094</ele>
        <time>2021-07-20T12:09:25Z</time>
      </trkpt>
      <trkpt lat="39.39095" lon="-0.77009">
        <ele>303.7369</ele>
        <time>2021-07-20T12:09:36Z</time>
      </trkpt>
      <trkpt lat="39.39094" lon="-0.76916">
        <ele>297.3674</ele>
        <time>2021-07-20T12:09:47Z</time>
      </trkpt>
      <trkpt lat="39.39121" lon="-0.76815">
        <ele>289.9905</ele>
        <time>2021-07-20T12:09:58Z</time>
      </trkpt>
      <trkpt lat="39.3924" lon="-0.76838">
        <ele>282.8044</ele>
        <time>2021-07-20T12:10:09Z</time>
      </trkpt>
      <trkpt lat="39.39349" lon="-0.76858">
        <ele>278.3563</ele>
        <time>2021-07-20T12:10:20Z</time>
      </trkpt>
      <trkpt lat="39.39293" lon="-0.76769">
        <ele>270.3043</ele>
        <time>2021-07-20T12:10:31Z</time>
      </trkpt>
      <trkpt lat="39.39248" lon="-0.76624">
        <ele>267.0892</ele>
        <time>2021-07-20T12:10:42Z</time>
      </trkpt>
      <trkpt lat="39.39291" lon="-0.76484">
        <ele>269.7876</ele>
        <time>2021-07-20T12:10:53Z</time>
      </trkpt>
      <trkpt lat="39.39366" lon="-0.76462">
        <ele>276.1528</ele>
        <time>2021-07-20T12:11:04Z</time>
      </trkpt>
      <trkpt lat="39.39309" lon="-0.76325">
        <ele>282.1401</ele>
        <time>2021-07-20T12:11:15Z</time>
      </trkpt>
      <trkpt lat="39.39215" lon="-0.76146">
        <ele>282.0755</ele>
        <time>2021-07-20T12:11:26Z</time>
      </trkpt>
      <trkpt lat="39.39093" lon="-0.75906">
        <ele>274.5238</ele>
        <time>2021-07-20T12:11:37Z</time>
      </trkpt>
      <trkpt lat="39.38946" lon="-0.75629">
        <ele>268.0951</ele>
        <time>2021-07-20T12:11:48Z</time>
      </trkpt>
      <trkpt lat="39.38797" lon="-0.75356">
        <ele>257.0179</ele>
        <time>2021-07-20T12:11:59Z</time>
      </trkpt>
      <trkpt lat="39.38729" lon="-0.75067">
        <ele>251.9902</ele>
        <time>2021-07-20T12:12:10Z</time>
      </trkpt>
      <trkpt lat="39.38695" lon="-0.74715">
        <ele>259.5446</ele>
        <time>2021-07-20T12:12:21Z</time>
      </trkpt>
      <trkpt lat="39.38657" lon="-0.74392">
        <ele>260.6227</ele>
        <time>2021-07-20T12:12:32Z</time>
      </trkpt>
      <trkpt lat="39.38671" lon="-0.74046">
        <ele>260.8101</ele>
        <time>2021-07-20T12:12:43Z</time>
      </trkpt>
      <trkpt lat="39.38707" lon="-0.73707">
        <ele>259.6427</ele>
        <time>2021-07-20T12:12:54Z</time>
      </trkpt>
      <trkpt lat="39.38738" lon="-0.73374">
        <ele>262.5339</ele>
        <time>2021-07-20T12:13:05Z</time>
      </trkpt>
      <trkpt lat="39.38771" lon="-0.73049">
        <ele>271.3309</ele>
        <time>2021-07-20T12:13:16Z</time>
      </trkpt>
      <trkpt lat="39.38805" lon="-0.72729">
        <ele>268.379</ele>
        <time>2021-07-20T12:13:27Z</time>
      </trkpt>
      <trkpt lat="39.38844" lon="-0.72406">
        <ele>274.8942</ele>
        <time>2021-07-20T12:13:38Z</time>
      </trkpt>
      <trkpt lat="39.38899" lon="-0.7216">
        <ele>274.638</ele>
        <time>2021-07-20T12:13:49Z</time>
      </trkpt>
      <trkpt lat="39.38934" lon="-0.72015">
        <ele>272.2113</ele>
        <time>2021-07-20T12:14:00Z</time>
      </trkpt>
      <trkpt lat="39.38967" lon="-0.71852">
        <ele>272.3261</ele>
        <time>2021-07-20T12:14:11Z</time>
      </trkpt>
      <trkpt lat="39.39005" lon="-0.71698">
        <ele>275.1003</ele>
        <time>2021-07-20T12:14:22Z</time>
      </trkpt>
      <trkpt lat="39.39042" lon="-0.7154">
        <ele>274.1724</ele>
        <time>2021-07-20T12:14:33Z</time>
      </trkpt>
      <trkpt lat="39.39075" lon="-0.71409">
        <ele>274.5163</ele>
        <time>2021-07-20T12:14:44Z</time>
      </trkpt>
      <trkpt lat="39.39072" lon="-0.71289">
        <ele>276.7176</ele>
        <time>2021-07-20T12:14:55Z</time>
      </trkpt>
      <trkpt lat="39.39058" lon="-0.71159">
        <ele>275.4068</ele>
        <time>2021-07-20T12:15:06Z</time>
      </trkpt>
      <trkpt lat="39.39094" lon="-0.7105">
        <ele>286.2913</ele>
        <time>2021-07-20T12:15:17Z</time>
      </trkpt>
      <trkpt lat="39.39137" lon="-0.70929">
        <ele>284.812</ele>
        <time>2021-07-20T12:15:28Z</time>
      </trkpt>
      <trkpt lat="39.3917" lon="-0.70815">
        <ele>280.7807</ele>
        <time>2021-07-20T12:15:39Z</time>
      </trkpt>
      <trkpt lat="39.39197" lon="-0.70701">
        <ele>279.7791</ele>
        <time>2021-07-20T12:15:50Z</time>
      </trkpt>
      <trkpt lat="39.39224" lon="-0.70578">
        <ele>281.1142</ele>
        <time>2021-07-20T12:16:01Z</time>
      </trkpt>
      <trkpt lat="39.3925" lon="-0.70472">
        <ele>279.5932</ele>
        <time>2021-07-20T12:16:12Z</time>
      </trkpt>
      <trkpt lat="39.39258" lon="-0.7038">
        <ele>277.051</ele>
        <time>2021-07-20T12:16:23Z</time>
      </trkpt>
      <trkpt lat="39.39207" lon="-0.70292">
        <ele>277.1573</ele>
        <time>2021-07-20T12:16:34Z</time>
      </trkpt>
      <trkpt lat="39.39114" lon="-0.70189">
        <ele>275.6907</ele>
        <time>2021-07-20T12:16:45Z</time>
      </trkpt>
      <trkpt lat="39.39007" lon="-0.70074">
        <ele>268.5525</ele>
        <time>2021-07-20T12:16:56Z</time>
      </trkpt>
      <trkpt lat="39.3891" lon="-0.69944">
        <ele>260.3306</ele>
        <time>2021-07-20T12:17:07Z</time>
      </trkpt>
      <trkpt lat="39.38909" lon="-0.69744">
        <ele>252.8254</ele>
        <time>2021-07-20T12:17:18Z</time>
      </trkpt>
      <trkpt lat="39.38909" lon="-0.69548">
        <ele>252.619</ele>
        <time>2021-07-20T12:17:29Z</time>
      </trkpt>
      <trkpt lat="39.38877" lon="-0.69358">
        <ele>251.467</ele>
        <time>2021-07-20T12:17:40Z</time>
      </trkpt>
      <trkpt lat="39.38808" lon="-0.69166">
        <ele>248.5221</ele>
        <time>2021-07-20T12:17:51Z</time>
      </trkpt>
      <trkpt lat="39.38757" lon="-0.68941">
        <ele>240.0691</ele>
        <time>2021-07-20T12:18:02Z</time>
      </trkpt>
      <trkpt lat="39.38723" lon="-0.68729">
        <ele>239.1633</ele>
        <time>2021-07-20T12:18:13Z</time>
      </trkpt>
      <trkpt lat="39.38717" lon="-0.68481">
        <ele>234.404</ele>
        <time>2021-07-20T12:18:24Z</time>
      </trkpt>
      <trkpt lat="39.38734" lon="-0.68242">
        <ele>231.934</ele>
        <time>2021-07-20T12:18:35Z</time>
      </trkpt>
      <trkpt lat="39.38731" lon="-0.67993">
        <ele>230.4116</ele>
        <time>2021-07-20T12:18:46Z</time>
      </trkpt>
      <trkpt lat="39.38726" lon="-0.67745">
        <ele>228.2123</ele>
        <time>2021-07-20T12:18:57Z</time>
      </trkpt>
      <trkpt lat="39.38725" lon="-0.67491">
        <ele>228.9057</ele>
        <time>2021-07-20T12:19:08Z</time>
      </trkpt>
      <trkpt lat="39.38717" lon="-0.67234">
        <ele>229.906</ele>
        <time>2021-07-20T12:19:19Z</time>
      </trkpt>
      <trkpt lat="39.38687" lon="-0.66879">
        <ele>232.771</ele>
        <time>2021-07-20T12:19:30Z</time>
      </trkpt>
      <trkpt lat="39.38769" lon="-0.66537">
        <ele>232.1935</ele>
        <time>2021-07-20T12:19:41Z</time>
      </trkpt>
      <trkpt lat="39.38904" lon="-0.6621">
        <ele>230.5289</ele>
        <time>2021-07-20T12:19:52Z</time>
      </trkpt>
      <trkpt lat="39.38895" lon="-0.65857">
        <ele>224.9728</ele>
        <time>2021-07-20T12:20:03Z</time>
      </trkpt>
      <trkpt lat="39.38877" lon="-0.65501">
        <ele>213.3386</ele>
        <time>2021-07-20T12:20:14Z</time>
      </trkpt>
      <trkpt lat="39.39008" lon="-0.65179">
        <ele>213.304</ele>
        <time>2021-07-20T12:20:25Z</time>
      </trkpt>
      <trkpt lat="39.39059" lon="-0.6488">
        <ele>210.9316</ele>
        <time>2021-07-20T12:20:36Z</time>
      </trkpt>
      <trkpt lat="39.39015" lon="-0.64555">
        <ele>206.8044</ele>
        <time>2021-07-20T12:20:47Z</time>
      </trkpt>
      <trkpt lat="39.38967" lon="-0.64228">
        <ele>203.8625</ele>
        <time>2021-07-20T12:20:58Z</time>
      </trkpt>
      <trkpt lat="39.38923" lon="-0.63902">
        <ele>202.8745</ele>
        <time>2021-07-20T12:21:09Z</time>
      </trkpt>
      <trkpt lat="39.38876" lon="-0.63568">
        <ele>200.613</ele>
        <time>2021-07-20T12:21:20Z</time>
      </trkpt>
      <trkpt lat="39.38828" lon="-0.6323">
        <ele>195.3263</ele>
        <time>2021-07-20T12:21:31Z</time>
      </trkpt>
      <trkpt lat="39.38778" lon="-0.62895">
        <ele>190.3779</ele>
        <time>2021-07-20T12:21:42Z</time>
      </trkpt>
      <trkpt lat="39.38732" lon="-0.62566">
        <ele>193.5577</ele>
        <time>2021-07-20T12:21:53Z</time>
      </trkpt>
      <trkpt lat="39.38685" lon="-0.62232">
        <ele>203.3728</ele>
        <time>2021-07-20T12:22:04Z</time>
      </trkpt>
      <trkpt lat="39.38637" lon="-0.61905">
        <ele>208.2434</ele>
        <time>2021-07-20T12:22:15Z</time>
      </trkpt>
      <trkpt lat="39.38592" lon="-0.61584">
        <ele>210.4816</ele>
        <time>2021-07-20T12:22:26Z</time>
      </trkpt>
      <trkpt lat="39.38546" lon="-0.61264">
        <ele>211.5578</ele>
        <time>2021-07-20T12:22:37Z</time>
      </trkpt>
      <trkpt lat="39.38442" lon="-0.60985">
        <ele>208.8564</ele>
        <time>2021-07-20T12:22:48Z</time>
      </trkpt>
      <trkpt lat="39.38321" lon="-0.6071">
        <ele>207.1247</ele>
        <time>2021-07-20T12:22:59Z</time>
      </trkpt>
      <trkpt lat="39.382" lon="-0.60433">
        <ele>215.181</ele>
        <time>2021-07-20T12:23:10Z</time>
      </trkpt>
      <trkpt lat="39.38081" lon="-0.60162">
        <ele>223.7504</ele>
        <time>2021-07-20T12:23:21Z</time>
      </trkpt>
      <trkpt lat="39.37973" lon="-0.59906">
        <ele>226.3646</ele>
        <time>2021-07-20T12:23:32Z</time>
      </trkpt>
      <trkpt lat="39.3793" lon="-0.59615">
        <ele>231.0277</ele>
        <time>2021-07-20T12:23:43Z</time>
      </trkpt>
      <trkpt lat="39.37899" lon="-0.59313">
        <ele>224.2783</ele>
        <time>2021-07-20T12:23:54Z</time>
      </trkpt>
      <trkpt lat="39.37863" lon="-0.59014">
        <ele>223.1286</ele>
        <time>2021-07-20T12:24:05Z</time>
      </trkpt>
      <trkpt lat="39.3783" lon="-0.58713">
        <ele>229.8537</ele>
        <time>2021-07-20T12:24:16Z</time>
      </trkpt>
      <trkpt lat="39.37755" lon="-0.58423">
        <ele>229.2865</ele>
        <time>2021-07-20T12:24:27Z</time>
      </trkpt>
      <trkpt lat="39.37668" lon="-0.58157">
        <ele>227.2503</ele>
        <time>2021-07-20T12:24:38Z</time>
      </trkpt>
      <trkpt lat="39.37567" lon="-0.57853">
        <ele>219.6935</ele>
        <time>2021-07-20T12:24:49Z</time>
      </trkpt>
      <trkpt lat="39.3747" lon="-0.57555">
        <ele>214.4687</ele>
        <time>2021-07-20T12:25:00Z</time>
      </trkpt>
      <trkpt lat="39.37454" lon="-0.57233">
        <ele>212.2683</ele>
        <time>2021-07-20T12:25:11Z</time>
      </trkpt>
      <trkpt lat="39.3744" lon="-0.56914">
        <ele>197.912</ele>
        <time>2021-07-20T12:25:22Z</time>
      </trkpt>
      <trkpt lat="39.3738" lon="-0.56772">
        <ele>191.4103</ele>
        <time>2021-07-20T12:25:33Z</time>
      </trkpt>
      <trkpt lat="39.37353" lon="-0.56686">
        <ele>193.226</ele>
        <time>2021-07-20T12:25:44Z</time>
      </trkpt>
      <trkpt lat="39.37427" lon="-0.56571">
        <ele>194.2081</ele>
        <time>2021-07-20T12:25:55Z</time>
      </trkpt>
      <trkpt lat="39.37509" lon="-0.56409">
        <ele>192.3853</ele>
        <time>2021-07-20T12:26:06Z</time>
      </trkpt>
      <trkpt lat="39.37599" lon="-0.56236">
        <ele>190.5374</ele>
        <time>2021-07-20T12:26:17Z</time>
      </trkpt>
      <trkpt lat="39.37696" lon="-0.56044">
        <ele>194.7792</ele>
        <time>2021-07-20T12:26:28Z</time>
      </trkpt>
      <trkpt lat="39.37799" lon="-0.55841">
        <ele>196.2243</ele>
        <time>2021-07-20T12:26:39Z</time>
      </trkpt>
      <trkpt lat="39.37945" lon="-0.55618">
        <ele>193.6869</ele>
        <time>2021-07-20T12:26:50Z</time>
      </trkpt>
      <trkpt lat="39.38067" lon="-0.55455">
        <ele>199.0467</ele>
        <time>2021-07-20T12:27:01Z</time>
      </trkpt>
      <trkpt lat="39.38167" lon="-0.55322">
        <ele>208.2362</ele>
        <time>2021-07-20T12:27:12Z</time>
      </trkpt>
      <trkpt lat="39.38274" lon="-0.55184">
        <ele>213.3003</ele>
        <time>2021-07-20T12:27:23Z</time>
      </trkpt>
      <trkpt lat="39.38352" lon="-0.551">
        <ele>215.3522</ele>
        <time>2021-07-20T12:27:34Z</time>
      </trkpt>
      <trkpt lat="39.38491" lon="-0.54946">
        <ele>215.2741</ele>
        <time>2021-07-20T12:27:45Z</time>
      </trkpt>
      <trkpt lat="39.38649" lon="-0.54771">
        <ele>204.6745</ele>
        <time>2021-07-20T12:27:56Z</time>
      </trkpt>
      <trkpt lat="39.38822" lon="-0.54626">
        <ele>191.8119</ele>
        <time>2021-07-20T12:28:07Z</time>
      </trkpt>
      <trkpt lat="39.38935" lon="-0.5442">
        <ele>176.9802</ele>
        <time>2021-07-20T12:28:18Z</time>
      </trkpt>
      <trkpt lat="39.39017" lon="-0.5421">
        <ele>172.2479</ele>
        <time>2021-07-20T12:28:29Z</time>
      </trkpt>
      <trkpt lat="39.39058" lon="-0.54011">
        <ele>168.3502</ele>
        <time>2021-07-20T12:28:40Z</time>
      </trkpt>
      <trkpt lat="39.39171" lon="-0.53879">
        <ele>163.6785</ele>
        <time>2021-07-20T12:28:51Z</time>
      </trkpt>
      <trkpt lat="39.39311" lon="-0.53726">
        <ele>159.1602</ele>
        <time>2021-07-20T12:29:02Z</time>
      </trkpt>
      <trkpt lat="39.3943" lon="-0.53598">
        <ele>154.8715</ele>
        <time>2021-07-20T12:29:13Z</time>
      </trkpt>
      <trkpt lat="39.39569" lon="-0.53473">
        <ele>149.0593</ele>
        <time>2021-07-20T12:29:24Z</time>
      </trkpt>
      <trkpt lat="39.39713" lon="-0.53383">
        <ele>143.2602</ele>
        <time>2021-07-20T12:29:35Z</time>
      </trkpt>
      <trkpt lat="39.3985" lon="-0.53295">
        <ele>141.2025</ele>
        <time>2021-07-20T12:29:46Z</time>
      </trkpt>
      <trkpt lat="39.39983" lon="-0.53182">
        <ele>140.656</ele>
        <time>2021-07-20T12:29:57Z</time>
      </trkpt>
      <trkpt lat="39.40122" lon="-0.53037">
        <ele>138.3052</ele>
        <time>2021-07-20T12:30:08Z</time>
      </trkpt>
      <trkpt lat="39.40265" lon="-0.52883">
        <ele>134.5239</ele>
        <time>2021-07-20T12:30:19Z</time>
      </trkpt>
      <trkpt lat="39.40407" lon="-0.52734">
        <ele>132.7667</ele>
        <time>2021-07-20T12:30:30Z</time>
      </trkpt>
      <trkpt lat="39.40564" lon="-0.52608">
        <ele>133.5206</ele>
        <time>2021-07-20T12:30:41Z</time>
      </trkpt>
      <trkpt lat="39.40717" lon="-0.52503">
        <ele>125.0518</ele>
        <time>2021-07-20T12:30:52Z</time>
      </trkpt>
      <trkpt lat="39.40914" lon="-0.52378">
        <ele>118.7891</ele>
        <time>2021-07-20T12:31:03Z</time>
      </trkpt>
      <trkpt lat="39.41078" lon="-0.52273">
        <ele>112.157</ele>
        <time>2021-07-20T12:31:14Z</time>
      </trkpt>
      <trkpt lat="39.41163" lon="-0.52101">
        <ele>108.8068</ele>
        <time>2021-07-20T12:31:25Z</time>
      </trkpt>
      <trkpt lat="39.41099" lon="-0.51903">
        <ele>106.7438</ele>
        <time>2021-07-20T12:31:36Z</time>
      </trkpt>
      <trkpt lat="39.41051" lon="-0.51719">
        <ele>100.6577</ele>
        <time>2021-07-20T12:31:47Z</time>
      </trkpt>
      <trkpt lat="39.41047" lon="-0.51524">
        <ele>95.92412</ele>
        <time>2021-07-20T12:31:58Z</time>
      </trkpt>
      <trkpt lat="39.41152" lon="-0.51388">
        <ele>90.64609</ele>
        <time>2021-07-20T12:32:09Z</time>
      </trkpt>
      <trkpt lat="39.4129" lon="-0.51266">
        <ele>84.10346</ele>
        <time>2021-07-20T12:32:20Z</time>
      </trkpt>
      <trkpt lat="39.41413" lon="-0.51165">
        <ele>79.66537</ele>
        <time>2021-07-20T12:32:31Z</time>
      </trkpt>
      <trkpt lat="39.41478" lon="-0.51094">
        <ele>78.75427</ele>
        <time>2021-07-20T12:32:42Z</time>
      </trkpt>
      <trkpt lat="39.41527" lon="-0.5103">
        <ele>80.47023</ele>
        <time>2021-07-20T12:32:53Z</time>
      </trkpt>
      <trkpt lat="39.41664" lon="-0.50934">
        <ele>79.16126</ele>
        <time>2021-07-20T12:33:04Z</time>
      </trkpt>
      <trkpt lat="39.41811" lon="-0.50811">
        <ele>76.46625</ele>
        <time>2021-07-20T12:33:15Z</time>
      </trkpt>
      <trkpt lat="39.41883" lon="-0.50745">
        <ele>72.90561</ele>
        <time>2021-07-20T12:33:26Z</time>
      </trkpt>
      <trkpt lat="39.42012" lon="-0.50653">
        <ele>73.2405</ele>
        <time>2021-07-20T12:33:37Z</time>
      </trkpt>
      <trkpt lat="39.42131" lon="-0.50555">
        <ele>72.73949</ele>
        <time>2021-07-20T12:33:48Z</time>
      </trkpt>
      <trkpt lat="39.42186" lon="-0.50471">
        <ele>74.03733</ele>
        <time>2021-07-20T12:33:59Z</time>
      </trkpt>
      <trkpt lat="39.42297" lon="-0.50425">
        <ele>73.93624</ele>
        <time>2021-07-20T12:34:10Z</time>
      </trkpt>
      <trkpt lat="39.42461" lon="-0.50292">
        <ele>76.91088</ele>
        <time>2021-07-20T12:34:21Z</time>
      </trkpt>
      <trkpt lat="39.42637" lon="-0.50151">
        <ele>74.50619</ele>
        <time>2021-07-20T12:34:32Z</time>
      </trkpt>
      <trkpt lat="39.42797" lon="-0.5002">
        <ele>71.50484</ele>
        <time>2021-07-20T12:34:43Z</time>
      </trkpt>
      <trkpt lat="39.42868" lon="-0.49809">
        <ele>64.32591</ele>
        <time>2021-07-20T12:34:54Z</time>
      </trkpt>
      <trkpt lat="39.42929" lon="-0.4957">
        <ele>65.51328</ele>
        <time>2021-07-20T12:35:05Z</time>
      </trkpt>
      <trkpt lat="39.4298" lon="-0.49373">
        <ele>65.62026</ele>
        <time>2021-07-20T12:35:16Z</time>
      </trkpt>
      <trkpt lat="39.43011" lon="-0.49256">
        <ele>64.06971</ele>
        <time>2021-07-20T12:35:27Z</time>
      </trkpt>
      <trkpt lat="39.43024" lon="-0.49201">
        <ele>65.59355</ele>
        <time>2021-07-20T12:35:38Z</time>
      </trkpt>
      <trkpt lat="39.4303" lon="-0.49165">
        <ele>67.3782</ele>
        <time>2021-07-20T12:35:49Z</time>
      </trkpt>
      <trkpt lat="39.42981" lon="-0.49114">
        <ele>67.81679</ele>
        <time>2021-07-20T12:36:00Z</time>
      </trkpt>
      <trkpt lat="39.42911" lon="-0.49098">
        <ele>71.5545</ele>
        <time>2021-07-20T12:36:11Z</time>
      </trkpt>
      <trkpt lat="39.42854" lon="-0.49066">
        <ele>73.94679</ele>
        <time>2021-07-20T12:36:22Z</time>
      </trkpt>
      <trkpt lat="39.42847" lon="-0.48989">
        <ele>78.00324</ele>
        <time>2021-07-20T12:36:33Z</time>
      </trkpt>
      <trkpt lat="39.42897" lon="-0.48883">
        <ele>81.80785</ele>
        <time>2021-07-20T12:36:44Z</time>
      </trkpt>
      <trkpt lat="39.42885" lon="-0.48831">
        <ele>82.54935</ele>
        <time>2021-07-20T12:36:55Z</time>
      </trkpt>
      <trkpt lat="39.42828" lon="-0.48765">
        <ele>87.81949</ele>
        <time>2021-07-20T12:37:06Z</time>
      </trkpt>
      <trkpt lat="39.42803" lon="-0.487">
        <ele>92.79288</ele>
        <time>2021-07-20T12:37:17Z</time>
      </trkpt>
      <trkpt lat="39.42789" lon="-0.48681">
        <ele>90.66556</ele>
        <time>2021-07-20T12:37:28Z</time>
      </trkpt>
      <trkpt lat="39.42731" lon="-0.48621">
        <ele>86.81868</ele>
        <time>2021-07-20T12:37:39Z</time>
      </trkpt>
      <trkpt lat="39.42764" lon="-0.48562">
        <ele>86.6049</ele>
        <time>2021-07-20T12:37:50Z</time>
      </trkpt>
      <trkpt lat="39.42849" lon="-0.48464">
        <ele>80.97224</ele>
        <time>2021-07-20T12:38:01Z</time>
      </trkpt>
      <trkpt lat="39.42955" lon="-0.48389">
        <ele>80.73035</ele>
        <time>2021-07-20T12:38:12Z</time>
      </trkpt>
      <trkpt lat="39.43066" lon="-0.48336">
        <ele>72.77398</ele>
        <time>2021-07-20T12:38:23Z</time>
      </trkpt>
      <trkpt lat="39.43171" lon="-0.4834">
        <ele>70.74356</ele>
        <time>2021-07-20T12:38:34Z</time>
      </trkpt>
      <trkpt lat="39.43235" lon="-0.48315">
        <ele>74.84409</ele>
        <time>2021-07-20T12:38:45Z</time>
      </trkpt>
      <trkpt lat="39.43268" lon="-0.48297">
        <ele>68.2401</ele>
        <time>2021-07-20T12:38:56Z</time>
      </trkpt>
      <trkpt lat="39.43193" lon="-0.48255">
        <ele>69.77006</ele>
        <time>2021-07-20T12:39:07Z</time>
      </trkpt>
      <trkpt lat="39.43083" lon="-0.48142">
        <ele>71.3522</ele>
        <time>2021-07-20T12:39:18Z</time>
      </trkpt>
      <trkpt lat="39.42987" lon="-0.48025">
        <ele>70.51166</ele>
        <time>2021-07-20T12:39:29Z</time>
      </trkpt>
      <trkpt lat="39.4292" lon="-0.47947">
        <ele>73.36004</ele>
        <time>2021-07-20T12:39:40Z</time>
      </trkpt>
      <trkpt lat="39.42867" lon="-0.4789">
        <ele>73.08755</ele>
        <time>2021-07-20T12:39:51Z</time>
      </trkpt>
      <trkpt lat="39.42811" lon="-0.4783">
        <ele>72.71744</ele>
        <time>2021-07-20T12:40:02Z</time>
      </trkpt>
      <trkpt lat="39.42716" lon="-0.47732">
        <ele>70.65162</ele>
        <time>2021-07-20T12:40:13Z</time>
      </trkpt>
      <trkpt lat="39.42758" lon="-0.47659">
        <ele>66.48443</ele>
        <time>2021-07-20T12:40:24Z</time>
      </trkpt>
      <trkpt lat="39.42848" lon="-0.47518">
        <ele>63.8794</ele>
        <time>2021-07-20T12:40:35Z</time>
      </trkpt>
      <trkpt lat="39.42921" lon="-0.47407">
        <ele>61.0597</ele>
        <time>2021-07-20T12:40:46Z</time>
      </trkpt>
      <trkpt lat="39.42998" lon="-0.4729">
        <ele>60.50261</ele>
        <time>2021-07-20T12:40:57Z</time>
      </trkpt>
      <trkpt lat="39.43035" lon="-0.4723">
        <ele>64.43484</ele>
        <time>2021-07-20T12:41:08Z</time>
      </trkpt>
      <trkpt lat="39.43026" lon="-0.4714">
        <ele>63.3176</ele>
        <time>2021-07-20T12:41:19Z</time>
      </trkpt>
      <trkpt lat="39.43009" lon="-0.47102">
        <ele>64.92537</ele>
        <time>2021-07-20T12:41:30Z</time>
      </trkpt>
      <trkpt lat="39.4298" lon="-0.47068">
        <ele>64.69218</ele>
        <time>2021-07-20T12:41:41Z</time>
      </trkpt>
      <trkpt lat="39.42894" lon="-0.46973">
        <ele>63.71256</ele>
        <time>2021-07-20T12:41:52Z</time>
      </trkpt>
      <trkpt lat="39.42803" lon="-0.46873">
        <ele>56.01354</ele>
        <time>2021-07-20T12:42:03Z</time>
      </trkpt>
      <trkpt lat="39.42763" lon="-0.46854">
        <ele>52.84391</ele>
        <time>2021-07-20T12:42:14Z</time>
      </trkpt>
      <trkpt lat="39.42694" lon="-0.4678">
        <ele>51.54558</ele>
        <time>2021-07-20T12:42:25Z</time>
      </trkpt>
      <trkpt lat="39.42578" lon="-0.46615">
        <ele>49.68792</ele>
        <time>2021-07-20T12:42:36Z</time>
      </trkpt>
      <trkpt lat="39.42546" lon="-0.46353">
        <ele>47.52298</ele>
        <time>2021-07-20T12:42:47Z</time>
      </trkpt>
      <trkpt lat="39.42546" lon="-0.4608">
        <ele>49.92764</ele>
        <time>2021-07-20T12:42:58Z</time>
      </trkpt>
      <trkpt lat="39.42545" lon="-0.45787">
        <ele>44.51329</ele>
        <time>2021-07-20T12:43:09Z</time>
      </trkpt>
      <trkpt lat="39.42546" lon="-0.45475">
        <ele>40.33182</ele>
        <time>2021-07-20T12:43:20Z</time>
      </trkpt>
      <trkpt lat="39.42555" lon="-0.4518">
        <ele>38.78985</ele>
        <time>2021-07-20T12:43:31Z</time>
      </trkpt>
      <trkpt lat="39.42653" lon="-0.44924">
        <ele>38.73742</ele>
        <time>2021-07-20T12:43:42Z</time>
      </trkpt>
      <trkpt lat="39.42845" lon="-0.44762">
        <ele>37.62905</ele>
        <time>2021-07-20T12:43:54Z</time>
      </trkpt>
      <trkpt lat="39.43073" lon="-0.4468">
        <ele>37.5204</ele>
        <time>2021-07-20T12:44:05Z</time>
      </trkpt>
      <trkpt lat="39.43314" lon="-0.44596">
        <ele>32.26408</ele>
        <time>2021-07-20T12:44:16Z</time>
      </trkpt>
      <trkpt lat="39.43569" lon="-0.44506">
        <ele>29.86779</ele>
        <time>2021-07-20T12:44:27Z</time>
      </trkpt>
      <trkpt lat="39.43816" lon="-0.44324">
        <ele>34.71109</ele>
        <time>2021-07-20T12:44:38Z</time>
      </trkpt>
      <trkpt lat="39.43945" lon="-0.44045">
        <ele>33.72515</ele>
        <time>2021-07-20T12:44:49Z</time>
      </trkpt>
      <trkpt lat="39.43961" lon="-0.43724">
        <ele>33.60656</ele>
        <time>2021-07-20T12:45:00Z</time>
      </trkpt>
      <trkpt lat="39.43941" lon="-0.43399">
        <ele>29.65056</ele>
        <time>2021-07-20T12:45:11Z</time>
      </trkpt>
      <trkpt lat="39.43951" lon="-0.43107">
        <ele>25.7048</ele>
        <time>2021-07-20T12:45:22Z</time>
      </trkpt>
      <trkpt lat="39.4404" lon="-0.42809">
        <ele>33.32921</ele>
        <time>2021-07-20T12:45:33Z</time>
      </trkpt>
      <trkpt lat="39.44166" lon="-0.42568">
        <ele>33.20264</ele>
        <time>2021-07-20T12:45:44Z</time>
      </trkpt>
      <trkpt lat="39.44314" lon="-0.42333">
        <ele>31.00289</ele>
        <time>2021-07-20T12:45:55Z</time>
      </trkpt>
      <trkpt lat="39.44468" lon="-0.42095">
        <ele>26.00356</ele>
        <time>2021-07-20T12:46:06Z</time>
      </trkpt>
      <trkpt lat="39.44623" lon="-0.41855">
        <ele>25.19025</ele>
        <time>2021-07-20T12:46:17Z</time>
      </trkpt>
      <trkpt lat="39.44782" lon="-0.4161">
        <ele>24.67052</ele>
        <time>2021-07-20T12:46:28Z</time>
      </trkpt>
      <trkpt lat="39.44943" lon="-0.4136">
        <ele>22.83185</ele>
        <time>2021-07-20T12:46:39Z</time>
      </trkpt>
      <trkpt lat="39.45073" lon="-0.41162">
        <ele>23.54996</ele>
        <time>2021-07-20T12:46:50Z</time>
      </trkpt>
      <trkpt lat="39.45225" lon="-0.40959">
        <ele>29.1715</ele>
        <time>2021-07-20T12:47:01Z</time>
      </trkpt>
      <trkpt lat="39.45349" lon="-0.40792">
        <ele>21.90787</ele>
        <time>2021-07-20T12:47:12Z</time>
      </trkpt>
      <trkpt lat="39.4546" lon="-0.40638">
        <ele>18.77588</ele>
        <time>2021-07-20T12:47:23Z</time>
      </trkpt>
      <trkpt lat="39.45578" lon="-0.40479">
        <ele>17.97412</ele>
        <time>2021-07-20T12:47:34Z</time>
      </trkpt>
      <trkpt lat="39.4567" lon="-0.40383">
        <ele>23.19465</ele>
        <time>2021-07-20T12:47:45Z</time>
      </trkpt>
      <trkpt lat="39.4567" lon="-0.40378">
        <ele>25.39784</ele>
        <time>2021-07-20T12:48:24Z</time>
      </trkpt>
      <trkpt lat="39.45674" lon="-0.40375">
        <ele>29.41952</ele>
        <time>2021-07-20T12:48:37Z</time>
      </trkpt>
      <trkpt lat="39.4575" lon="-0.40291">
        <ele>27.76997</ele>
        <time>2021-07-20T12:48:48Z</time>
      </trkpt>
      <trkpt lat="39.45797" lon="-0.40196">
        <ele>25.37518</ele>
        <time>2021-07-20T12:48:59Z</time>
      </trkpt>
      <trkpt lat="39.45912" lon="-0.40123">
        <ele>25.50214</ele>
        <time>2021-07-20T12:49:10Z</time>
      </trkpt>
      <trkpt lat="39.45996" lon="-0.4003">
        <ele>29.05327</ele>
        <time>2021-07-20T12:49:21Z</time>
      </trkpt>
      <trkpt lat="39.46104" lon="-0.39917">
        <ele>31.65439</ele>
        <time>2021-07-20T12:49:32Z</time>
      </trkpt>
      <trkpt lat="39.46199" lon="-0.3981">
        <ele>26.74386</ele>
        <time>2021-07-20T12:49:43Z</time>
      </trkpt>
      <trkpt lat="39.46252" lon="-0.39754">
        <ele>27.74996</ele>
        <time>2021-07-20T12:49:54Z</time>
      </trkpt>
      <trkpt lat="39.46256" lon="-0.39751">
        <ele>29.89361</ele>
        <time>2021-07-20T12:50:05Z</time>
      </trkpt>
      <trkpt lat="39.46261" lon="-0.39748">
        <ele>38.7024</ele>
        <time>2021-07-20T12:50:28Z</time>
      </trkpt>
      <trkpt lat="39.46322" lon="-0.3968">
        <ele>38.30052</ele>
        <time>2021-07-20T12:50:39Z</time>
      </trkpt>
      <trkpt lat="39.46375" lon="-0.39623">
        <ele>35.7553</ele>
        <time>2021-07-20T12:50:50Z</time>
      </trkpt>
      <trkpt lat="39.46392" lon="-0.3957">
        <ele>44.49487</ele>
        <time>2021-07-20T12:51:01Z</time>
      </trkpt>
      <trkpt lat="39.46398" lon="-0.39465">
        <ele>40.97275</ele>
        <time>2021-07-20T12:51:12Z</time>
      </trkpt>
      <trkpt lat="39.46403" lon="-0.3932">
        <ele>40.18918</ele>
        <time>2021-07-20T12:51:23Z</time>
      </trkpt>
      <trkpt lat="39.46413" lon="-0.39147">
        <ele>30.65121</ele>
        <time>2021-07-20T12:51:34Z</time>
      </trkpt>
      <trkpt lat="39.46416" lon="-0.39001">
        <ele>25.8186</ele>
        <time>2021-07-20T12:51:45Z</time>
      </trkpt>
      <trkpt lat="39.4642" lon="-0.38905">
        <ele>25.08901</ele>
        <time>2021-07-20T12:51:56Z</time>
      </trkpt>
      <trkpt lat="39.46422" lon="-0.389">
        <ele>30.81758</ele>
        <time>2021-07-20T12:52:07Z</time>
      </trkpt>
      <trkpt lat="39.46421" lon="-0.38896">
        <ele>40.12434</ele>
        <time>2021-07-20T12:52:25Z</time>
      </trkpt>
      <trkpt lat="39.46421" lon="-0.38888">
        <ele>39.26013</ele>
        <time>2021-07-20T12:52:47Z</time>
      </trkpt>
      <trkpt lat="39.4642" lon="-0.38852">
        <ele>32.63612</ele>
        <time>2021-07-20T12:52:58Z</time>
      </trkpt>
      <trkpt lat="39.46367" lon="-0.38776">
        <ele>30.92535</ele>
        <time>2021-07-20T12:53:09Z</time>
      </trkpt>
      <trkpt lat="39.46285" lon="-0.38717">
        <ele>33.17221</ele>
        <time>2021-07-20T12:53:20Z</time>
      </trkpt>
      <trkpt lat="39.46275" lon="-0.3871">
        <ele>46.00901</ele>
        <time>2021-07-20T12:53:31Z</time>
      </trkpt>
      <trkpt lat="39.46236" lon="-0.38682">
        <ele>54.53149</ele>
        <time>2021-07-20T12:53:42Z</time>
      </trkpt>
      <trkpt lat="39.46115" lon="-0.38597">
        <ele>50.38711</ele>
        <time>2021-07-20T12:53:53Z</time>
      </trkpt>
      <trkpt lat="39.45989" lon="-0.38508">
        <ele>50.65121</ele>
        <time>2021-07-20T12:54:04Z</time>
      </trkpt>
      <trkpt lat="39.45865" lon="-0.38422">
        <ele>51.72461</ele>
        <time>2021-07-20T12:54:15Z</time>
      </trkpt>
      <trkpt lat="39.45731" lon="-0.38321">
        <ele>34.58268</ele>
        <time>2021-07-20T12:54:26Z</time>
      </trkpt>
      <trkpt lat="39.4562" lon="-0.38239">
        <ele>28.52987</ele>
        <time>2021-07-20T12:54:37Z</time>
      </trkpt>
      <trkpt lat="39.45532" lon="-0.38094">
        <ele>26.7436</ele>
        <time>2021-07-20T12:54:48Z</time>
      </trkpt>
      <trkpt lat="39.45542" lon="-0.37926">
        <ele>18.41028</ele>
        <time>2021-07-20T12:54:59Z</time>
      </trkpt>
      <trkpt lat="39.45605" lon="-0.37771">
        <ele>13.87645</ele>
        <time>2021-07-20T12:55:10Z</time>
      </trkpt>
      <trkpt lat="39.4563" lon="-0.37709">
        <ele>15.98415</ele>
        <time>2021-07-20T12:55:21Z</time>
      </trkpt>
      <trkpt lat="39.45661" lon="-0.37629">
        <ele>15.40778</ele>
        <time>2021-07-20T12:55:32Z</time>
      </trkpt>
      <trkpt lat="39.45657" lon="-0.37585">
        <ele>13.89622</ele>
        <time>2021-07-20T12:55:43Z</time>
      </trkpt>
      <trkpt lat="39.45665" lon="-0.37481">
        <ele>15.81404</ele>
        <time>2021-07-20T12:55:54Z</time>
      </trkpt>
      <trkpt lat="39.4565" lon="-0.37413">
        <ele>21.48325</ele>
        <time>2021-07-20T12:56:05Z</time>
      </trkpt>
      <trkpt lat="39.4563" lon="-0.3732">
        <ele>31.0913</ele>
        <time>2021-07-20T12:56:16Z</time>
      </trkpt>
      <trkpt lat="39.45603" lon="-0.37191">
        <ele>35.716</ele>
        <time>2021-07-20T12:56:27Z</time>
      </trkpt>
      <trkpt lat="39.45573" lon="-0.37063">
        <ele>21.97097</ele>
        <time>2021-07-20T12:56:38Z</time>
      </trkpt>
      <trkpt lat="39.45554" lon="-0.36982">
        <ele>9.953759</ele>
        <time>2021-07-20T12:56:49Z</time>
      </trkpt>
      <trkpt lat="39.4555" lon="-0.3696">
        <ele>7.639924</ele>
        <time>2021-07-20T12:57:00Z</time>
      </trkpt>
      <trkpt lat="39.45545" lon="-0.36931">
        <ele>6.550328</ele>
        <time>2021-07-20T12:57:11Z</time>
      </trkpt>
      <trkpt lat="39.45543" lon="-0.36919">
        <ele>10.74736</ele>
        <time>2021-07-20T12:57:22Z</time>
      </trkpt>
      <trkpt lat="39.45543" lon="-0.36921">
        <ele>17.77748</ele>
        <time>2021-07-20T12:58:22Z</time>
      </trkpt>
      <trkpt lat="39.45544" lon="-0.36927">
        <ele>24.35671</ele>
        <time>2021-07-20T12:58:50Z</time>
      </trkpt>
      <trkpt lat="39.45544" lon="-0.36925">
        <ele>20.16957</ele>
        <time>2021-07-20T12:59:50Z</time>
      </trkpt>
      <trkpt lat="39.45543" lon="-0.3692">
        <ele>17.30502</ele>
        <time>2021-07-20T13:00:01Z</time>
      </trkpt>
      <trkpt lat="39.45506" lon="-0.36825">
        <ele>40.25454</ele>
        <time>2021-07-20T13:45:07Z</time>
      </trkpt>
      <trkpt lat="39.45514" lon="-0.36829">
        <ele>36.98213</ele>
        <time>2021-07-20T13:45:18Z</time>
      </trkpt>
      <trkpt lat="39.45521" lon="-0.36824">
        <ele>42.10225</ele>
        <time>2021-07-20T13:45:29Z</time>
      </trkpt>
      <trkpt lat="39.45527" lon="-0.36823">
        <ele>45.72606</ele>
        <time>2021-07-20T13:45:40Z</time>
      </trkpt>
      <trkpt lat="39.45511" lon="-0.36812">
        <ele>10.54591</ele>
        <time>2021-07-20T13:45:51Z</time>
      </trkpt>
      <trkpt lat="39.4551" lon="-0.36816">
        <ele>11.32983</ele>
        <time>2021-07-20T13:46:05Z</time>
      </trkpt>
      <trkpt lat="39.45507" lon="-0.3682">
        <ele>12.17882</ele>
        <time>2021-07-20T13:46:19Z</time>
      </trkpt>
      <trkpt lat="39.45505" lon="-0.36815">
        <ele>11.01942</ele>
        <time>2021-07-20T13:46:37Z</time>
      </trkpt>
      <trkpt lat="39.45508" lon="-0.36818">
        <ele>10.8245</ele>
        <time>2021-07-20T13:47:06Z</time>
      </trkpt>
      <trkpt lat="39.45508" lon="-0.36819">
        <ele>10.37574</ele>
        <time>2021-07-20T13:48:05Z</time>
      </trkpt>
      <trkpt lat="39.45512" lon="-0.36819">
        <ele>11.00132</ele>
        <time>2021-07-20T13:48:29Z</time>
      </trkpt>
      <trkpt lat="39.45518" lon="-0.36819">
        <ele>11.73431</ele>
        <time>2021-07-20T13:48:40Z</time>
      </trkpt>
      <trkpt lat="39.45519" lon="-0.36824">
        <ele>11.10224</ele>
        <time>2021-07-20T13:49:04Z</time>
      </trkpt>
      <trkpt lat="39.45515" lon="-0.3682">
        <ele>10.9334</ele>
        <time>2021-07-20T13:49:15Z</time>
      </trkpt>
      <trkpt lat="39.45512" lon="-0.36822">
        <ele>10.83433</ele>
        <time>2021-07-20T13:49:31Z</time>
      </trkpt>
      <trkpt lat="39.45515" lon="-0.36819">
        <ele>10.41924</ele>
        <time>2021-07-20T13:49:46Z</time>
      </trkpt>
      <trkpt lat="39.45518" lon="-0.36817">
        <ele>8.990087</ele>
        <time>2021-07-20T13:50:09Z</time>
      </trkpt>
      <trkpt lat="39.45511" lon="-0.36821">
        <ele>11.32256</ele>
        <time>2021-07-20T13:50:20Z</time>
      </trkpt>
      <trkpt lat="39.45508" lon="-0.36818">
        <ele>10.9541</ele>
        <time>2021-07-20T13:50:40Z</time>
      </trkpt>
      <trkpt lat="39.45512" lon="-0.36819">
        <ele>10.33854</ele>
        <time>2021-07-20T13:51:15Z</time>
      </trkpt>
      <trkpt lat="39.45515" lon="-0.36824">
        <ele>8.750923</ele>
        <time>2021-07-20T13:51:26Z</time>
      </trkpt>
      <trkpt lat="39.45524" lon="-0.36825">
        <ele>8.688293</ele>
        <time>2021-07-20T13:51:37Z</time>
      </trkpt>
      <trkpt lat="39.45522" lon="-0.3683">
        <ele>10.06401</ele>
        <time>2021-07-20T13:51:48Z</time>
      </trkpt>
      <trkpt lat="39.45513" lon="-0.36826">
        <ele>9.892811</ele>
        <time>2021-07-20T13:51:59Z</time>
      </trkpt>
      <trkpt lat="39.45508" lon="-0.36823">
        <ele>9.984412</ele>
        <time>2021-07-20T13:52:10Z</time>
      </trkpt>
      <trkpt lat="39.4552" lon="-0.36819">
        <ele>9.871609</ele>
        <time>2021-07-20T13:52:21Z</time>
      </trkpt>
      <trkpt lat="39.45528" lon="-0.3683">
        <ele>9.304493</ele>
        <time>2021-07-20T13:52:32Z</time>
      </trkpt>
      <trkpt lat="39.45511" lon="-0.36829">
        <ele>10.39775</ele>
        <time>2021-07-20T13:52:43Z</time>
      </trkpt>
      <trkpt lat="39.4551" lon="-0.36824">
        <ele>10.4512</ele>
        <time>2021-07-20T13:52:54Z</time>
      </trkpt>
      <trkpt lat="39.45517" lon="-0.36822">
        <ele>9.617114</ele>
        <time>2021-07-20T13:53:05Z</time>
      </trkpt>
      <trkpt lat="39.45527" lon="-0.3683">
        <ele>10.31267</ele>
        <time>2021-07-20T13:53:16Z</time>
      </trkpt>
      <trkpt lat="39.45537" lon="-0.36832">
        <ele>10.24376</ele>
        <time>2021-07-20T13:53:27Z</time>
      </trkpt>
      <trkpt lat="39.45546" lon="-0.36838">
        <ele>10.66257</ele>
        <time>2021-07-20T13:53:38Z</time>
      </trkpt>
      <trkpt lat="39.4554" lon="-0.36846">
        <ele>11.38758</ele>
        <time>2021-07-20T13:53:49Z</time>
      </trkpt>
      <trkpt lat="39.45542" lon="-0.36863">
        <ele>12.97516</ele>
        <time>2021-07-20T13:54:00Z</time>
      </trkpt>
      <trkpt lat="39.45537" lon="-0.36872">
        <ele>9.773901</ele>
        <time>2021-07-20T13:54:11Z</time>
      </trkpt>
      <trkpt lat="39.45542" lon="-0.3688">
        <ele>10.30247</ele>
        <time>2021-07-20T13:54:22Z</time>
      </trkpt>
      <trkpt lat="39.4554" lon="-0.36896">
        <ele>11.84474</ele>
        <time>2021-07-20T13:54:33Z</time>
      </trkpt>
      <trkpt lat="39.45537" lon="-0.36914">
        <ele>6.933236</ele>
        <time>2021-07-20T13:54:44Z</time>
      </trkpt>
      <trkpt lat="39.45538" lon="-0.36926">
        <ele>8.706222</ele>
        <time>2021-07-20T13:54:55Z</time>
      </trkpt>
      <trkpt lat="39.45542" lon="-0.36941">
        <ele>10.21785</ele>
        <time>2021-07-20T13:55:06Z</time>
      </trkpt>
      <trkpt lat="39.45544" lon="-0.36957">
        <ele>9.833863</ele>
        <time>2021-07-20T13:55:17Z</time>
      </trkpt>
      <trkpt lat="39.45546" lon="-0.36973">
        <ele>10.51299</ele>
        <time>2021-07-20T13:55:28Z</time>
      </trkpt>
      <trkpt lat="39.45548" lon="-0.36988">
        <ele>11.47002</ele>
        <time>2021-07-20T13:55:39Z</time>
      </trkpt>
      <trkpt lat="39.45543" lon="-0.37">
        <ele>8.827034</ele>
        <time>2021-07-20T13:55:50Z</time>
      </trkpt>
      <trkpt lat="39.45539" lon="-0.37012">
        <ele>10.14075</ele>
        <time>2021-07-20T13:56:01Z</time>
      </trkpt>
      <trkpt lat="39.45532" lon="-0.37029">
        <ele>10.62595</ele>
        <time>2021-07-20T13:56:12Z</time>
      </trkpt>
      <trkpt lat="39.45527" lon="-0.37045">
        <ele>11.53296</ele>
        <time>2021-07-20T13:56:23Z</time>
      </trkpt>
      <trkpt lat="39.45522" lon="-0.37056">
        <ele>10.41271</ele>
        <time>2021-07-20T13:56:34Z</time>
      </trkpt>
      <trkpt lat="39.45518" lon="-0.37067">
        <ele>11.5374</ele>
        <time>2021-07-20T13:56:45Z</time>
      </trkpt>
      <trkpt lat="39.45514" lon="-0.37083">
        <ele>9.867376</ele>
        <time>2021-07-20T13:56:56Z</time>
      </trkpt>
      <trkpt lat="39.45507" lon="-0.37097">
        <ele>10.49015</ele>
        <time>2021-07-20T13:57:07Z</time>
      </trkpt>
      <trkpt lat="39.455" lon="-0.37118">
        <ele>13.36282</ele>
        <time>2021-07-20T13:57:18Z</time>
      </trkpt>
      <trkpt lat="39.45493" lon="-0.37135">
        <ele>11.81383</ele>
        <time>2021-07-20T13:57:29Z</time>
      </trkpt>
      <trkpt lat="39.45481" lon="-0.37144">
        <ele>10.16861</ele>
        <time>2021-07-20T13:57:40Z</time>
      </trkpt>
      <trkpt lat="39.45476" lon="-0.37147">
        <ele>10.41486</ele>
        <time>2021-07-20T13:57:51Z</time>
      </trkpt>
      <trkpt lat="39.45464" lon="-0.37154">
        <ele>11.6974</ele>
        <time>2021-07-20T13:58:02Z</time>
      </trkpt>
      <trkpt lat="39.45457" lon="-0.3715">
        <ele>11.6627</ele>
        <time>2021-07-20T13:58:13Z</time>
      </trkpt>
      <trkpt lat="39.45451" lon="-0.37142">
        <ele>11.53653</ele>
        <time>2021-07-20T13:58:24Z</time>
      </trkpt>
      <trkpt lat="39.45444" lon="-0.37152">
        <ele>42.21393</ele>
        <time>2021-07-20T13:58:57Z</time>
      </trkpt>
      <trkpt lat="39.45447" lon="-0.37154">
        <ele>42.21393</ele>
        <time>2021-07-20T13:59:11Z</time>
      </trkpt>
      <trkpt lat="39.45444" lon="-0.37149">
        <ele>42.21393</ele>
        <time>2021-07-20T13:59:26Z</time>
      </trkpt>
      <trkpt lat="39.4545" lon="-0.37153">
        <ele>42.21393</ele>
        <time>2021-07-20T13:59:49Z</time>
      </trkpt>
      <trkpt lat="39.45447" lon="-0.37149">
        <ele>18.89237</ele>
        <time>2021-07-20T14:00:00Z</time>
      </trkpt>
      <trkpt lat="39.45442" lon="-0.37128">
        <ele>42.21393</ele>
        <time>2021-07-20T14:00:41Z</time>
      </trkpt>
      <trkpt lat="39.45445" lon="-0.37147">
        <ele>42.21393</ele>
        <time>2021-07-20T14:00:55Z</time>
      </trkpt>
      <trkpt lat="39.45445" lon="-0.37133">
        <ele>42.21393</ele>
        <time>2021-07-20T14:01:12Z</time>
      </trkpt>
      <trkpt lat="39.4544" lon="-0.37142">
        <ele>42.21393</ele>
        <time>2021-07-20T14:01:49Z</time>
      </trkpt>
      <trkpt lat="39.45437" lon="-0.37138">
        <ele>42.21393</ele>
        <time>2021-07-20T14:02:04Z</time>
      </trkpt>
      <trkpt lat="39.45442" lon="-0.37132">
        <ele>42.21393</ele>
        <time>2021-07-20T14:02:20Z</time>
      </trkpt>
      <trkpt lat="39.45444" lon="-0.3712">
        <ele>42.21393</ele>
        <time>2021-07-20T14:02:36Z</time>
      </trkpt>
      <trkpt lat="39.45442" lon="-0.37126">
        <ele>42.21393</ele>
        <time>2021-07-20T14:02:50Z</time>
      </trkpt>
      <trkpt lat="39.45445" lon="-0.37116">
        <ele>42.21393</ele>
        <time>2021-07-20T14:03:05Z</time>
      </trkpt>
      <trkpt lat="39.45444" lon="-0.37123">
        <ele>42.21393</ele>
        <time>2021-07-20T14:03:28Z</time>
      </trkpt>
      <trkpt lat="39.45414" lon="-0.37091">
        <ele>42.21393</ele>
        <time>2021-07-20T14:03:43Z</time>
      </trkpt>
      <trkpt lat="39.45418" lon="-0.37074">
        <ele>42.21393</ele>
        <time>2021-07-20T14:03:58Z</time>
      </trkpt>
      <trkpt lat="39.45434" lon="-0.37095">
        <ele>42.21393</ele>
        <time>2021-07-20T14:04:15Z</time>
      </trkpt>
      <trkpt lat="39.45425" lon="-0.37071">
        <ele>42.21393</ele>
        <time>2021-07-20T14:04:29Z</time>
      </trkpt>
      <trkpt lat="39.4542" lon="-0.37072">
        <ele>42.21393</ele>
        <time>2021-07-20T14:04:45Z</time>
      </trkpt>
      <trkpt lat="39.45421" lon="-0.37067">
        <ele>42.21393</ele>
        <time>2021-07-20T14:05:00Z</time>
      </trkpt>
      <trkpt lat="39.45423" lon="-0.37071">
        <ele>42.21393</ele>
        <time>2021-07-20T14:05:14Z</time>
      </trkpt>
      <trkpt lat="39.45423" lon="-0.37078">
        <ele>42.21393</ele>
        <time>2021-07-20T14:05:27Z</time>
      </trkpt>
      <trkpt lat="39.45442" lon="-0.37092">
        <ele>42.21393</ele>
        <time>2021-07-20T14:05:43Z</time>
      </trkpt>
      <trkpt lat="39.45445" lon="-0.37116">
        <ele>42.21393</ele>
        <time>2021-07-20T14:05:58Z</time>
      </trkpt>
      <trkpt lat="39.45441" lon="-0.37091">
        <ele>42.21393</ele>
        <time>2021-07-20T14:06:13Z</time>
      </trkpt>
      <trkpt lat="39.45444" lon="-0.37116">
        <ele>42.21393</ele>
        <time>2021-07-20T14:06:26Z</time>
      </trkpt>
      <trkpt lat="39.45439" lon="-0.3708">
        <ele>42.21393</ele>
        <time>2021-07-20T14:06:40Z</time>
      </trkpt>
      <trkpt lat="39.45441" lon="-0.3709">
        <ele>42.21393</ele>
        <time>2021-07-20T14:06:56Z</time>
      </trkpt>
      <trkpt lat="39.45443" lon="-0.37105">
        <ele>42.21393</ele>
        <time>2021-07-20T14:07:12Z</time>
      </trkpt>
      <trkpt lat="39.45443" lon="-0.37113">
        <ele>42.21393</ele>
        <time>2021-07-20T14:07:29Z</time>
      </trkpt>
      <trkpt lat="39.45444" lon="-0.37121">
        <ele>42.21393</ele>
        <time>2021-07-20T14:07:44Z</time>
      </trkpt>
      <trkpt lat="39.45441" lon="-0.37093">
        <ele>42.21393</ele>
        <time>2021-07-20T14:08:08Z</time>
      </trkpt>
      <trkpt lat="39.45446" lon="-0.37132">
        <ele>42.21393</ele>
        <time>2021-07-20T14:08:25Z</time>
      </trkpt>
      <trkpt lat="39.45448" lon="-0.37146">
        <ele>42.21393</ele>
        <time>2021-07-20T14:08:38Z</time>
      </trkpt>
      <trkpt lat="39.45446" lon="-0.37131">
        <ele>42.21393</ele>
        <time>2021-07-20T14:08:50Z</time>
      </trkpt>
      <trkpt lat="39.45436" lon="-0.37147">
        <ele>42.21393</ele>
        <time>2021-07-20T14:09:04Z</time>
      </trkpt>
      <trkpt lat="39.45448" lon="-0.37133">
        <ele>42.21393</ele>
        <time>2021-07-20T14:09:19Z</time>
      </trkpt>
      <trkpt lat="39.45444" lon="-0.37134">
        <ele>42.21393</ele>
        <time>2021-07-20T14:09:32Z</time>
      </trkpt>
      <trkpt lat="39.45449" lon="-0.37138">
        <ele>42.21393</ele>
        <time>2021-07-20T14:10:13Z</time>
      </trkpt>
      <trkpt lat="39.45446" lon="-0.37134">
        <ele>42.21393</ele>
        <time>2021-07-20T14:10:24Z</time>
      </trkpt>
      <trkpt lat="39.45446" lon="-0.37123">
        <ele>42.21393</ele>
        <time>2021-07-20T14:10:38Z</time>
      </trkpt>
      <trkpt lat="39.45446" lon="-0.37063">
        <ele>42.21393</ele>
        <time>2021-07-20T14:10:50Z</time>
      </trkpt>
      <trkpt lat="39.45474" lon="-0.37054">
        <ele>11.53606</ele>
        <time>2021-07-20T14:11:01Z</time>
      </trkpt>
      <trkpt lat="39.4547" lon="-0.37057">
        <ele>11.64475</ele>
        <time>2021-07-20T14:11:12Z</time>
      </trkpt>
      <trkpt lat="39.45477" lon="-0.37054">
        <ele>11.72049</ele>
        <time>2021-07-20T14:11:23Z</time>
      </trkpt>
      <trkpt lat="39.45481" lon="-0.37053">
        <ele>12.03902</ele>
        <time>2021-07-20T14:11:34Z</time>
      </trkpt>
      <trkpt lat="39.45493" lon="-0.37051">
        <ele>11.31222</ele>
        <time>2021-07-20T14:11:45Z</time>
      </trkpt>
      <trkpt lat="39.45503" lon="-0.37064">
        <ele>12.41283</ele>
        <time>2021-07-20T14:11:56Z</time>
      </trkpt>
      <trkpt lat="39.45507" lon="-0.37063">
        <ele>9.563832</ele>
        <time>2021-07-20T14:12:07Z</time>
      </trkpt>
      <trkpt lat="39.45525" lon="-0.37063">
        <ele>9.651275</ele>
        <time>2021-07-20T14:12:18Z</time>
      </trkpt>
      <trkpt lat="39.45533" lon="-0.37042">
        <ele>9.5483</ele>
        <time>2021-07-20T14:12:29Z</time>
      </trkpt>
      <trkpt lat="39.45533" lon="-0.37027">
        <ele>9.853495</ele>
        <time>2021-07-20T14:12:40Z</time>
      </trkpt>
      <trkpt lat="39.45539" lon="-0.37011">
        <ele>10.97767</ele>
        <time>2021-07-20T14:12:51Z</time>
      </trkpt>
      <trkpt lat="39.45542" lon="-0.36996">
        <ele>9.079894</ele>
        <time>2021-07-20T14:13:02Z</time>
      </trkpt>
      <trkpt lat="39.45547" lon="-0.36977">
        <ele>10.00366</ele>
        <time>2021-07-20T14:13:13Z</time>
      </trkpt>
      <trkpt lat="39.45543" lon="-0.36964">
        <ele>7.14505</ele>
        <time>2021-07-20T14:13:24Z</time>
      </trkpt>
      <trkpt lat="39.45538" lon="-0.36944">
        <ele>10.57117</ele>
        <time>2021-07-20T14:13:35Z</time>
      </trkpt>
      <trkpt lat="39.45536" lon="-0.36927">
        <ele>10.88288</ele>
        <time>2021-07-20T14:13:46Z</time>
      </trkpt>
      <trkpt lat="39.45539" lon="-0.36915">
        <ele>10.36238</ele>
        <time>2021-07-20T14:13:57Z</time>
      </trkpt>
      <trkpt lat="39.45535" lon="-0.36917">
        <ele>9.228748</ele>
        <time>2021-07-20T14:14:12Z</time>
      </trkpt>
      <trkpt lat="39.45534" lon="-0.36908">
        <ele>10.8376</ele>
        <time>2021-07-20T14:14:23Z</time>
      </trkpt>
      <trkpt lat="39.45537" lon="-0.36903">
        <ele>10.12713</ele>
        <time>2021-07-20T14:14:34Z</time>
      </trkpt>
      <trkpt lat="39.45532" lon="-0.36906">
        <ele>8.857247</ele>
        <time>2021-07-20T14:14:51Z</time>
      </trkpt>
      <trkpt lat="39.45534" lon="-0.36918">
        <ele>10.76908</ele>
        <time>2021-07-20T14:15:02Z</time>
      </trkpt>
      <trkpt lat="39.45534" lon="-0.36923">
        <ele>10.38164</ele>
        <time>2021-07-20T14:15:30Z</time>
      </trkpt>
      <trkpt lat="39.45538" lon="-0.36922">
        <ele>11.70199</ele>
        <time>2021-07-20T14:15:47Z</time>
      </trkpt>
      <trkpt lat="39.45534" lon="-0.36918">
        <ele>10.77035</ele>
        <time>2021-07-20T14:15:58Z</time>
      </trkpt>
      <trkpt lat="39.45537" lon="-0.36914">
        <ele>11.43661</ele>
        <time>2021-07-20T14:16:09Z</time>
      </trkpt>
      <trkpt lat="39.45533" lon="-0.36914">
        <ele>10.47992</ele>
        <time>2021-07-20T14:16:20Z</time>
      </trkpt>
      <trkpt lat="39.45533" lon="-0.36917">
        <ele>10.36549</ele>
        <time>2021-07-20T14:17:19Z</time>
      </trkpt>
      <trkpt lat="39.45532" lon="-0.36913">
        <ele>10.4987</ele>
        <time>2021-07-20T14:17:57Z</time>
      </trkpt>
      <trkpt lat="39.45536" lon="-0.36913">
        <ele>11.88462</ele>
        <time>2021-07-20T14:18:32Z</time>
      </trkpt>
      <trkpt lat="39.4554" lon="-0.36914">
        <ele>11.66997</ele>
        <time>2021-07-20T14:18:47Z</time>
      </trkpt>
      <trkpt lat="39.45541" lon="-0.36909">
        <ele>11.84354</ele>
        <time>2021-07-20T14:19:14Z</time>
      </trkpt>
      <trkpt lat="39.4554" lon="-0.36904">
        <ele>10.86317</ele>
        <time>2021-07-20T14:19:25Z</time>
      </trkpt>
      <trkpt lat="39.45532" lon="-0.36912">
        <ele>10.71549</ele>
        <time>2021-07-20T14:19:36Z</time>
      </trkpt>
      <trkpt lat="39.45538" lon="-0.36913">
        <ele>13.61292</ele>
        <time>2021-07-20T14:19:47Z</time>
      </trkpt>
      <trkpt lat="39.45535" lon="-0.36916">
        <ele>11.17594</ele>
        <time>2021-07-20T14:20:01Z</time>
      </trkpt>
      <trkpt lat="39.45538" lon="-0.36913">
        <ele>11.49659</ele>
        <time>2021-07-20T14:20:13Z</time>
      </trkpt>
      <trkpt lat="39.45543" lon="-0.36901">
        <ele>11.70239</ele>
        <time>2021-07-20T14:20:24Z</time>
      </trkpt>
      <trkpt lat="39.4554" lon="-0.3689">
        <ele>12.6622</ele>
        <time>2021-07-20T14:20:35Z</time>
      </trkpt>
      <trkpt lat="39.45549" lon="-0.36895">
        <ele>11.66556</ele>
        <time>2021-07-20T14:20:46Z</time>
      </trkpt>
      <trkpt lat="39.4555" lon="-0.36909">
        <ele>8.84719</ele>
        <time>2021-07-20T14:20:57Z</time>
      </trkpt>
      <trkpt lat="39.45543" lon="-0.3692">
        <ele>10.88261</ele>
        <time>2021-07-20T14:21:08Z</time>
      </trkpt>
      <trkpt lat="39.45539" lon="-0.3692">
        <ele>5.119254</ele>
        <time>2021-07-20T14:21:27Z</time>
      </trkpt>
      <trkpt lat="39.45534" lon="-0.3692">
        <ele>10.68564</ele>
        <time>2021-07-20T14:21:54Z</time>
      </trkpt>
      <trkpt lat="39.45538" lon="-0.36918">
        <ele>10.62134</ele>
        <time>2021-07-20T14:22:33Z</time>
      </trkpt>
      <trkpt lat="39.45542" lon="-0.3692">
        <ele>11.09667</ele>
        <time>2021-07-20T14:23:07Z</time>
      </trkpt>
      <trkpt lat="39.45538" lon="-0.3692">
        <ele>10.57514</ele>
        <time>2021-07-20T14:24:00Z</time>
      </trkpt>
      <trkpt lat="39.45537" lon="-0.36922">
        <ele>10.66946</ele>
        <time>2021-07-20T14:24:59Z</time>
      </trkpt>
      <trkpt lat="39.45538" lon="-0.36921">
        <ele>10.61695</ele>
        <time>2021-07-20T14:25:57Z</time>
      </trkpt>
      <trkpt lat="39.45541" lon="-0.36919">
        <ele>11.0971</ele>
        <time>2021-07-20T14:26:13Z</time>
      </trkpt>
      <trkpt lat="39.45537" lon="-0.36918">
        <ele>10.42455</ele>
        <time>2021-07-20T14:26:51Z</time>
      </trkpt>
      <trkpt lat="39.45536" lon="-0.36919">
        <ele>10.54807</ele>
        <time>2021-07-20T14:27:49Z</time>
      </trkpt>
      <trkpt lat="39.45531" lon="-0.36919">
        <ele>10.34863</ele>
        <time>2021-07-20T14:28:34Z</time>
      </trkpt>
      <trkpt lat="39.45536" lon="-0.36919">
        <ele>10.00792</ele>
        <time>2021-07-20T14:28:55Z</time>
      </trkpt>
      <trkpt lat="39.4554" lon="-0.3692">
        <ele>12.44804</ele>
        <time>2021-07-20T14:29:15Z</time>
      </trkpt>
      <trkpt lat="39.45537" lon="-0.36923">
        <ele>10.78756</ele>
        <time>2021-07-20T14:29:54Z</time>
      </trkpt>
      <trkpt lat="39.45533" lon="-0.36924">
        <ele>9.918148</ele>
        <time>2021-07-20T14:30:31Z</time>
      </trkpt>
      <trkpt lat="39.45528" lon="-0.36924">
        <ele>10.79422</ele>
        <time>2021-07-20T14:30:49Z</time>
      </trkpt>
      <trkpt lat="39.45535" lon="-0.36919">
        <ele>10.73829</ele>
        <time>2021-07-20T14:31:00Z</time>
      </trkpt>
      <trkpt lat="39.45539" lon="-0.36915">
        <ele>10.40426</ele>
        <time>2021-07-20T14:31:19Z</time>
      </trkpt>
      <trkpt lat="39.45557" lon="-0.36909">
        <ele>11.03692</ele>
        <time>2021-07-20T14:31:30Z</time>
      </trkpt>
      <trkpt lat="39.45551" lon="-0.36916">
        <ele>10.57495</ele>
        <time>2021-07-20T14:31:41Z</time>
      </trkpt>
      <trkpt lat="39.45551" lon="-0.36921">
        <ele>10.67759</ele>
        <time>2021-07-20T14:31:53Z</time>
      </trkpt>
      <trkpt lat="39.45546" lon="-0.36921">
        <ele>10.66504</ele>
        <time>2021-07-20T14:32:05Z</time>
      </trkpt>
      <trkpt lat="39.45546" lon="-0.36915">
        <ele>10.62354</ele>
        <time>2021-07-20T14:32:40Z</time>
      </trkpt>
      <trkpt lat="39.45543" lon="-0.36915">
        <ele>10.46169</ele>
        <time>2021-07-20T14:33:01Z</time>
      </trkpt>
      <trkpt lat="39.45539" lon="-0.36914">
        <ele>10.64067</ele>
        <time>2021-07-20T14:33:14Z</time>
      </trkpt>
      <trkpt lat="39.45542" lon="-0.36915">
        <ele>10.6861</ele>
        <time>2021-07-20T14:33:25Z</time>
      </trkpt>
      <trkpt lat="39.45548" lon="-0.36917">
        <ele>11.75465</ele>
        <time>2021-07-20T14:33:36Z</time>
      </trkpt>
      <trkpt lat="39.45542" lon="-0.36916">
        <ele>10.56961</ele>
        <time>2021-07-20T14:33:48Z</time>
      </trkpt>
      <trkpt lat="39.45546" lon="-0.36914">
        <ele>10.53613</ele>
        <time>2021-07-20T14:34:17Z</time>
      </trkpt>
      <trkpt lat="39.45542" lon="-0.36914">
        <ele>10.3133</ele>
        <time>2021-07-20T14:34:44Z</time>
      </trkpt>
      <trkpt lat="39.45546" lon="-0.36914">
        <ele>10.21981</ele>
        <time>2021-07-20T14:34:55Z</time>
      </trkpt>
      <trkpt lat="39.45549" lon="-0.36913">
        <ele>10.70317</ele>
        <time>2021-07-20T14:35:07Z</time>
      </trkpt>
      <trkpt lat="39.45553" lon="-0.36909">
        <ele>11.68712</ele>
        <time>2021-07-20T14:35:24Z</time>
      </trkpt>
      <trkpt lat="39.45541" lon="-0.36914">
        <ele>10.55978</ele>
        <time>2021-07-20T14:35:35Z</time>
      </trkpt>
      <trkpt lat="39.4554" lon="-0.36908">
        <ele>8.684257</ele>
        <time>2021-07-20T14:35:49Z</time>
      </trkpt>
      <trkpt lat="39.45541" lon="-0.36917">
        <ele>9.955337</ele>
        <time>2021-07-20T14:36:00Z</time>
      </trkpt>
      <trkpt lat="39.45541" lon="-0.36913">
        <ele>10.88268</ele>
        <time>2021-07-20T14:36:59Z</time>
      </trkpt>
      <trkpt lat="39.45541" lon="-0.36912">
        <ele>11.77341</ele>
        <time>2021-07-20T14:37:58Z</time>
      </trkpt>
      <trkpt lat="39.45541" lon="-0.36916">
        <ele>12.31254</ele>
        <time>2021-07-20T14:38:44Z</time>
      </trkpt>
      <trkpt lat="39.45544" lon="-0.3692">
        <ele>12.16977</ele>
        <time>2021-07-20T14:39:31Z</time>
      </trkpt>
      <trkpt lat="39.45548" lon="-0.36919">
        <ele>11.23557</ele>
        <time>2021-07-20T14:39:58Z</time>
      </trkpt>
      <trkpt lat="39.45553" lon="-0.3692">
        <ele>11.36102</ele>
        <time>2021-07-20T14:40:18Z</time>
      </trkpt>
      <trkpt lat="39.45557" lon="-0.36918">
        <ele>11.13531</ele>
        <time>2021-07-20T14:40:45Z</time>
      </trkpt>
      <trkpt lat="39.45554" lon="-0.36914">
        <ele>11.12413</ele>
        <time>2021-07-20T14:41:30Z</time>
      </trkpt>
      <trkpt lat="39.4555" lon="-0.36915">
        <ele>11.69131</ele>
        <time>2021-07-20T14:41:42Z</time>
      </trkpt>
      <trkpt lat="39.45541" lon="-0.36895">
        <ele>11.48006</ele>
        <time>2021-07-20T14:41:53Z</time>
      </trkpt>
      <trkpt lat="39.45517" lon="-0.368">
        <ele>11.79562</ele>
        <time>2021-07-20T14:42:04Z</time>
      </trkpt>
      <trkpt lat="39.45513" lon="-0.36767">
        <ele>11.54028</ele>
        <time>2021-07-20T14:42:15Z</time>
      </trkpt>
      <trkpt lat="39.45516" lon="-0.3676">
        <ele>11.36071</ele>
        <time>2021-07-20T14:42:26Z</time>
      </trkpt>
      <trkpt lat="39.45521" lon="-0.36754">
        <ele>10.81504</ele>
        <time>2021-07-20T14:42:37Z</time>
      </trkpt>
      <trkpt lat="39.4552" lon="-0.36746">
        <ele>10.23898</ele>
        <time>2021-07-20T14:43:09Z</time>
      </trkpt>
      <trkpt lat="39.45492" lon="-0.36708">
        <ele>9.785092</ele>
        <time>2021-07-20T14:43:20Z</time>
      </trkpt>
      <trkpt lat="39.45535" lon="-0.36764">
        <ele>10.05025</ele>
        <time>2021-07-20T14:43:31Z</time>
      </trkpt>
      <trkpt lat="39.45544" lon="-0.36814">
        <ele>10.88988</ele>
        <time>2021-07-20T14:43:42Z</time>
      </trkpt>
      <trkpt lat="39.45538" lon="-0.36816">
        <ele>11.1772</ele>
        <time>2021-07-20T14:43:53Z</time>
      </trkpt>
      <trkpt lat="39.45538" lon="-0.36824">
        <ele>11.4351</ele>
        <time>2021-07-20T14:44:04Z</time>
      </trkpt>
      <trkpt lat="39.45539" lon="-0.36829">
        <ele>10.90487</ele>
        <time>2021-07-20T14:44:15Z</time>
      </trkpt>
      <trkpt lat="39.45539" lon="-0.36829">
        <ele>10.90487</ele>
        <time>2021-07-20T14:45:14Z</time>
      </trkpt>
      <trkpt lat="39.45521" lon="-0.36829">
        <ele>11.14993</ele>
        <time>2021-07-20T14:45:27Z</time>
      </trkpt>
      <trkpt lat="39.45526" lon="-0.3684">
        <ele>10.66974</ele>
        <time>2021-07-20T14:45:38Z</time>
      </trkpt>
      <trkpt lat="39.45554" lon="-0.36903">
        <ele>11.30397</ele>
        <time>2021-07-20T14:45:49Z</time>
      </trkpt>
      <trkpt lat="39.45582" lon="-0.37039">
        <ele>11.39987</ele>
        <time>2021-07-20T14:46:00Z</time>
      </trkpt>
      <trkpt lat="39.45603" lon="-0.37128">
        <ele>10.92976</ele>
        <time>2021-07-20T14:46:11Z</time>
      </trkpt>
      <trkpt lat="39.456" lon="-0.37125">
        <ele>12.22223</ele>
        <time>2021-07-20T14:46:27Z</time>
      </trkpt>
      <trkpt lat="39.45602" lon="-0.37131">
        <ele>12.14794</ele>
        <time>2021-07-20T14:46:53Z</time>
      </trkpt>
      <trkpt lat="39.45629" lon="-0.3726">
        <ele>12.23081</ele>
        <time>2021-07-20T14:47:04Z</time>
      </trkpt>
      <trkpt lat="39.45647" lon="-0.37346">
        <ele>12.41368</ele>
        <time>2021-07-20T14:47:15Z</time>
      </trkpt>
      <trkpt lat="39.4565" lon="-0.37354">
        <ele>13.04052</ele>
        <time>2021-07-20T14:47:26Z</time>
      </trkpt>
      <trkpt lat="39.45652" lon="-0.37362">
        <ele>12.92929</ele>
        <time>2021-07-20T14:47:37Z</time>
      </trkpt>
      <trkpt lat="39.45654" lon="-0.37373">
        <ele>13.3829</ele>
        <time>2021-07-20T14:47:56Z</time>
      </trkpt>
      <trkpt lat="39.45665" lon="-0.3742">
        <ele>12.18764</ele>
        <time>2021-07-20T14:48:07Z</time>
      </trkpt>
      <trkpt lat="39.45679" lon="-0.37484">
        <ele>11.72671</ele>
        <time>2021-07-20T14:48:18Z</time>
      </trkpt>
      <trkpt lat="39.45681" lon="-0.37489">
        <ele>12.93727</ele>
        <time>2021-07-20T14:48:29Z</time>
      </trkpt>
      <trkpt lat="39.4568" lon="-0.37494">
        <ele>13.2026</ele>
        <time>2021-07-20T14:48:41Z</time>
      </trkpt>
      <trkpt lat="39.45685" lon="-0.37515">
        <ele>12.86745</ele>
        <time>2021-07-20T14:48:52Z</time>
      </trkpt>
      <trkpt lat="39.4569" lon="-0.37531">
        <ele>12.27494</ele>
        <time>2021-07-20T14:49:03Z</time>
      </trkpt>
      <trkpt lat="39.45692" lon="-0.37534">
        <ele>11.3902</ele>
        <time>2021-07-20T14:50:02Z</time>
      </trkpt>
      <trkpt lat="39.45711" lon="-0.37545">
        <ele>12.55954</ele>
        <time>2021-07-20T14:50:13Z</time>
      </trkpt>
      <trkpt lat="39.45706" lon="-0.37561">
        <ele>12.68478</ele>
        <time>2021-07-20T14:50:24Z</time>
      </trkpt>
      <trkpt lat="39.45704" lon="-0.37566">
        <ele>13.12145</ele>
        <time>2021-07-20T14:50:52Z</time>
      </trkpt>
      <trkpt lat="39.45676" lon="-0.37632">
        <ele>12.18526</ele>
        <time>2021-07-20T14:51:03Z</time>
      </trkpt>
      <trkpt lat="39.45597" lon="-0.3781">
        <ele>15.20893</ele>
        <time>2021-07-20T14:51:14Z</time>
      </trkpt>
      <trkpt lat="39.45533" lon="-0.38034">
        <ele>21.44317</ele>
        <time>2021-07-20T14:51:25Z</time>
      </trkpt>
      <trkpt lat="39.4564" lon="-0.3824">
        <ele>14.67905</ele>
        <time>2021-07-20T14:51:36Z</time>
      </trkpt>
      <trkpt lat="39.45791" lon="-0.38348">
        <ele>14.02561</ele>
        <time>2021-07-20T14:51:47Z</time>
      </trkpt>
      <trkpt lat="39.45916" lon="-0.38441">
        <ele>14.42687</ele>
        <time>2021-07-20T14:51:58Z</time>
      </trkpt>
      <trkpt lat="39.46033" lon="-0.38524">
        <ele>15.38776</ele>
        <time>2021-07-20T14:52:09Z</time>
      </trkpt>
      <trkpt lat="39.46139" lon="-0.38598">
        <ele>17.80584</ele>
        <time>2021-07-20T14:52:20Z</time>
      </trkpt>
      <trkpt lat="39.46215" lon="-0.38652">
        <ele>17.84493</ele>
        <time>2021-07-20T14:52:31Z</time>
      </trkpt>
      <trkpt lat="39.46217" lon="-0.38656">
        <ele>18.55535</ele>
        <time>2021-07-20T14:52:50Z</time>
      </trkpt>
      <trkpt lat="39.46221" lon="-0.38658">
        <ele>18.45849</ele>
        <time>2021-07-20T14:53:01Z</time>
      </trkpt>
      <trkpt lat="39.46226" lon="-0.38662">
        <ele>18.46678</ele>
        <time>2021-07-20T14:53:24Z</time>
      </trkpt>
      <trkpt lat="39.46303" lon="-0.38717">
        <ele>18.4038</ele>
        <time>2021-07-20T14:53:35Z</time>
      </trkpt>
      <trkpt lat="39.46355" lon="-0.38753">
        <ele>18.39681</ele>
        <time>2021-07-20T14:53:46Z</time>
      </trkpt>
      <trkpt lat="39.46475" lon="-0.38837">
        <ele>19.45931</ele>
        <time>2021-07-20T14:53:57Z</time>
      </trkpt>
      <trkpt lat="39.466" lon="-0.38927">
        <ele>19.90685</ele>
        <time>2021-07-20T14:54:08Z</time>
      </trkpt>
      <trkpt lat="39.46651" lon="-0.38976">
        <ele>20.82367</ele>
        <time>2021-07-20T14:54:19Z</time>
      </trkpt>
      <trkpt lat="39.4668" lon="-0.39001">
        <ele>27.22082</ele>
        <time>2021-07-20T14:54:30Z</time>
      </trkpt>
      <trkpt lat="39.46748" lon="-0.39042">
        <ele>42.47231</ele>
        <time>2021-07-20T14:54:41Z</time>
      </trkpt>
      <trkpt lat="39.46828" lon="-0.39108">
        <ele>40.24283</ele>
        <time>2021-07-20T14:54:52Z</time>
      </trkpt>
      <trkpt lat="39.46877" lon="-0.39147">
        <ele>44.93579</ele>
        <time>2021-07-20T14:55:03Z</time>
      </trkpt>
      <trkpt lat="39.46879" lon="-0.39144">
        <ele>48.58757</ele>
        <time>2021-07-20T14:55:17Z</time>
      </trkpt>
      <trkpt lat="39.46876" lon="-0.3915">
        <ele>53.61637</ele>
        <time>2021-07-20T14:55:28Z</time>
      </trkpt>
      <trkpt lat="39.46873" lon="-0.39155">
        <ele>60.15965</ele>
        <time>2021-07-20T14:55:48Z</time>
      </trkpt>
      <trkpt lat="39.46868" lon="-0.39164">
        <ele>62.6967</ele>
        <time>2021-07-20T14:55:59Z</time>
      </trkpt>
      <trkpt lat="39.46896" lon="-0.39163">
        <ele>57.11816</ele>
        <time>2021-07-20T14:56:10Z</time>
      </trkpt>
      <trkpt lat="39.46962" lon="-0.39194">
        <ele>53.72978</ele>
        <time>2021-07-20T14:56:21Z</time>
      </trkpt>
      <trkpt lat="39.47049" lon="-0.39258">
        <ele>21.04993</ele>
        <time>2021-07-20T14:56:32Z</time>
      </trkpt>
      <trkpt lat="39.47136" lon="-0.39314">
        <ele>21.98899</ele>
        <time>2021-07-20T14:56:43Z</time>
      </trkpt>
      <trkpt lat="39.47235" lon="-0.39384">
        <ele>22.73353</ele>
        <time>2021-07-20T14:56:54Z</time>
      </trkpt>
      <trkpt lat="39.47316" lon="-0.39442">
        <ele>23.62229</ele>
        <time>2021-07-20T14:57:05Z</time>
      </trkpt>
      <trkpt lat="39.47436" lon="-0.39526">
        <ele>21.21162</ele>
        <time>2021-07-20T14:57:16Z</time>
      </trkpt>
      <trkpt lat="39.47489" lon="-0.39564">
        <ele>22.50773</ele>
        <time>2021-07-20T14:57:27Z</time>
      </trkpt>
      <trkpt lat="39.47492" lon="-0.39566">
        <ele>29.32459</ele>
        <time>2021-07-20T14:57:41Z</time>
      </trkpt>
      <trkpt lat="39.47489" lon="-0.39563">
        <ele>32.42999</ele>
        <time>2021-07-20T14:57:55Z</time>
      </trkpt>
      <trkpt lat="39.47492" lon="-0.39567">
        <ele>38.53351</ele>
        <time>2021-07-20T14:58:15Z</time>
      </trkpt>
      <trkpt lat="39.47554" lon="-0.39613">
        <ele>32.21994</ele>
        <time>2021-07-20T14:58:26Z</time>
      </trkpt>
      <trkpt lat="39.47677" lon="-0.39697">
        <ele>24.96733</ele>
        <time>2021-07-20T14:58:37Z</time>
      </trkpt>
      <trkpt lat="39.47805" lon="-0.39788">
        <ele>21.16566</ele>
        <time>2021-07-20T14:58:48Z</time>
      </trkpt>
      <trkpt lat="39.47934" lon="-0.39877">
        <ele>22.16665</ele>
        <time>2021-07-20T14:58:59Z</time>
      </trkpt>
      <trkpt lat="39.48077" lon="-0.39981">
        <ele>24.34575</ele>
        <time>2021-07-20T14:59:10Z</time>
      </trkpt>
      <trkpt lat="39.4822" lon="-0.40083">
        <ele>22.49695</ele>
        <time>2021-07-20T14:59:21Z</time>
      </trkpt>
      <trkpt lat="39.48254" lon="-0.40104">
        <ele>25.56895</ele>
        <time>2021-07-20T14:59:32Z</time>
      </trkpt>
      <trkpt lat="39.48259" lon="-0.40106">
        <ele>23.79809</ele>
        <time>2021-07-20T15:00:12Z</time>
      </trkpt>
      <trkpt lat="39.48342" lon="-0.40157">
        <ele>24.57014</ele>
        <time>2021-07-20T15:00:23Z</time>
      </trkpt>
      <trkpt lat="39.48474" lon="-0.40269">
        <ele>27.58014</ele>
        <time>2021-07-20T15:00:34Z</time>
      </trkpt>
      <trkpt lat="39.48613" lon="-0.40369">
        <ele>36.81901</ele>
        <time>2021-07-20T15:00:45Z</time>
      </trkpt>
      <trkpt lat="39.48732" lon="-0.40457">
        <ele>41.06585</ele>
        <time>2021-07-20T15:00:56Z</time>
      </trkpt>
      <trkpt lat="39.48763" lon="-0.40436">
        <ele>35.23878</ele>
        <time>2021-07-20T15:01:07Z</time>
      </trkpt>
      <trkpt lat="39.48771" lon="-0.40433">
        <ele>26.61438</ele>
        <time>2021-07-20T15:01:34Z</time>
      </trkpt>
      <trkpt lat="39.48777" lon="-0.4043">
        <ele>25.5198</ele>
        <time>2021-07-20T15:01:48Z</time>
      </trkpt>
      <trkpt lat="39.48774" lon="-0.40414">
        <ele>25.83772</ele>
        <time>2021-07-20T15:02:04Z</time>
      </trkpt>
      <trkpt lat="39.4877" lon="-0.40414">
        <ele>22.19015</ele>
        <time>2021-07-20T15:02:36Z</time>
      </trkpt>
      <trkpt lat="39.4877" lon="-0.40414">
        <ele>22.03768</ele>
        <time>2021-07-20T15:03:35Z</time>
      </trkpt>
      <trkpt lat="39.48759" lon="-0.40416">
        <ele>10.17816</ele>
        <time>2021-07-20T15:04:22Z</time>
      </trkpt>
      <trkpt lat="39.48759" lon="-0.40416">
        <ele>10.59409</ele>
        <time>2021-07-20T15:05:22Z</time>
      </trkpt>
      <trkpt lat="39.48763" lon="-0.40415">
        <ele>9.216248</ele>
        <time>2021-07-20T15:05:45Z</time>
      </trkpt>
      <trkpt lat="39.48766" lon="-0.40406">
        <ele>9.200694</ele>
        <time>2021-07-20T15:05:56Z</time>
      </trkpt>
      <trkpt lat="39.48762" lon="-0.40395">
        <ele>15.27164</ele>
        <time>2021-07-20T15:06:07Z</time>
      </trkpt>
      <trkpt lat="39.48766" lon="-0.40392">
        <ele>21.00549</ele>
        <time>2021-07-20T15:06:19Z</time>
      </trkpt>
      <trkpt lat="39.48763" lon="-0.40395">
        <ele>34.97555</ele>
        <time>2021-07-20T15:06:43Z</time>
      </trkpt>
      <trkpt lat="39.48764" lon="-0.40391">
        <ele>29.80711</ele>
        <time>2021-07-20T15:07:12Z</time>
      </trkpt>
      <trkpt lat="39.48763" lon="-0.40395">
        <ele>30.21921</ele>
        <time>2021-07-20T15:07:58Z</time>
      </trkpt>
      <trkpt lat="39.48772" lon="-0.40402">
        <ele>24.01853</ele>
        <time>2021-07-20T15:08:21Z</time>
      </trkpt>
      <trkpt lat="39.48744" lon="-0.40418">
        <ele>25.87699</ele>
        <time>2021-07-20T15:08:32Z</time>
      </trkpt>
      <trkpt lat="39.48741" lon="-0.40461">
        <ele>31.373</ele>
        <time>2021-07-20T15:08:43Z</time>
      </trkpt>
      <trkpt lat="39.48809" lon="-0.40498">
        <ele>30.80127</ele>
        <time>2021-07-20T15:08:54Z</time>
      </trkpt>
      <trkpt lat="39.4881" lon="-0.40543">
        <ele>29.87749</ele>
        <time>2021-07-20T15:09:05Z</time>
      </trkpt>
      <trkpt lat="39.48809" lon="-0.40547">
        <ele>29.73806</ele>
        <time>2021-07-20T15:09:50Z</time>
      </trkpt>
      <trkpt lat="39.48818" lon="-0.40659">
        <ele>25.54207</ele>
        <time>2021-07-20T15:10:01Z</time>
      </trkpt>
      <trkpt lat="39.48844" lon="-0.40905">
        <ele>27.40307</ele>
        <time>2021-07-20T15:10:12Z</time>
      </trkpt>
      <trkpt lat="39.48927" lon="-0.41173">
        <ele>27.456</ele>
        <time>2021-07-20T15:10:23Z</time>
      </trkpt>
      <trkpt lat="39.49012" lon="-0.4144">
        <ele>27.40577</ele>
        <time>2021-07-20T15:10:34Z</time>
      </trkpt>
      <trkpt lat="39.49065" lon="-0.41693">
        <ele>28.46624</ele>
        <time>2021-07-20T15:10:45Z</time>
      </trkpt>
      <trkpt lat="39.49127" lon="-0.41813">
        <ele>28.6182</ele>
        <time>2021-07-20T15:10:56Z</time>
      </trkpt>
      <trkpt lat="39.49303" lon="-0.41807">
        <ele>28.87061</ele>
        <time>2021-07-20T15:11:07Z</time>
      </trkpt>
      <trkpt lat="39.49417" lon="-0.41883">
        <ele>31.86241</ele>
        <time>2021-07-20T15:11:18Z</time>
      </trkpt>
      <trkpt lat="39.49604" lon="-0.41898">
        <ele>44.55924</ele>
        <time>2021-07-20T15:11:29Z</time>
      </trkpt>
      <trkpt lat="39.49656" lon="-0.4189">
        <ele>39.14261</ele>
        <time>2021-07-20T15:11:40Z</time>
      </trkpt>
      <trkpt lat="39.4966" lon="-0.41888">
        <ele>39.4683</ele>
        <time>2021-07-20T15:12:21Z</time>
      </trkpt>
      <trkpt lat="39.49671" lon="-0.41922">
        <ele>39.84515</ele>
        <time>2021-07-20T15:12:32Z</time>
      </trkpt>
      <trkpt lat="39.49659" lon="-0.42156">
        <ele>40.6189</ele>
        <time>2021-07-20T15:12:43Z</time>
      </trkpt>
      <trkpt lat="39.49646" lon="-0.42449">
        <ele>42.71846</ele>
        <time>2021-07-20T15:12:54Z</time>
      </trkpt>
      <trkpt lat="39.49669" lon="-0.42741">
        <ele>52.4357</ele>
        <time>2021-07-20T15:13:05Z</time>
      </trkpt>
      <trkpt lat="39.49791" lon="-0.42834">
        <ele>44.82398</ele>
        <time>2021-07-20T15:13:16Z</time>
      </trkpt>
      <trkpt lat="39.49805" lon="-0.42926">
        <ele>49.24113</ele>
        <time>2021-07-20T15:13:27Z</time>
      </trkpt>
      <trkpt lat="39.49849" lon="-0.43047">
        <ele>55.43168</ele>
        <time>2021-07-20T15:13:38Z</time>
      </trkpt>
      <trkpt lat="39.49941" lon="-0.4309">
        <ele>51.25171</ele>
        <time>2021-07-20T15:13:49Z</time>
      </trkpt>
      <trkpt lat="39.50067" lon="-0.43127">
        <ele>55.73767</ele>
        <time>2021-07-20T15:14:00Z</time>
      </trkpt>
      <trkpt lat="39.50147" lon="-0.43099">
        <ele>55.15689</ele>
        <time>2021-07-20T15:14:11Z</time>
      </trkpt>
      <trkpt lat="39.50159" lon="-0.43207">
        <ele>51.70862</ele>
        <time>2021-07-20T15:14:22Z</time>
      </trkpt>
      <trkpt lat="39.50272" lon="-0.4326">
        <ele>53.12866</ele>
        <time>2021-07-20T15:14:33Z</time>
      </trkpt>
      <trkpt lat="39.50395" lon="-0.43274">
        <ele>54.0027</ele>
        <time>2021-07-20T15:14:44Z</time>
      </trkpt>
      <trkpt lat="39.50531" lon="-0.43286">
        <ele>55.31591</ele>
        <time>2021-07-20T15:14:55Z</time>
      </trkpt>
      <trkpt lat="39.50651" lon="-0.433">
        <ele>53.51906</ele>
        <time>2021-07-20T15:15:06Z</time>
      </trkpt>
      <trkpt lat="39.50762" lon="-0.43347">
        <ele>57.09914</ele>
        <time>2021-07-20T15:15:17Z</time>
      </trkpt>
      <trkpt lat="39.50796" lon="-0.43389">
        <ele>58.13277</ele>
        <time>2021-07-20T15:15:28Z</time>
      </trkpt>
      <trkpt lat="39.5082" lon="-0.43406">
        <ele>54.7503</ele>
        <time>2021-07-20T15:15:39Z</time>
      </trkpt>
      <trkpt lat="39.50854" lon="-0.43506">
        <ele>60.09703</ele>
        <time>2021-07-20T15:15:50Z</time>
      </trkpt>
      <trkpt lat="39.50834" lon="-0.43529">
        <ele>62.28324</ele>
        <time>2021-07-20T15:16:01Z</time>
      </trkpt>
      <trkpt lat="39.50822" lon="-0.43542">
        <ele>62.97777</ele>
        <time>2021-07-20T15:16:12Z</time>
      </trkpt>
      <trkpt lat="39.50831" lon="-0.437">
        <ele>70.28351</ele>
        <time>2021-07-20T15:16:23Z</time>
      </trkpt>
      <trkpt lat="39.50919" lon="-0.43954">
        <ele>79.87133</ele>
        <time>2021-07-20T15:16:34Z</time>
      </trkpt>
      <trkpt lat="39.51014" lon="-0.44217">
        <ele>88.08212</ele>
        <time>2021-07-20T15:16:45Z</time>
      </trkpt>
      <trkpt lat="39.51116" lon="-0.44502">
        <ele>81.2639</ele>
        <time>2021-07-20T15:16:56Z</time>
      </trkpt>
      <trkpt lat="39.51145" lon="-0.44779">
        <ele>78.99664</ele>
        <time>2021-07-20T15:17:07Z</time>
      </trkpt>
      <trkpt lat="39.51146" lon="-0.45033">
        <ele>70.51676</ele>
        <time>2021-07-20T15:17:18Z</time>
      </trkpt>
      <trkpt lat="39.51135" lon="-0.45289">
        <ele>59.52754</ele>
        <time>2021-07-20T15:17:29Z</time>
      </trkpt>
      <trkpt lat="39.51028" lon="-0.45536">
        <ele>58.87942</ele>
        <time>2021-07-20T15:17:40Z</time>
      </trkpt>
      <trkpt lat="39.50897" lon="-0.45725">
        <ele>61.53942</ele>
        <time>2021-07-20T15:17:51Z</time>
      </trkpt>
      <trkpt lat="39.50785" lon="-0.45889">
        <ele>63.11436</ele>
        <time>2021-07-20T15:18:02Z</time>
      </trkpt>
      <trkpt lat="39.50691" lon="-0.46021">
        <ele>62.71664</ele>
        <time>2021-07-20T15:18:13Z</time>
      </trkpt>
      <trkpt lat="39.50563" lon="-0.46203">
        <ele>57.49508</ele>
        <time>2021-07-20T15:18:24Z</time>
      </trkpt>
      <trkpt lat="39.50406" lon="-0.46427">
        <ele>53.01951</ele>
        <time>2021-07-20T15:18:35Z</time>
      </trkpt>
      <trkpt lat="39.50235" lon="-0.46643">
        <ele>51.21665</ele>
        <time>2021-07-20T15:18:46Z</time>
      </trkpt>
      <trkpt lat="39.50083" lon="-0.46779">
        <ele>50.03115</ele>
        <time>2021-07-20T15:18:57Z</time>
      </trkpt>
      <trkpt lat="39.49904" lon="-0.46894">
        <ele>50.30482</ele>
        <time>2021-07-20T15:19:08Z</time>
      </trkpt>
      <trkpt lat="39.49765" lon="-0.46941">
        <ele>61.17086</ele>
        <time>2021-07-20T15:19:19Z</time>
      </trkpt>
      <trkpt lat="39.49645" lon="-0.46968">
        <ele>64.55241</ele>
        <time>2021-07-20T15:19:30Z</time>
      </trkpt>
      <trkpt lat="39.49614" lon="-0.4698">
        <ele>67.00797</ele>
        <time>2021-07-20T15:19:41Z</time>
      </trkpt>
      <trkpt lat="39.49622" lon="-0.47072">
        <ele>71.67519</ele>
        <time>2021-07-20T15:19:52Z</time>
      </trkpt>
      <trkpt lat="39.49641" lon="-0.47174">
        <ele>71.30152</ele>
        <time>2021-07-20T15:20:03Z</time>
      </trkpt>
      <trkpt lat="39.49559" lon="-0.47233">
        <ele>76.26738</ele>
        <time>2021-07-20T15:20:14Z</time>
      </trkpt>
      <trkpt lat="39.49508" lon="-0.47281">
        <ele>72.40914</ele>
        <time>2021-07-20T15:20:25Z</time>
      </trkpt>
      <trkpt lat="39.49528" lon="-0.47383">
        <ele>66.05295</ele>
        <time>2021-07-20T15:20:36Z</time>
      </trkpt>
      <trkpt lat="39.49562" lon="-0.47524">
        <ele>61.69037</ele>
        <time>2021-07-20T15:20:47Z</time>
      </trkpt>
      <trkpt lat="39.49599" lon="-0.47657">
        <ele>62.89227</ele>
        <time>2021-07-20T15:20:58Z</time>
      </trkpt>
      <trkpt lat="39.4962" lon="-0.47747">
        <ele>63.23454</ele>
        <time>2021-07-20T15:21:09Z</time>
      </trkpt>
      <trkpt lat="39.49644" lon="-0.47865">
        <ele>65.2902</ele>
        <time>2021-07-20T15:21:20Z</time>
      </trkpt>
      <trkpt lat="39.49677" lon="-0.47977">
        <ele>64.59262</ele>
        <time>2021-07-20T15:21:31Z</time>
      </trkpt>
      <trkpt lat="39.49716" lon="-0.4816">
        <ele>64.83831</ele>
        <time>2021-07-20T15:21:42Z</time>
      </trkpt>
      <trkpt lat="39.4976" lon="-0.48349">
        <ele>66.97614</ele>
        <time>2021-07-20T15:21:53Z</time>
      </trkpt>
      <trkpt lat="39.4981" lon="-0.48548">
        <ele>66.09735</ele>
        <time>2021-07-20T15:22:04Z</time>
      </trkpt>
      <trkpt lat="39.49852" lon="-0.48734">
        <ele>68.52441</ele>
        <time>2021-07-20T15:22:15Z</time>
      </trkpt>
      <trkpt lat="39.49906" lon="-0.48818">
        <ele>68.44633</ele>
        <time>2021-07-20T15:22:26Z</time>
      </trkpt>
      <trkpt lat="39.49989" lon="-0.48922">
        <ele>68.41904</ele>
        <time>2021-07-20T15:22:37Z</time>
      </trkpt>
      <trkpt lat="39.50051" lon="-0.49081">
        <ele>71.87119</ele>
        <time>2021-07-20T15:22:48Z</time>
      </trkpt>
      <trkpt lat="39.50122" lon="-0.4924">
        <ele>79.00318</ele>
        <time>2021-07-20T15:22:59Z</time>
      </trkpt>
      <trkpt lat="39.50211" lon="-0.49406">
        <ele>88.22384</ele>
        <time>2021-07-20T15:23:10Z</time>
      </trkpt>
      <trkpt lat="39.50284" lon="-0.49568">
        <ele>92.37237</ele>
        <time>2021-07-20T15:23:21Z</time>
      </trkpt>
      <trkpt lat="39.50343" lon="-0.49731">
        <ele>91.06597</ele>
        <time>2021-07-20T15:23:32Z</time>
      </trkpt>
      <trkpt lat="39.50376" lon="-0.49837">
        <ele>88.00104</ele>
        <time>2021-07-20T15:23:43Z</time>
      </trkpt>
      <trkpt lat="39.50409" lon="-0.49908">
        <ele>89.47088</ele>
        <time>2021-07-20T15:23:54Z</time>
      </trkpt>
      <trkpt lat="39.50487" lon="-0.50051">
        <ele>88.96938</ele>
        <time>2021-07-20T15:24:05Z</time>
      </trkpt>
      <trkpt lat="39.50566" lon="-0.5025">
        <ele>88.52155</ele>
        <time>2021-07-20T15:24:16Z</time>
      </trkpt>
      <trkpt lat="39.50645" lon="-0.50474">
        <ele>88.30059</ele>
        <time>2021-07-20T15:24:27Z</time>
      </trkpt>
      <trkpt lat="39.50737" lon="-0.5068">
        <ele>86.35013</ele>
        <time>2021-07-20T15:24:38Z</time>
      </trkpt>
      <trkpt lat="39.50849" lon="-0.50952">
        <ele>89.67403</ele>
        <time>2021-07-20T15:24:49Z</time>
      </trkpt>
      <trkpt lat="39.50954" lon="-0.51215">
        <ele>94.18843</ele>
        <time>2021-07-20T15:25:00Z</time>
      </trkpt>
      <trkpt lat="39.51074" lon="-0.51391">
        <ele>94.95634</ele>
        <time>2021-07-20T15:25:11Z</time>
      </trkpt>
      <trkpt lat="39.51204" lon="-0.5157">
        <ele>103.1869</ele>
        <time>2021-07-20T15:25:22Z</time>
      </trkpt>
      <trkpt lat="39.51355" lon="-0.51753">
        <ele>113.1407</ele>
        <time>2021-07-20T15:25:33Z</time>
      </trkpt>
      <trkpt lat="39.5151" lon="-0.5189">
        <ele>114.9916</ele>
        <time>2021-07-20T15:25:44Z</time>
      </trkpt>
      <trkpt lat="39.51623" lon="-0.52131">
        <ele>100.6413</ele>
        <time>2021-07-20T15:25:55Z</time>
      </trkpt>
      <trkpt lat="39.51721" lon="-0.5231">
        <ele>89.69324</ele>
        <time>2021-07-20T15:26:06Z</time>
      </trkpt>
      <trkpt lat="39.51879" lon="-0.52442">
        <ele>83.71972</ele>
        <time>2021-07-20T15:26:17Z</time>
      </trkpt>
      <trkpt lat="39.51996" lon="-0.52583">
        <ele>88.15657</ele>
        <time>2021-07-20T15:26:28Z</time>
      </trkpt>
      <trkpt lat="39.5205" lon="-0.52649">
        <ele>89.6114</ele>
        <time>2021-07-20T15:26:39Z</time>
      </trkpt>
      <trkpt lat="39.52097" lon="-0.52693">
        <ele>89.37118</ele>
        <time>2021-07-20T15:26:50Z</time>
      </trkpt>
      <trkpt lat="39.52168" lon="-0.52793">
        <ele>88.48008</ele>
        <time>2021-07-20T15:27:01Z</time>
      </trkpt>
      <trkpt lat="39.52322" lon="-0.52992">
        <ele>84.54121</ele>
        <time>2021-07-20T15:27:12Z</time>
      </trkpt>
      <trkpt lat="39.52493" lon="-0.53142">
        <ele>86.9959</ele>
        <time>2021-07-20T15:27:23Z</time>
      </trkpt>
      <trkpt lat="39.5258" lon="-0.53191">
        <ele>88.59223</ele>
        <time>2021-07-20T15:27:34Z</time>
      </trkpt>
      <trkpt lat="39.52656" lon="-0.5321">
        <ele>90.20803</ele>
        <time>2021-07-20T15:27:45Z</time>
      </trkpt>
      <trkpt lat="39.52748" lon="-0.5333">
        <ele>93.06862</ele>
        <time>2021-07-20T15:27:56Z</time>
      </trkpt>
      <trkpt lat="39.52922" lon="-0.53496">
        <ele>98.15371</ele>
        <time>2021-07-20T15:28:07Z</time>
      </trkpt>
      <trkpt lat="39.53109" lon="-0.53662">
        <ele>99.11599</ele>
        <time>2021-07-20T15:28:18Z</time>
      </trkpt>
      <trkpt lat="39.53315" lon="-0.5382">
        <ele>97.03899</ele>
        <time>2021-07-20T15:28:29Z</time>
      </trkpt>
      <trkpt lat="39.53541" lon="-0.54008">
        <ele>87.61217</ele>
        <time>2021-07-20T15:28:40Z</time>
      </trkpt>
      <trkpt lat="39.53709" lon="-0.54223">
        <ele>88.54781</ele>
        <time>2021-07-20T15:28:51Z</time>
      </trkpt>
      <trkpt lat="39.53769" lon="-0.54318">
        <ele>89.63313</ele>
        <time>2021-07-20T15:29:02Z</time>
      </trkpt>
      <trkpt lat="39.53868" lon="-0.54498">
        <ele>98.6578</ele>
        <time>2021-07-20T15:29:13Z</time>
      </trkpt>
      <trkpt lat="39.5403" lon="-0.54749">
        <ele>98.38474</ele>
        <time>2021-07-20T15:29:24Z</time>
      </trkpt>
      <trkpt lat="39.54187" lon="-0.55016">
        <ele>94.11542</ele>
        <time>2021-07-20T15:29:35Z</time>
      </trkpt>
      <trkpt lat="39.54265" lon="-0.55289">
        <ele>88.85256</ele>
        <time>2021-07-20T15:29:46Z</time>
      </trkpt>
      <trkpt lat="39.54328" lon="-0.5548">
        <ele>91.59758</ele>
        <time>2021-07-20T15:29:57Z</time>
      </trkpt>
      <trkpt lat="39.54331" lon="-0.55639">
        <ele>95.86841</ele>
        <time>2021-07-20T15:30:08Z</time>
      </trkpt>
      <trkpt lat="39.54307" lon="-0.55889">
        <ele>108.9079</ele>
        <time>2021-07-20T15:30:19Z</time>
      </trkpt>
      <trkpt lat="39.54146" lon="-0.56131">
        <ele>115.5397</ele>
        <time>2021-07-20T15:30:30Z</time>
      </trkpt>
      <trkpt lat="39.54001" lon="-0.56391">
        <ele>124.1258</ele>
        <time>2021-07-20T15:30:41Z</time>
      </trkpt>
      <trkpt lat="39.53933" lon="-0.56725">
        <ele>120.8165</ele>
        <time>2021-07-20T15:30:52Z</time>
      </trkpt>
      <trkpt lat="39.53881" lon="-0.57032">
        <ele>115.4913</ele>
        <time>2021-07-20T15:31:03Z</time>
      </trkpt>
      <trkpt lat="39.53858" lon="-0.57132">
        <ele>120.0309</ele>
        <time>2021-07-20T15:31:14Z</time>
      </trkpt>
      <trkpt lat="39.53875" lon="-0.5723">
        <ele>121.7847</ele>
        <time>2021-07-20T15:31:25Z</time>
      </trkpt>
      <trkpt lat="39.53904" lon="-0.57427">
        <ele>129.395</ele>
        <time>2021-07-20T15:31:36Z</time>
      </trkpt>
      <trkpt lat="39.54008" lon="-0.57703">
        <ele>139.4427</ele>
        <time>2021-07-20T15:31:47Z</time>
      </trkpt>
      <trkpt lat="39.54125" lon="-0.57985">
        <ele>135.0328</ele>
        <time>2021-07-20T15:31:58Z</time>
      </trkpt>
      <trkpt lat="39.54256" lon="-0.58136">
        <ele>128.1757</ele>
        <time>2021-07-20T15:32:09Z</time>
      </trkpt>
      <trkpt lat="39.54385" lon="-0.58275">
        <ele>120.6586</ele>
        <time>2021-07-20T15:32:20Z</time>
      </trkpt>
      <trkpt lat="39.5457" lon="-0.58394">
        <ele>110.286</ele>
        <time>2021-07-20T15:32:31Z</time>
      </trkpt>
      <trkpt lat="39.54814" lon="-0.58549">
        <ele>98.60278</ele>
        <time>2021-07-20T15:32:42Z</time>
      </trkpt>
      <trkpt lat="39.55044" lon="-0.58654">
        <ele>93.93488</ele>
        <time>2021-07-20T15:32:53Z</time>
      </trkpt>
      <trkpt lat="39.55101" lon="-0.5863">
        <ele>91.64593</ele>
        <time>2021-07-20T15:33:04Z</time>
      </trkpt>
      <trkpt lat="39.55166" lon="-0.58706">
        <ele>94.28478</ele>
        <time>2021-07-20T15:33:15Z</time>
      </trkpt>
      <trkpt lat="39.5526" lon="-0.58917">
        <ele>94.64736</ele>
        <time>2021-07-20T15:33:26Z</time>
      </trkpt>
      <trkpt lat="39.55419" lon="-0.5911">
        <ele>92.45959</ele>
        <time>2021-07-20T15:33:37Z</time>
      </trkpt>
      <trkpt lat="39.55609" lon="-0.59315">
        <ele>89.03975</ele>
        <time>2021-07-20T15:33:48Z</time>
      </trkpt>
      <trkpt lat="39.55789" lon="-0.59491">
        <ele>91.71724</ele>
        <time>2021-07-20T15:33:59Z</time>
      </trkpt>
      <trkpt lat="39.55989" lon="-0.5957">
        <ele>89.63716</ele>
        <time>2021-07-20T15:34:10Z</time>
      </trkpt>
      <trkpt lat="39.56188" lon="-0.59652">
        <ele>90.45441</ele>
        <time>2021-07-20T15:34:21Z</time>
      </trkpt>
      <trkpt lat="39.56284" lon="-0.59832">
        <ele>93.01095</ele>
        <time>2021-07-20T15:34:32Z</time>
      </trkpt>
      <trkpt lat="39.563" lon="-0.60073">
        <ele>97.02048</ele>
        <time>2021-07-20T15:34:43Z</time>
      </trkpt>
      <trkpt lat="39.56285" lon="-0.60333">
        <ele>92.07</ele>
        <time>2021-07-20T15:34:54Z</time>
      </trkpt>
      <trkpt lat="39.56407" lon="-0.60546">
        <ele>93.04313</ele>
        <time>2021-07-20T15:35:05Z</time>
      </trkpt>
      <trkpt lat="39.56535" lon="-0.60699">
        <ele>98.93654</ele>
        <time>2021-07-20T15:35:16Z</time>
      </trkpt>
      <trkpt lat="39.56665" lon="-0.60879">
        <ele>96.56054</ele>
        <time>2021-07-20T15:35:27Z</time>
      </trkpt>
      <trkpt lat="39.56756" lon="-0.61054">
        <ele>97.06236</ele>
        <time>2021-07-20T15:35:38Z</time>
      </trkpt>
      <trkpt lat="39.56751" lon="-0.61304">
        <ele>96.9136</ele>
        <time>2021-07-20T15:35:49Z</time>
      </trkpt>
      <trkpt lat="39.5672" lon="-0.61547">
        <ele>102.7569</ele>
        <time>2021-07-20T15:36:00Z</time>
      </trkpt>
      <trkpt lat="39.56668" lon="-0.61755">
        <ele>103.5642</ele>
        <time>2021-07-20T15:36:11Z</time>
      </trkpt>
      <trkpt lat="39.56673" lon="-0.61941">
        <ele>105.9786</ele>
        <time>2021-07-20T15:36:22Z</time>
      </trkpt>
      <trkpt lat="39.56663" lon="-0.62121">
        <ele>108.6873</ele>
        <time>2021-07-20T15:36:33Z</time>
      </trkpt>
      <trkpt lat="39.56654" lon="-0.62173">
        <ele>110.182</ele>
        <time>2021-07-20T15:36:44Z</time>
      </trkpt>
      <trkpt lat="39.56701" lon="-0.62204">
        <ele>109.1926</ele>
        <time>2021-07-20T15:36:55Z</time>
      </trkpt>
      <trkpt lat="39.56759" lon="-0.62238">
        <ele>113.0196</ele>
        <time>2021-07-20T15:37:06Z</time>
      </trkpt>
      <trkpt lat="39.56757" lon="-0.62242">
        <ele>116.7239</ele>
        <time>2021-07-20T15:37:17Z</time>
      </trkpt>
      <trkpt lat="39.56813" lon="-0.62237">
        <ele>124.4514</ele>
        <time>2021-07-20T15:37:28Z</time>
      </trkpt>
      <trkpt lat="39.56854" lon="-0.62221">
        <ele>128.8917</ele>
        <time>2021-07-20T15:37:39Z</time>
      </trkpt>
      <trkpt lat="39.56879" lon="-0.6221">
        <ele>126.2371</ele>
        <time>2021-07-20T15:37:50Z</time>
      </trkpt>
      <trkpt lat="39.56947" lon="-0.622">
        <ele>121.7429</ele>
        <time>2021-07-20T15:38:01Z</time>
      </trkpt>
      <trkpt lat="39.57001" lon="-0.62245">
        <ele>113.9055</ele>
        <time>2021-07-20T15:38:12Z</time>
      </trkpt>
      <trkpt lat="39.57053" lon="-0.6231">
        <ele>110.3797</ele>
        <time>2021-07-20T15:38:23Z</time>
      </trkpt>
      <trkpt lat="39.57084" lon="-0.62351">
        <ele>106.1894</ele>
        <time>2021-07-20T15:38:34Z</time>
      </trkpt>
      <trkpt lat="39.57124" lon="-0.62424">
        <ele>105.9884</ele>
        <time>2021-07-20T15:38:45Z</time>
      </trkpt>
      <trkpt lat="39.57177" lon="-0.62414">
        <ele>112.3727</ele>
        <time>2021-07-20T15:38:56Z</time>
      </trkpt>
      <trkpt lat="39.57342" lon="-0.6236">
        <ele>104.509</ele>
        <time>2021-07-20T15:39:07Z</time>
      </trkpt>
      <trkpt lat="39.57474" lon="-0.62315">
        <ele>102.3465</ele>
        <time>2021-07-20T15:39:18Z</time>
      </trkpt>
      <trkpt lat="39.57591" lon="-0.6227">
        <ele>101.9116</ele>
        <time>2021-07-20T15:39:29Z</time>
      </trkpt>
      <trkpt lat="39.57684" lon="-0.62238">
        <ele>101.3434</ele>
        <time>2021-07-20T15:39:40Z</time>
      </trkpt>
      <trkpt lat="39.57816" lon="-0.62192">
        <ele>102.1156</ele>
        <time>2021-07-20T15:39:51Z</time>
      </trkpt>
      <trkpt lat="39.57987" lon="-0.62106">
        <ele>100.8528</ele>
        <time>2021-07-20T15:40:02Z</time>
      </trkpt>
      <trkpt lat="39.58175" lon="-0.61984">
        <ele>100.8446</ele>
        <time>2021-07-20T15:40:13Z</time>
      </trkpt>
      <trkpt lat="39.5831" lon="-0.61808">
        <ele>102.9999</ele>
        <time>2021-07-20T15:40:24Z</time>
      </trkpt>
      <trkpt lat="39.58454" lon="-0.61678">
        <ele>106.9416</ele>
        <time>2021-07-20T15:40:35Z</time>
      </trkpt>
      <trkpt lat="39.58623" lon="-0.6155">
        <ele>116.8735</ele>
        <time>2021-07-20T15:40:46Z</time>
      </trkpt>
      <trkpt lat="39.58826" lon="-0.61395">
        <ele>130.1983</ele>
        <time>2021-07-20T15:40:57Z</time>
      </trkpt>
      <trkpt lat="39.5906" lon="-0.61304">
        <ele>137.6567</ele>
        <time>2021-07-20T15:41:08Z</time>
      </trkpt>
      <trkpt lat="39.59276" lon="-0.61221">
        <ele>138.7546</ele>
        <time>2021-07-20T15:41:19Z</time>
      </trkpt>
      <trkpt lat="39.59481" lon="-0.61144">
        <ele>141.0423</ele>
        <time>2021-07-20T15:41:30Z</time>
      </trkpt>
      <trkpt lat="39.59752" lon="-0.61086">
        <ele>148.8996</ele>
        <time>2021-07-20T15:41:41Z</time>
      </trkpt>
      <trkpt lat="39.59969" lon="-0.60945">
        <ele>142.446</ele>
        <time>2021-07-20T15:41:52Z</time>
      </trkpt>
      <trkpt lat="39.60116" lon="-0.60813">
        <ele>134.8627</ele>
        <time>2021-07-20T15:42:03Z</time>
      </trkpt>
      <trkpt lat="39.60177" lon="-0.60761">
        <ele>135.6762</ele>
        <time>2021-07-20T15:42:14Z</time>
      </trkpt>
      <trkpt lat="39.60262" lon="-0.60704">
        <ele>134.1169</ele>
        <time>2021-07-20T15:42:25Z</time>
      </trkpt>
      <trkpt lat="39.60385" lon="-0.60699">
        <ele>136.0618</ele>
        <time>2021-07-20T15:42:36Z</time>
      </trkpt>
      <trkpt lat="39.60528" lon="-0.60577">
        <ele>139.644</ele>
        <time>2021-07-20T15:42:47Z</time>
      </trkpt>
      <trkpt lat="39.60675" lon="-0.60432">
        <ele>141.4647</ele>
        <time>2021-07-20T15:42:58Z</time>
      </trkpt>
      <trkpt lat="39.60851" lon="-0.60356">
        <ele>142.64</ele>
        <time>2021-07-20T15:43:09Z</time>
      </trkpt>
      <trkpt lat="39.60958" lon="-0.602">
        <ele>147.3798</ele>
        <time>2021-07-20T15:43:20Z</time>
      </trkpt>
      <trkpt lat="39.6108" lon="-0.60047">
        <ele>141.5923</ele>
        <time>2021-07-20T15:43:31Z</time>
      </trkpt>
      <trkpt lat="39.61229" lon="-0.59929">
        <ele>144.9232</ele>
        <time>2021-07-20T15:43:42Z</time>
      </trkpt>
      <trkpt lat="39.61391" lon="-0.59799">
        <ele>145.4781</ele>
        <time>2021-07-20T15:43:53Z</time>
      </trkpt>
      <trkpt lat="39.61587" lon="-0.5964">
        <ele>145.4972</ele>
        <time>2021-07-20T15:44:04Z</time>
      </trkpt>
      <trkpt lat="39.61775" lon="-0.5948">
        <ele>146.8977</ele>
        <time>2021-07-20T15:44:15Z</time>
      </trkpt>
      <trkpt lat="39.61933" lon="-0.59359">
        <ele>149.0724</ele>
        <time>2021-07-20T15:44:26Z</time>
      </trkpt>
      <trkpt lat="39.62068" lon="-0.59259">
        <ele>150.1177</ele>
        <time>2021-07-20T15:44:37Z</time>
      </trkpt>
      <trkpt lat="39.62176" lon="-0.59168">
        <ele>150.3248</ele>
        <time>2021-07-20T15:44:48Z</time>
      </trkpt>
      <trkpt lat="39.6226" lon="-0.59098">
        <ele>150.511</ele>
        <time>2021-07-20T15:44:59Z</time>
      </trkpt>
      <trkpt lat="39.62302" lon="-0.59067">
        <ele>154.5787</ele>
        <time>2021-07-20T15:45:10Z</time>
      </trkpt>
      <trkpt lat="39.62303" lon="-0.59034">
        <ele>159.0291</ele>
        <time>2021-07-20T15:45:21Z</time>
      </trkpt>
      <trkpt lat="39.62258" lon="-0.58951">
        <ele>155.1008</ele>
        <time>2021-07-20T15:45:32Z</time>
      </trkpt>
      <trkpt lat="39.62255" lon="-0.58879">
        <ele>151.0191</ele>
        <time>2021-07-20T15:45:43Z</time>
      </trkpt>
      <trkpt lat="39.62383" lon="-0.58984">
        <ele>155.8421</ele>
        <time>2021-07-20T15:45:54Z</time>
      </trkpt>
      <trkpt lat="39.62561" lon="-0.59097">
        <ele>153.4739</ele>
        <time>2021-07-20T15:46:05Z</time>
      </trkpt>
      <trkpt lat="39.62664" lon="-0.59169">
        <ele>156.275</ele>
        <time>2021-07-20T15:46:16Z</time>
      </trkpt>
      <trkpt lat="39.62702" lon="-0.59258">
        <ele>157.9216</ele>
        <time>2021-07-20T15:46:27Z</time>
      </trkpt>
      <trkpt lat="39.62745" lon="-0.59348">
        <ele>166.9932</ele>
        <time>2021-07-20T15:46:38Z</time>
      </trkpt>
      <trkpt lat="39.62776" lon="-0.59447">
        <ele>174.5757</ele>
        <time>2021-07-20T15:46:49Z</time>
      </trkpt>
      <trkpt lat="39.62806" lon="-0.59546">
        <ele>175.5253</ele>
        <time>2021-07-20T15:47:00Z</time>
      </trkpt>
      <trkpt lat="39.62809" lon="-0.59559">
        <ele>181.7696</ele>
        <time>2021-07-20T15:47:11Z</time>
      </trkpt>
      <trkpt lat="39.62811" lon="-0.59563">
        <ele>189.6721</ele>
        <time>2021-07-20T15:47:23Z</time>
      </trkpt>
      <trkpt lat="39.62816" lon="-0.59581">
        <ele>192.4594</ele>
        <time>2021-07-20T15:47:34Z</time>
      </trkpt>
      <trkpt lat="39.6283" lon="-0.59655">
        <ele>197.6902</ele>
        <time>2021-07-20T15:47:45Z</time>
      </trkpt>
      <trkpt lat="39.62838" lon="-0.59685">
        <ele>199.1378</ele>
        <time>2021-07-20T15:47:56Z</time>
      </trkpt>
      <trkpt lat="39.62859" lon="-0.59748">
        <ele>197.3417</ele>
        <time>2021-07-20T15:48:07Z</time>
      </trkpt>
      <trkpt lat="39.62887" lon="-0.59783">
        <ele>196.5975</ele>
        <time>2021-07-20T15:48:18Z</time>
      </trkpt>
      <trkpt lat="39.62925" lon="-0.59743">
        <ele>188.1142</ele>
        <time>2021-07-20T15:48:29Z</time>
      </trkpt>
      <trkpt lat="39.62982" lon="-0.59739">
        <ele>191.3589</ele>
        <time>2021-07-20T15:48:40Z</time>
      </trkpt>
      <trkpt lat="39.63052" lon="-0.59755">
        <ele>185.9012</ele>
        <time>2021-07-20T15:48:51Z</time>
      </trkpt>
      <trkpt lat="39.63142" lon="-0.59794">
        <ele>174.1332</ele>
        <time>2021-07-20T15:49:02Z</time>
      </trkpt>
      <trkpt lat="39.63203" lon="-0.59831">
        <ele>170.0825</ele>
        <time>2021-07-20T15:49:13Z</time>
      </trkpt>
      <trkpt lat="39.63245" lon="-0.59833">
        <ele>168.5307</ele>
        <time>2021-07-20T15:49:24Z</time>
      </trkpt>
      <trkpt lat="39.63347" lon="-0.59848">
        <ele>169.8027</ele>
        <time>2021-07-20T15:49:35Z</time>
      </trkpt>
      <trkpt lat="39.63567" lon="-0.59906">
        <ele>167.9898</ele>
        <time>2021-07-20T15:49:46Z</time>
      </trkpt>
      <trkpt lat="39.63743" lon="-0.59996">
        <ele>161.2245</ele>
        <time>2021-07-20T15:49:57Z</time>
      </trkpt>
      <trkpt lat="39.63844" lon="-0.60056">
        <ele>164.3024</ele>
        <time>2021-07-20T15:50:08Z</time>
      </trkpt>
      <trkpt lat="39.64008" lon="-0.60232">
        <ele>168.2656</ele>
        <time>2021-07-20T15:50:19Z</time>
      </trkpt>
      <trkpt lat="39.64106" lon="-0.60332">
        <ele>165.4872</ele>
        <time>2021-07-20T15:50:30Z</time>
      </trkpt>
      <trkpt lat="39.64225" lon="-0.6049">
        <ele>169.0211</ele>
        <time>2021-07-20T15:50:41Z</time>
      </trkpt>
      <trkpt lat="39.64378" lon="-0.60636">
        <ele>171.752</ele>
        <time>2021-07-20T15:50:52Z</time>
      </trkpt>
      <trkpt lat="39.64591" lon="-0.60697">
        <ele>172.2429</ele>
        <time>2021-07-20T15:51:03Z</time>
      </trkpt>
      <trkpt lat="39.64749" lon="-0.60795">
        <ele>175.8425</ele>
        <time>2021-07-20T15:51:14Z</time>
      </trkpt>
      <trkpt lat="39.64841" lon="-0.60868">
        <ele>178.0663</ele>
        <time>2021-07-20T15:51:25Z</time>
      </trkpt>
      <trkpt lat="39.64921" lon="-0.60921">
        <ele>176.705</ele>
        <time>2021-07-20T15:51:36Z</time>
      </trkpt>
      <trkpt lat="39.65005" lon="-0.60974">
        <ele>178.5251</ele>
        <time>2021-07-20T15:51:47Z</time>
      </trkpt>
      <trkpt lat="39.65198" lon="-0.61069">
        <ele>178.5827</ele>
        <time>2021-07-20T15:51:58Z</time>
      </trkpt>
      <trkpt lat="39.65416" lon="-0.61181">
        <ele>182.7802</ele>
        <time>2021-07-20T15:52:09Z</time>
      </trkpt>
      <trkpt lat="39.65626" lon="-0.6132">
        <ele>184.2782</ele>
        <time>2021-07-20T15:52:20Z</time>
      </trkpt>
      <trkpt lat="39.65778" lon="-0.61558">
        <ele>183.7991</ele>
        <time>2021-07-20T15:52:31Z</time>
      </trkpt>
      <trkpt lat="39.6591" lon="-0.61783">
        <ele>184.6183</ele>
        <time>2021-07-20T15:52:42Z</time>
      </trkpt>
      <trkpt lat="39.66082" lon="-0.61986">
        <ele>188.0704</ele>
        <time>2021-07-20T15:52:53Z</time>
      </trkpt>
      <trkpt lat="39.66272" lon="-0.62174">
        <ele>190.3336</ele>
        <time>2021-07-20T15:53:04Z</time>
      </trkpt>
      <trkpt lat="39.66453" lon="-0.62366">
        <ele>192.8331</ele>
        <time>2021-07-20T15:53:15Z</time>
      </trkpt>
      <trkpt lat="39.6664" lon="-0.62531">
        <ele>194.1868</ele>
        <time>2021-07-20T15:53:26Z</time>
      </trkpt>
      <trkpt lat="39.66825" lon="-0.62716">
        <ele>191.1103</ele>
        <time>2021-07-20T15:53:37Z</time>
      </trkpt>
      <trkpt lat="39.67003" lon="-0.62888">
        <ele>194.8352</ele>
        <time>2021-07-20T15:53:48Z</time>
      </trkpt>
      <trkpt lat="39.67215" lon="-0.63027">
        <ele>197.4569</ele>
        <time>2021-07-20T15:53:59Z</time>
      </trkpt>
      <trkpt lat="39.67416" lon="-0.63154">
        <ele>199.2942</ele>
        <time>2021-07-20T15:54:10Z</time>
      </trkpt>
      <trkpt lat="39.67657" lon="-0.63247">
        <ele>208.8498</ele>
        <time>2021-07-20T15:54:21Z</time>
      </trkpt>
      <trkpt lat="39.67905" lon="-0.63254">
        <ele>208.5958</ele>
        <time>2021-07-20T15:54:32Z</time>
      </trkpt>
      <trkpt lat="39.68091" lon="-0.63421">
        <ele>207.6391</ele>
        <time>2021-07-20T15:54:43Z</time>
      </trkpt>
      <trkpt lat="39.68319" lon="-0.63512">
        <ele>211.2907</ele>
        <time>2021-07-20T15:54:54Z</time>
      </trkpt>
      <trkpt lat="39.68534" lon="-0.63614">
        <ele>214.5539</ele>
        <time>2021-07-20T15:55:05Z</time>
      </trkpt>
      <trkpt lat="39.68709" lon="-0.63807">
        <ele>221.4889</ele>
        <time>2021-07-20T15:55:16Z</time>
      </trkpt>
      <trkpt lat="39.68866" lon="-0.64038">
        <ele>228.2131</ele>
        <time>2021-07-20T15:55:27Z</time>
      </trkpt>
      <trkpt lat="39.69021" lon="-0.64233">
        <ele>234.6362</ele>
        <time>2021-07-20T15:55:38Z</time>
      </trkpt>
      <trkpt lat="39.69209" lon="-0.64414">
        <ele>242.616</ele>
        <time>2021-07-20T15:55:49Z</time>
      </trkpt>
      <trkpt lat="39.69425" lon="-0.64591">
        <ele>246.409</ele>
        <time>2021-07-20T15:56:00Z</time>
      </trkpt>
      <trkpt lat="39.69655" lon="-0.64703">
        <ele>247.8057</ele>
        <time>2021-07-20T15:56:11Z</time>
      </trkpt>
      <trkpt lat="39.69848" lon="-0.649">
        <ele>250.4067</ele>
        <time>2021-07-20T15:56:22Z</time>
      </trkpt>
      <trkpt lat="39.70049" lon="-0.6507">
        <ele>253.736</ele>
        <time>2021-07-20T15:56:33Z</time>
      </trkpt>
      <trkpt lat="39.70271" lon="-0.65189">
        <ele>261.0703</ele>
        <time>2021-07-20T15:56:44Z</time>
      </trkpt>
      <trkpt lat="39.70473" lon="-0.65334">
        <ele>269.4087</ele>
        <time>2021-07-20T15:56:55Z</time>
      </trkpt>
      <trkpt lat="39.7066" lon="-0.6549">
        <ele>276.2555</ele>
        <time>2021-07-20T15:57:06Z</time>
      </trkpt>
      <trkpt lat="39.70826" lon="-0.65691">
        <ele>286.202</ele>
        <time>2021-07-20T15:57:17Z</time>
      </trkpt>
      <trkpt lat="39.71019" lon="-0.65839">
        <ele>296.6638</ele>
        <time>2021-07-20T15:57:28Z</time>
      </trkpt>
      <trkpt lat="39.71202" lon="-0.65971">
        <ele>302.7791</ele>
        <time>2021-07-20T15:57:39Z</time>
      </trkpt>
      <trkpt lat="39.71412" lon="-0.66117">
        <ele>310.3262</ele>
        <time>2021-07-20T15:57:50Z</time>
      </trkpt>
      <trkpt lat="39.71596" lon="-0.66346">
        <ele>317.6673</ele>
        <time>2021-07-20T15:58:01Z</time>
      </trkpt>
      <trkpt lat="39.71779" lon="-0.66506">
        <ele>322.8883</ele>
        <time>2021-07-20T15:58:12Z</time>
      </trkpt>
      <trkpt lat="39.72001" lon="-0.66593">
        <ele>329.7467</ele>
        <time>2021-07-20T15:58:23Z</time>
      </trkpt>
      <trkpt lat="39.72226" lon="-0.66677">
        <ele>336.1959</ele>
        <time>2021-07-20T15:58:34Z</time>
      </trkpt>
      <trkpt lat="39.72442" lon="-0.66844">
        <ele>344.7415</ele>
        <time>2021-07-20T15:58:45Z</time>
      </trkpt>
      <trkpt lat="39.72651" lon="-0.67024">
        <ele>355.8156</ele>
        <time>2021-07-20T15:58:56Z</time>
      </trkpt>
      <trkpt lat="39.72857" lon="-0.67188">
        <ele>362.8586</ele>
        <time>2021-07-20T15:59:07Z</time>
      </trkpt>
      <trkpt lat="39.73032" lon="-0.67357">
        <ele>369.0761</ele>
        <time>2021-07-20T15:59:18Z</time>
      </trkpt>
      <trkpt lat="39.73139" lon="-0.67573">
        <ele>375.0782</ele>
        <time>2021-07-20T15:59:29Z</time>
      </trkpt>
      <trkpt lat="39.73333" lon="-0.67611">
        <ele>382.4238</ele>
        <time>2021-07-20T15:59:40Z</time>
      </trkpt>
      <trkpt lat="39.73529" lon="-0.67645">
        <ele>389.2068</ele>
        <time>2021-07-20T15:59:51Z</time>
      </trkpt>
      <trkpt lat="39.73752" lon="-0.67681">
        <ele>398.0668</ele>
        <time>2021-07-20T16:00:02Z</time>
      </trkpt>
      <trkpt lat="39.73932" lon="-0.67822">
        <ele>404.62</ele>
        <time>2021-07-20T16:00:13Z</time>
      </trkpt>
      <trkpt lat="39.74109" lon="-0.67952">
        <ele>412.5974</ele>
        <time>2021-07-20T16:00:24Z</time>
      </trkpt>
      <trkpt lat="39.74296" lon="-0.68071">
        <ele>422.1475</ele>
        <time>2021-07-20T16:00:35Z</time>
      </trkpt>
      <trkpt lat="39.74444" lon="-0.68282">
        <ele>432.5369</ele>
        <time>2021-07-20T16:00:46Z</time>
      </trkpt>
      <trkpt lat="39.74658" lon="-0.68365">
        <ele>445.0548</ele>
        <time>2021-07-20T16:00:57Z</time>
      </trkpt>
      <trkpt lat="39.74849" lon="-0.68464">
        <ele>458.9569</ele>
        <time>2021-07-20T16:01:08Z</time>
      </trkpt>
      <trkpt lat="39.75006" lon="-0.68536">
        <ele>464.9847</ele>
        <time>2021-07-20T16:01:19Z</time>
      </trkpt>
      <trkpt lat="39.75051" lon="-0.68659">
        <ele>468.741</ele>
        <time>2021-07-20T16:01:30Z</time>
      </trkpt>
      <trkpt lat="39.75061" lon="-0.68891">
        <ele>471.8671</ele>
        <time>2021-07-20T16:01:41Z</time>
      </trkpt>
      <trkpt lat="39.75043" lon="-0.69129">
        <ele>471.2006</ele>
        <time>2021-07-20T16:01:52Z</time>
      </trkpt>
      <trkpt lat="39.74953" lon="-0.69355">
        <ele>470.8273</ele>
        <time>2021-07-20T16:02:03Z</time>
      </trkpt>
      <trkpt lat="39.74872" lon="-0.69586">
        <ele>484.7872</ele>
        <time>2021-07-20T16:02:14Z</time>
      </trkpt>
      <trkpt lat="39.74831" lon="-0.6989">
        <ele>499.9798</ele>
        <time>2021-07-20T16:02:25Z</time>
      </trkpt>
      <trkpt lat="39.74847" lon="-0.7013">
        <ele>515.8093</ele>
        <time>2021-07-20T16:02:36Z</time>
      </trkpt>
      <trkpt lat="39.74931" lon="-0.70344">
        <ele>537.6439</ele>
        <time>2021-07-20T16:02:47Z</time>
      </trkpt>
      <trkpt lat="39.74852" lon="-0.70526">
        <ele>551.0479</ele>
        <time>2021-07-20T16:02:58Z</time>
      </trkpt>
      <trkpt lat="39.75024" lon="-0.70513">
        <ele>574.1501</ele>
        <time>2021-07-20T16:03:09Z</time>
      </trkpt>
      <trkpt lat="39.75076" lon="-0.70452">
        <ele>577.5359</ele>
        <time>2021-07-20T16:03:20Z</time>
      </trkpt>
      <trkpt lat="39.75135" lon="-0.7032">
        <ele>590.0326</ele>
        <time>2021-07-20T16:03:31Z</time>
      </trkpt>
      <trkpt lat="39.75222" lon="-0.70135">
        <ele>598.2657</ele>
        <time>2021-07-20T16:03:42Z</time>
      </trkpt>
      <trkpt lat="39.75341" lon="-0.7019">
        <ele>618.5252</ele>
        <time>2021-07-20T16:03:53Z</time>
      </trkpt>
      <trkpt lat="39.75482" lon="-0.70283">
        <ele>636.4696</ele>
        <time>2021-07-20T16:04:04Z</time>
      </trkpt>
      <trkpt lat="39.75672" lon="-0.7026">
        <ele>643.3659</ele>
        <time>2021-07-20T16:04:15Z</time>
      </trkpt>
      <trkpt lat="39.75819" lon="-0.70069">
        <ele>652.4024</ele>
        <time>2021-07-20T16:04:26Z</time>
      </trkpt>
      <trkpt lat="39.75971" lon="-0.69969">
        <ele>659.647</ele>
        <time>2021-07-20T16:04:37Z</time>
      </trkpt>
      <trkpt lat="39.75979" lon="-0.69727">
        <ele>673.999</ele>
        <time>2021-07-20T16:04:48Z</time>
      </trkpt>
      <trkpt lat="39.76155" lon="-0.69626">
        <ele>684.4838</ele>
        <time>2021-07-20T16:04:59Z</time>
      </trkpt>
      <trkpt lat="39.76212" lon="-0.69872">
        <ele>695.6144</ele>
        <time>2021-07-20T16:05:10Z</time>
      </trkpt>
      <trkpt lat="39.76357" lon="-0.69912">
        <ele>703.8564</ele>
        <time>2021-07-20T16:05:21Z</time>
      </trkpt>
      <trkpt lat="39.76448" lon="-0.70103">
        <ele>711.5517</ele>
        <time>2021-07-20T16:05:32Z</time>
      </trkpt>
      <trkpt lat="39.76599" lon="-0.70042">
        <ele>718.1957</ele>
        <time>2021-07-20T16:05:43Z</time>
      </trkpt>
      <trkpt lat="39.76827" lon="-0.70104">
        <ele>720.1578</ele>
        <time>2021-07-20T16:05:54Z</time>
      </trkpt>
      <trkpt lat="39.77018" lon="-0.70035">
        <ele>729.6795</ele>
        <time>2021-07-20T16:06:05Z</time>
      </trkpt>
      <trkpt lat="39.77208" lon="-0.70086">
        <ele>733.341</ele>
        <time>2021-07-20T16:06:16Z</time>
      </trkpt>
      <trkpt lat="39.77352" lon="-0.69973">
        <ele>745.1072</ele>
        <time>2021-07-20T16:06:27Z</time>
      </trkpt>
      <trkpt lat="39.77554" lon="-0.69992">
        <ele>749.243</ele>
        <time>2021-07-20T16:06:38Z</time>
      </trkpt>
      <trkpt lat="39.77778" lon="-0.7009">
        <ele>744.0335</ele>
        <time>2021-07-20T16:06:49Z</time>
      </trkpt>
      <trkpt lat="39.78014" lon="-0.70115">
        <ele>738.6133</ele>
        <time>2021-07-20T16:07:00Z</time>
      </trkpt>
      <trkpt lat="39.78275" lon="-0.7017">
        <ele>735.7401</ele>
        <time>2021-07-20T16:07:11Z</time>
      </trkpt>
      <trkpt lat="39.78531" lon="-0.70157">
        <ele>733.0277</ele>
        <time>2021-07-20T16:07:22Z</time>
      </trkpt>
      <trkpt lat="39.78788" lon="-0.70124">
        <ele>733.934</ele>
        <time>2021-07-20T16:07:33Z</time>
      </trkpt>
      <trkpt lat="39.79072" lon="-0.70117">
        <ele>740.447</ele>
        <time>2021-07-20T16:07:44Z</time>
      </trkpt>
      <trkpt lat="39.79306" lon="-0.70125">
        <ele>748.3925</ele>
        <time>2021-07-20T16:07:55Z</time>
      </trkpt>
      <trkpt lat="39.7945" lon="-0.70142">
        <ele>756.7996</ele>
        <time>2021-07-20T16:08:07Z</time>
      </trkpt>
      <trkpt lat="39.79552" lon="-0.70166">
        <ele>767.8353</ele>
        <time>2021-07-20T16:08:18Z</time>
      </trkpt>
      <trkpt lat="39.79621" lon="-0.7017">
        <ele>782.6123</ele>
        <time>2021-07-20T16:08:29Z</time>
      </trkpt>
      <trkpt lat="39.79676" lon="-0.70136">
        <ele>801.1588</ele>
        <time>2021-07-20T16:08:40Z</time>
      </trkpt>
      <trkpt lat="39.79736" lon="-0.70113">
        <ele>783.0631</ele>
        <time>2021-07-20T16:08:51Z</time>
      </trkpt>
      <trkpt lat="39.79749" lon="-0.69984">
        <ele>771.9459</ele>
        <time>2021-07-20T16:09:02Z</time>
      </trkpt>
      <trkpt lat="39.79794" lon="-0.69886">
        <ele>760.6761</ele>
        <time>2021-07-20T16:09:13Z</time>
      </trkpt>
      <trkpt lat="39.79835" lon="-0.69888">
        <ele>764.2214</ele>
        <time>2021-07-20T16:09:24Z</time>
      </trkpt>
      <trkpt lat="39.7979" lon="-0.69822">
        <ele>768.1724</ele>
        <time>2021-07-20T16:09:35Z</time>
      </trkpt>
      <trkpt lat="39.79737" lon="-0.69797">
        <ele>774.7124</ele>
        <time>2021-07-20T16:09:46Z</time>
      </trkpt>
      <trkpt lat="39.79748" lon="-0.69818">
        <ele>766.4313</ele>
        <time>2021-07-20T16:09:57Z</time>
      </trkpt>
      <trkpt lat="39.79821" lon="-0.69835">
        <ele>759.6085</ele>
        <time>2021-07-20T16:10:08Z</time>
      </trkpt>
      <trkpt lat="39.79843" lon="-0.69892">
        <ele>758.1242</ele>
        <time>2021-07-20T16:10:19Z</time>
      </trkpt>
      <trkpt lat="39.79914" lon="-0.69862">
        <ele>769.0903</ele>
        <time>2021-07-20T16:10:30Z</time>
      </trkpt>
      <trkpt lat="39.80045" lon="-0.69785">
        <ele>775.5621</ele>
        <time>2021-07-20T16:10:41Z</time>
      </trkpt>
      <trkpt lat="39.80158" lon="-0.69642">
        <ele>779.1696</ele>
        <time>2021-07-20T16:10:52Z</time>
      </trkpt>
      <trkpt lat="39.80272" lon="-0.69531">
        <ele>793.0036</ele>
        <time>2021-07-20T16:11:03Z</time>
      </trkpt>
      <trkpt lat="39.80337" lon="-0.69464">
        <ele>797.6879</ele>
        <time>2021-07-20T16:11:14Z</time>
      </trkpt>
      <trkpt lat="39.80453" lon="-0.69284">
        <ele>802.2696</ele>
        <time>2021-07-20T16:11:25Z</time>
      </trkpt>
      <trkpt lat="39.80524" lon="-0.69052">
        <ele>813.6244</ele>
        <time>2021-07-20T16:11:36Z</time>
      </trkpt>
      <trkpt lat="39.80655" lon="-0.68807">
        <ele>816.9729</ele>
        <time>2021-07-20T16:11:47Z</time>
      </trkpt>
      <trkpt lat="39.80819" lon="-0.68577">
        <ele>827.0876</ele>
        <time>2021-07-20T16:11:58Z</time>
      </trkpt>
      <trkpt lat="39.80937" lon="-0.68387">
        <ele>830.8017</ele>
        <time>2021-07-20T16:12:09Z</time>
      </trkpt>
      <trkpt lat="39.81033" lon="-0.68336">
        <ele>833.1674</ele>
        <time>2021-07-20T16:12:20Z</time>
      </trkpt>
      <trkpt lat="39.81216" lon="-0.68257">
        <ele>836.527</ele>
        <time>2021-07-20T16:12:31Z</time>
      </trkpt>
      <trkpt lat="39.81474" lon="-0.68161">
        <ele>840.7765</ele>
        <time>2021-07-20T16:12:42Z</time>
      </trkpt>
      <trkpt lat="39.81728" lon="-0.68126">
        <ele>845.3963</ele>
        <time>2021-07-20T16:12:53Z</time>
      </trkpt>
      <trkpt lat="39.81954" lon="-0.68154">
        <ele>850.3041</ele>
        <time>2021-07-20T16:13:04Z</time>
      </trkpt>
      <trkpt lat="39.82129" lon="-0.68288">
        <ele>855.5551</ele>
        <time>2021-07-20T16:13:15Z</time>
      </trkpt>
      <trkpt lat="39.82339" lon="-0.68445">
        <ele>862.917</ele>
        <time>2021-07-20T16:13:26Z</time>
      </trkpt>
      <trkpt lat="39.82571" lon="-0.68619">
        <ele>874.9743</ele>
        <time>2021-07-20T16:13:37Z</time>
      </trkpt>
      <trkpt lat="39.82782" lon="-0.68777">
        <ele>891.3195</ele>
        <time>2021-07-20T16:13:48Z</time>
      </trkpt>
      <trkpt lat="39.82992" lon="-0.68905">
        <ele>904.6451</ele>
        <time>2021-07-20T16:13:59Z</time>
      </trkpt>
      <trkpt lat="39.83178" lon="-0.69058">
        <ele>920.5917</ele>
        <time>2021-07-20T16:14:10Z</time>
      </trkpt>
      <trkpt lat="39.8331" lon="-0.69138">
        <ele>927.6473</ele>
        <time>2021-07-20T16:14:21Z</time>
      </trkpt>
      <trkpt lat="39.83451" lon="-0.69196">
        <ele>936.6056</ele>
        <time>2021-07-20T16:14:32Z</time>
      </trkpt>
      <trkpt lat="39.83654" lon="-0.69232">
        <ele>939.8407</ele>
        <time>2021-07-20T16:14:43Z</time>
      </trkpt>
      <trkpt lat="39.8377" lon="-0.69129">
        <ele>951.3467</ele>
        <time>2021-07-20T16:14:54Z</time>
      </trkpt>
      <trkpt lat="39.83821" lon="-0.69142">
        <ele>958.1301</ele>
        <time>2021-07-20T16:15:05Z</time>
      </trkpt>
      <trkpt lat="39.83935" lon="-0.69307">
        <ele>977.3974</ele>
        <time>2021-07-20T16:15:16Z</time>
      </trkpt>
      <trkpt lat="39.84082" lon="-0.69449">
        <ele>979.3251</ele>
        <time>2021-07-20T16:15:27Z</time>
      </trkpt>
      <trkpt lat="39.84231" lon="-0.69647">
        <ele>972.2229</ele>
        <time>2021-07-20T16:15:38Z</time>
      </trkpt>
      <trkpt lat="39.84314" lon="-0.69951">
        <ele>975.4501</ele>
        <time>2021-07-20T16:15:49Z</time>
      </trkpt>
      <trkpt lat="39.8446" lon="-0.70141">
        <ele>988.3677</ele>
        <time>2021-07-20T16:16:00Z</time>
      </trkpt>
      <trkpt lat="39.84598" lon="-0.70258">
        <ele>985.9646</ele>
        <time>2021-07-20T16:16:11Z</time>
      </trkpt>
      <trkpt lat="39.84749" lon="-0.70408">
        <ele>996.5436</ele>
        <time>2021-07-20T16:16:22Z</time>
      </trkpt>
      <trkpt lat="39.84845" lon="-0.70622">
        <ele>996.7485</ele>
        <time>2021-07-20T16:16:33Z</time>
      </trkpt>
      <trkpt lat="39.84996" lon="-0.70785">
        <ele>981.6472</ele>
        <time>2021-07-20T16:16:44Z</time>
      </trkpt>
      <trkpt lat="39.85041" lon="-0.70962">
        <ele>973.8056</ele>
        <time>2021-07-20T16:16:55Z</time>
      </trkpt>
      <trkpt lat="39.85217" lon="-0.71127">
        <ele>987.3075</ele>
        <time>2021-07-20T16:17:06Z</time>
      </trkpt>
      <trkpt lat="39.85392" lon="-0.71305">
        <ele>992.0979</ele>
        <time>2021-07-20T16:17:17Z</time>
      </trkpt>
      <trkpt lat="39.85372" lon="-0.71509">
        <ele>997.9625</ele>
        <time>2021-07-20T16:17:28Z</time>
      </trkpt>
      <trkpt lat="39.85399" lon="-0.71683">
        <ele>993.7025</ele>
        <time>2021-07-20T16:17:39Z</time>
      </trkpt>
      <trkpt lat="39.85563" lon="-0.71655">
        <ele>996.0567</ele>
        <time>2021-07-20T16:17:50Z</time>
      </trkpt>
      <trkpt lat="39.85683" lon="-0.71698">
        <ele>992.5302</ele>
        <time>2021-07-20T16:18:01Z</time>
      </trkpt>
      <trkpt lat="39.85713" lon="-0.71543">
        <ele>1002.589</ele>
        <time>2021-07-20T16:18:12Z</time>
      </trkpt>
      <trkpt lat="39.85809" lon="-0.71453">
        <ele>1010.405</ele>
        <time>2021-07-20T16:18:23Z</time>
      </trkpt>
      <trkpt lat="39.85941" lon="-0.71389">
        <ele>1011.333</ele>
        <time>2021-07-20T16:18:34Z</time>
      </trkpt>
      <trkpt lat="39.86072" lon="-0.71317">
        <ele>1003.16</ele>
        <time>2021-07-20T16:18:45Z</time>
      </trkpt>
      <trkpt lat="39.86211" lon="-0.71463">
        <ele>987.29</ele>
        <time>2021-07-20T16:18:56Z</time>
      </trkpt>
      <trkpt lat="39.86265" lon="-0.7142">
        <ele>979.6436</ele>
        <time>2021-07-20T16:19:07Z</time>
      </trkpt>
      <trkpt lat="39.86381" lon="-0.71272">
        <ele>962.1364</ele>
        <time>2021-07-20T16:19:18Z</time>
      </trkpt>
      <trkpt lat="39.86552" lon="-0.71181">
        <ele>944.4603</ele>
        <time>2021-07-20T16:19:29Z</time>
      </trkpt>
      <trkpt lat="39.86757" lon="-0.71129">
        <ele>933.6973</ele>
        <time>2021-07-20T16:19:40Z</time>
      </trkpt>
      <trkpt lat="39.86919" lon="-0.71149">
        <ele>924.7916</ele>
        <time>2021-07-20T16:19:51Z</time>
      </trkpt>
      <trkpt lat="39.86938" lon="-0.71013">
        <ele>916.7699</ele>
        <time>2021-07-20T16:20:02Z</time>
      </trkpt>
      <trkpt lat="39.87038" lon="-0.70865">
        <ele>916.2144</ele>
        <time>2021-07-20T16:20:13Z</time>
      </trkpt>
      <trkpt lat="39.87174" lon="-0.70847">
        <ele>909.3907</ele>
        <time>2021-07-20T16:20:24Z</time>
      </trkpt>
      <trkpt lat="39.87261" lon="-0.70774">
        <ele>904.322</ele>
        <time>2021-07-20T16:20:35Z</time>
      </trkpt>
      <trkpt lat="39.87382" lon="-0.70857">
        <ele>893.663</ele>
        <time>2021-07-20T16:20:46Z</time>
      </trkpt>
      <trkpt lat="39.87506" lon="-0.7097">
        <ele>880.1123</ele>
        <time>2021-07-20T16:20:57Z</time>
      </trkpt>
      <trkpt lat="39.87564" lon="-0.71059">
        <ele>879.4637</ele>
        <time>2021-07-20T16:21:08Z</time>
      </trkpt>
      <trkpt lat="39.87659" lon="-0.70928">
        <ele>889.832</ele>
        <time>2021-07-20T16:21:19Z</time>
      </trkpt>
      <trkpt lat="39.87778" lon="-0.70799">
        <ele>896.6812</ele>
        <time>2021-07-20T16:21:30Z</time>
      </trkpt>
      <trkpt lat="39.87875" lon="-0.70919">
        <ele>894.5214</ele>
        <time>2021-07-20T16:21:41Z</time>
      </trkpt>
      <trkpt lat="39.88006" lon="-0.71063">
        <ele>884.6528</ele>
        <time>2021-07-20T16:21:52Z</time>
      </trkpt>
      <trkpt lat="39.8806" lon="-0.71288">
        <ele>885.1955</ele>
        <time>2021-07-20T16:22:03Z</time>
      </trkpt>
      <trkpt lat="39.88188" lon="-0.71367">
        <ele>888.2002</ele>
        <time>2021-07-20T16:22:14Z</time>
      </trkpt>
      <trkpt lat="39.8837" lon="-0.71306">
        <ele>887.5521</ele>
        <time>2021-07-20T16:22:25Z</time>
      </trkpt>
      <trkpt lat="39.88436" lon="-0.71137">
        <ele>885.6533</ele>
        <time>2021-07-20T16:22:36Z</time>
      </trkpt>
      <trkpt lat="39.88598" lon="-0.71137">
        <ele>885.5685</ele>
        <time>2021-07-20T16:22:47Z</time>
      </trkpt>
      <trkpt lat="39.8877" lon="-0.71096">
        <ele>879.3693</ele>
        <time>2021-07-20T16:22:58Z</time>
      </trkpt>
      <trkpt lat="39.88948" lon="-0.71241">
        <ele>866.2003</ele>
        <time>2021-07-20T16:23:09Z</time>
      </trkpt>
      <trkpt lat="39.89148" lon="-0.71331">
        <ele>849.8058</ele>
        <time>2021-07-20T16:23:20Z</time>
      </trkpt>
      <trkpt lat="39.89285" lon="-0.71306">
        <ele>832.8592</ele>
        <time>2021-07-20T16:23:31Z</time>
      </trkpt>
      <trkpt lat="39.89468" lon="-0.71307">
        <ele>815.8965</ele>
        <time>2021-07-20T16:23:42Z</time>
      </trkpt>
      <trkpt lat="39.89627" lon="-0.71155">
        <ele>792.2536</ele>
        <time>2021-07-20T16:23:53Z</time>
      </trkpt>
      <trkpt lat="39.89672" lon="-0.71032">
        <ele>766.2472</ele>
        <time>2021-07-20T16:24:04Z</time>
      </trkpt>
      <trkpt lat="39.89676" lon="-0.71024">
        <ele>770.4559</ele>
        <time>2021-07-20T16:24:15Z</time>
      </trkpt>
      <trkpt lat="39.89676" lon="-0.71023">
        <ele>772.5184</ele>
        <time>2021-07-20T16:25:15Z</time>
      </trkpt>
      <trkpt lat="39.89676" lon="-0.71022">
        <ele>783.8761</ele>
        <time>2021-07-20T16:26:14Z</time>
      </trkpt>
      <trkpt lat="39.89678" lon="-0.71022">
        <ele>780.728</ele>
        <time>2021-07-20T16:27:14Z</time>
      </trkpt>
      <trkpt lat="39.89677" lon="-0.71021">
        <ele>785.5153</ele>
        <time>2021-07-20T16:28:13Z</time>
      </trkpt>
      <trkpt lat="39.89677" lon="-0.71021">
        <ele>784.8342</ele>
        <time>2021-07-20T16:29:12Z</time>
      </trkpt>
      <trkpt lat="39.89677" lon="-0.71021">
        <ele>785.7648</ele>
        <time>2021-07-20T16:30:11Z</time>
      </trkpt>
      <trkpt lat="39.89676" lon="-0.71022">
        <ele>782.3807</ele>
        <time>2021-07-20T16:31:09Z</time>
      </trkpt>
      <trkpt lat="39.89676" lon="-0.71022">
        <ele>781.3204</ele>
        <time>2021-07-20T16:32:08Z</time>
      </trkpt>
      <trkpt lat="39.89676" lon="-0.71022">
        <ele>782.3477</ele>
        <time>2021-07-20T16:33:07Z</time>
      </trkpt>
      <trkpt lat="39.89676" lon="-0.71024">
        <ele>783.3437</ele>
        <time>2021-07-20T16:34:06Z</time>
      </trkpt>
      <trkpt lat="39.89676" lon="-0.71023">
        <ele>787.216</ele>
        <time>2021-07-20T16:35:05Z</time>
      </trkpt>
      <trkpt lat="39.89677" lon="-0.71021">
        <ele>790.7906</ele>
        <time>2021-07-20T16:36:04Z</time>
      </trkpt>
      <trkpt lat="39.89676" lon="-0.71024">
        <ele>785.2039</ele>
        <time>2021-07-20T16:37:02Z</time>
      </trkpt>
      <trkpt lat="39.89677" lon="-0.71021">
        <ele>789.4506</ele>
        <time>2021-07-20T16:38:00Z</time>
      </trkpt>
      <trkpt lat="39.89675" lon="-0.71026">
        <ele>788.0959</ele>
        <time>2021-07-20T16:38:53Z</time>
      </trkpt>
      <trkpt lat="39.89677" lon="-0.71021">
        <ele>787.3045</ele>
        <time>2021-07-20T16:39:42Z</time>
      </trkpt>
      <trkpt lat="39.89688" lon="-0.71026">
        <ele>788.4798</ele>
        <time>2021-07-20T16:40:01Z</time>
      </trkpt>
      <trkpt lat="39.89688" lon="-0.71029">
        <ele>782.8475</ele>
        <time>2021-07-20T16:41:00Z</time>
      </trkpt>
      <trkpt lat="39.89688" lon="-0.71029">
        <ele>783.8296</ele>
        <time>2021-07-20T16:42:00Z</time>
      </trkpt>
      <trkpt lat="39.89688" lon="-0.71024">
        <ele>783.9144</ele>
        <time>2021-07-20T16:42:39Z</time>
      </trkpt>
      <trkpt lat="39.89701" lon="-0.70978">
        <ele>783.0536</ele>
        <time>2021-07-20T16:42:50Z</time>
      </trkpt>
      <trkpt lat="39.89798" lon="-0.70797">
        <ele>766.4245</ele>
        <time>2021-07-20T16:43:01Z</time>
      </trkpt>
      <trkpt lat="39.89854" lon="-0.70659">
        <ele>752.3755</ele>
        <time>2021-07-20T16:43:12Z</time>
      </trkpt>
      <trkpt lat="39.9005" lon="-0.7057">
        <ele>733.1754</ele>
        <time>2021-07-20T16:43:23Z</time>
      </trkpt>
      <trkpt lat="39.90112" lon="-0.70411">
        <ele>714.4392</ele>
        <time>2021-07-20T16:43:34Z</time>
      </trkpt>
      <trkpt lat="39.9026" lon="-0.70454">
        <ele>692.4586</ele>
        <time>2021-07-20T16:43:45Z</time>
      </trkpt>
      <trkpt lat="39.90313" lon="-0.70275">
        <ele>685.2462</ele>
        <time>2021-07-20T16:43:56Z</time>
      </trkpt>
      <trkpt lat="39.90396" lon="-0.70112">
        <ele>684.3092</ele>
        <time>2021-07-20T16:44:07Z</time>
      </trkpt>
      <trkpt lat="39.90475" lon="-0.70101">
        <ele>689.4823</ele>
        <time>2021-07-20T16:44:18Z</time>
      </trkpt>
      <trkpt lat="39.90581" lon="-0.70139">
        <ele>695.4118</ele>
        <time>2021-07-20T16:44:29Z</time>
      </trkpt>
      <trkpt lat="39.90495" lon="-0.70211">
        <ele>704.537</ele>
        <time>2021-07-20T16:44:40Z</time>
      </trkpt>
      <trkpt lat="39.905" lon="-0.7043">
        <ele>713.5216</ele>
        <time>2021-07-20T16:44:51Z</time>
      </trkpt>
      <trkpt lat="39.90596" lon="-0.70497">
        <ele>720.6924</ele>
        <time>2021-07-20T16:45:02Z</time>
      </trkpt>
      <trkpt lat="39.90571" lon="-0.70349">
        <ele>726.1623</ele>
        <time>2021-07-20T16:45:13Z</time>
      </trkpt>
      <trkpt lat="39.90712" lon="-0.70302">
        <ele>735.9321</ele>
        <time>2021-07-20T16:45:24Z</time>
      </trkpt>
      <trkpt lat="39.90687" lon="-0.70347">
        <ele>742.9448</ele>
        <time>2021-07-20T16:45:35Z</time>
      </trkpt>
      <trkpt lat="39.9072" lon="-0.70372">
        <ele>751.6759</ele>
        <time>2021-07-20T16:45:46Z</time>
      </trkpt>
      <trkpt lat="39.90879" lon="-0.70323">
        <ele>756.5989</ele>
        <time>2021-07-20T16:45:57Z</time>
      </trkpt>
      <trkpt lat="39.91029" lon="-0.70316">
        <ele>763.9498</ele>
        <time>2021-07-20T16:46:08Z</time>
      </trkpt>
      <trkpt lat="39.9111" lon="-0.70348">
        <ele>768.8336</ele>
        <time>2021-07-20T16:46:19Z</time>
      </trkpt>
      <trkpt lat="39.91151" lon="-0.70292">
        <ele>762.0917</ele>
        <time>2021-07-20T16:46:30Z</time>
      </trkpt>
      <trkpt lat="39.91141" lon="-0.70463">
        <ele>751.0854</ele>
        <time>2021-07-20T16:46:41Z</time>
      </trkpt>
      <trkpt lat="39.91124" lon="-0.70592">
        <ele>747.2456</ele>
        <time>2021-07-20T16:46:52Z</time>
      </trkpt>
      <trkpt lat="39.91142" lon="-0.70532">
        <ele>745.5959</ele>
        <time>2021-07-20T16:47:03Z</time>
      </trkpt>
      <trkpt lat="39.91211" lon="-0.70315">
        <ele>757.9527</ele>
        <time>2021-07-20T16:47:14Z</time>
      </trkpt>
      <trkpt lat="39.91132" lon="-0.70253">
        <ele>761.6267</ele>
        <time>2021-07-20T16:47:25Z</time>
      </trkpt>
      <trkpt lat="39.91133" lon="-0.70248">
        <ele>760.5302</ele>
        <time>2021-07-20T16:47:36Z</time>
      </trkpt>
      <trkpt lat="39.91139" lon="-0.70248">
        <ele>761.1149</ele>
        <time>2021-07-20T16:47:47Z</time>
      </trkpt>
      <trkpt lat="39.91135" lon="-0.70248">
        <ele>763.4104</ele>
        <time>2021-07-20T16:48:06Z</time>
      </trkpt>
      <trkpt lat="39.91132" lon="-0.70247">
        <ele>762.3291</ele>
        <time>2021-07-20T16:48:54Z</time>
      </trkpt>
      <trkpt lat="39.91164" lon="-0.70318">
        <ele>757.1516</ele>
        <time>2021-07-20T16:49:05Z</time>
      </trkpt>
      <trkpt lat="39.91133" lon="-0.70519">
        <ele>746.8875</ele>
        <time>2021-07-20T16:49:16Z</time>
      </trkpt>
      <trkpt lat="39.9114" lon="-0.70592">
        <ele>740.935</ele>
        <time>2021-07-20T16:49:27Z</time>
      </trkpt>
      <trkpt lat="39.91141" lon="-0.7059">
        <ele>740.9781</ele>
        <time>2021-07-20T16:50:26Z</time>
      </trkpt>
      <trkpt lat="39.91141" lon="-0.70592">
        <ele>741.1266</ele>
        <time>2021-07-20T16:51:25Z</time>
      </trkpt>
      <trkpt lat="39.9114" lon="-0.70591">
        <ele>741.3896</ele>
        <time>2021-07-20T16:52:25Z</time>
      </trkpt>
      <trkpt lat="39.9114" lon="-0.70591">
        <ele>741.2453</ele>
        <time>2021-07-20T16:53:24Z</time>
      </trkpt>
      <trkpt lat="39.9114" lon="-0.70601">
        <ele>740.2668</ele>
        <time>2021-07-20T16:53:43Z</time>
      </trkpt>
      <trkpt lat="39.91136" lon="-0.70802">
        <ele>730.4534</ele>
        <time>2021-07-20T16:53:54Z</time>
      </trkpt>
      <trkpt lat="39.91148" lon="-0.71056">
        <ele>721.6855</ele>
        <time>2021-07-20T16:54:05Z</time>
      </trkpt>
      <trkpt lat="39.91286" lon="-0.71148">
        <ele>705.8638</ele>
        <time>2021-07-20T16:54:16Z</time>
      </trkpt>
      <trkpt lat="39.91316" lon="-0.70946">
        <ele>717.5767</ele>
        <time>2021-07-20T16:54:27Z</time>
      </trkpt>
      <trkpt lat="39.91428" lon="-0.70729">
        <ele>719.8117</ele>
        <time>2021-07-20T16:54:38Z</time>
      </trkpt>
      <trkpt lat="39.91518" lon="-0.7054">
        <ele>737.2866</ele>
        <time>2021-07-20T16:54:49Z</time>
      </trkpt>
      <trkpt lat="39.91523" lon="-0.70267">
        <ele>746.0665</ele>
        <time>2021-07-20T16:55:00Z</time>
      </trkpt>
      <trkpt lat="39.91598" lon="-0.70061">
        <ele>758.6207</ele>
        <time>2021-07-20T16:55:11Z</time>
      </trkpt>
      <trkpt lat="39.91475" lon="-0.69883">
        <ele>774.7943</ele>
        <time>2021-07-20T16:55:22Z</time>
      </trkpt>
      <trkpt lat="39.91458" lon="-0.69684">
        <ele>779.8039</ele>
        <time>2021-07-20T16:55:33Z</time>
      </trkpt>
      <trkpt lat="39.91637" lon="-0.6981">
        <ele>792.6773</ele>
        <time>2021-07-20T16:55:44Z</time>
      </trkpt>
      <trkpt lat="39.91842" lon="-0.69795">
        <ele>808.9551</ele>
        <time>2021-07-20T16:55:55Z</time>
      </trkpt>
      <trkpt lat="39.91989" lon="-0.69792">
        <ele>819.9852</ele>
        <time>2021-07-20T16:56:06Z</time>
      </trkpt>
      <trkpt lat="39.92039" lon="-0.69849">
        <ele>827.4459</ele>
        <time>2021-07-20T16:56:17Z</time>
      </trkpt>
      <trkpt lat="39.92099" lon="-0.70002">
        <ele>839.6677</ele>
        <time>2021-07-20T16:56:28Z</time>
      </trkpt>
      <trkpt lat="39.92221" lon="-0.69984">
        <ele>849.0863</ele>
        <time>2021-07-20T16:56:39Z</time>
      </trkpt>
      <trkpt lat="39.9234" lon="-0.69782">
        <ele>851.8586</ele>
        <time>2021-07-20T16:56:50Z</time>
      </trkpt>
      <trkpt lat="39.92529" lon="-0.69696">
        <ele>862.2388</ele>
        <time>2021-07-20T16:57:01Z</time>
      </trkpt>
      <trkpt lat="39.92716" lon="-0.69578">
        <ele>869.3663</ele>
        <time>2021-07-20T16:57:12Z</time>
      </trkpt>
      <trkpt lat="39.9289" lon="-0.69495">
        <ele>876.4211</ele>
        <time>2021-07-20T16:57:23Z</time>
      </trkpt>
      <trkpt lat="39.93064" lon="-0.69369">
        <ele>881.0988</ele>
        <time>2021-07-20T16:57:34Z</time>
      </trkpt>
      <trkpt lat="39.93269" lon="-0.69227">
        <ele>887.4854</ele>
        <time>2021-07-20T16:57:45Z</time>
      </trkpt>
      <trkpt lat="39.93527" lon="-0.69133">
        <ele>894.7326</ele>
        <time>2021-07-20T16:57:56Z</time>
      </trkpt>
      <trkpt lat="39.93752" lon="-0.69055">
        <ele>903.2839</ele>
        <time>2021-07-20T16:58:07Z</time>
      </trkpt>
      <trkpt lat="39.93911" lon="-0.69089">
        <ele>911.6355</ele>
        <time>2021-07-20T16:58:18Z</time>
      </trkpt>
      <trkpt lat="39.94042" lon="-0.69261">
        <ele>921.2784</ele>
        <time>2021-07-20T16:58:30Z</time>
      </trkpt>
      <trkpt lat="39.94191" lon="-0.69407">
        <ele>935.5656</ele>
        <time>2021-07-20T16:58:41Z</time>
      </trkpt>
      <trkpt lat="39.94393" lon="-0.69455">
        <ele>943.5622</ele>
        <time>2021-07-20T16:58:52Z</time>
      </trkpt>
      <trkpt lat="39.94615" lon="-0.69558">
        <ele>951.2291</ele>
        <time>2021-07-20T16:59:03Z</time>
      </trkpt>
      <trkpt lat="39.94831" lon="-0.69693">
        <ele>960.5471</ele>
        <time>2021-07-20T16:59:14Z</time>
      </trkpt>
      <trkpt lat="39.95014" lon="-0.69796">
        <ele>963.1389</ele>
        <time>2021-07-20T16:59:25Z</time>
      </trkpt>
      <trkpt lat="39.95171" lon="-0.69738">
        <ele>977.0469</ele>
        <time>2021-07-20T16:59:36Z</time>
      </trkpt>
      <trkpt lat="39.9535" lon="-0.69722">
        <ele>977.2194</ele>
        <time>2021-07-20T16:59:47Z</time>
      </trkpt>
      <trkpt lat="39.95594" lon="-0.69716">
        <ele>978.0418</ele>
        <time>2021-07-20T16:59:58Z</time>
      </trkpt>
      <trkpt lat="39.95871" lon="-0.69688">
        <ele>979.3332</ele>
        <time>2021-07-20T17:00:09Z</time>
      </trkpt>
      <trkpt lat="39.96131" lon="-0.69601">
        <ele>983.0322</ele>
        <time>2021-07-20T17:00:20Z</time>
      </trkpt>
      <trkpt lat="39.96366" lon="-0.69509">
        <ele>986.7675</ele>
        <time>2021-07-20T17:00:31Z</time>
      </trkpt>
      <trkpt lat="39.9656" lon="-0.69496">
        <ele>986.2996</ele>
        <time>2021-07-20T17:00:42Z</time>
      </trkpt>
      <trkpt lat="39.96819" lon="-0.69518">
        <ele>980.3884</ele>
        <time>2021-07-20T17:00:54Z</time>
      </trkpt>
      <trkpt lat="39.97086" lon="-0.69536">
        <ele>974.7053</ele>
        <time>2021-07-20T17:01:05Z</time>
      </trkpt>
      <trkpt lat="39.97366" lon="-0.69542">
        <ele>971.6073</ele>
        <time>2021-07-20T17:01:16Z</time>
      </trkpt>
      <trkpt lat="39.9762" lon="-0.69575">
        <ele>971.4673</ele>
        <time>2021-07-20T17:01:27Z</time>
      </trkpt>
      <trkpt lat="39.97856" lon="-0.6956">
        <ele>972.0522</ele>
        <time>2021-07-20T17:01:38Z</time>
      </trkpt>
      <trkpt lat="39.98132" lon="-0.69589">
        <ele>972.2292</ele>
        <time>2021-07-20T17:01:49Z</time>
      </trkpt>
      <trkpt lat="39.98395" lon="-0.69634">
        <ele>971.7029</ele>
        <time>2021-07-20T17:02:00Z</time>
      </trkpt>
      <trkpt lat="39.98622" lon="-0.69724">
        <ele>971.3749</ele>
        <time>2021-07-20T17:02:11Z</time>
      </trkpt>
      <trkpt lat="39.98857" lon="-0.69722">
        <ele>973.0666</ele>
        <time>2021-07-20T17:02:22Z</time>
      </trkpt>
      <trkpt lat="39.99025" lon="-0.69722">
        <ele>975.046</ele>
        <time>2021-07-20T17:02:33Z</time>
      </trkpt>
      <trkpt lat="39.99224" lon="-0.69751">
        <ele>977.0348</ele>
        <time>2021-07-20T17:02:44Z</time>
      </trkpt>
      <trkpt lat="39.99458" lon="-0.69759">
        <ele>978.0725</ele>
        <time>2021-07-20T17:02:55Z</time>
      </trkpt>
      <trkpt lat="39.99726" lon="-0.69807">
        <ele>979.8181</ele>
        <time>2021-07-20T17:03:06Z</time>
      </trkpt>
      <trkpt lat="39.99945" lon="-0.69758">
        <ele>983.1817</ele>
        <time>2021-07-20T17:03:17Z</time>
      </trkpt>
      <trkpt lat="40.00193" lon="-0.69746">
        <ele>986.6533</ele>
        <time>2021-07-20T17:03:28Z</time>
      </trkpt>
      <trkpt lat="40.00414" lon="-0.69702">
        <ele>987.3715</ele>
        <time>2021-07-20T17:03:39Z</time>
      </trkpt>
      <trkpt lat="40.0065" lon="-0.69664">
        <ele>988.7553</ele>
        <time>2021-07-20T17:03:50Z</time>
      </trkpt>
      <trkpt lat="40.00923" lon="-0.69672">
        <ele>991.115</ele>
        <time>2021-07-20T17:04:01Z</time>
      </trkpt>
      <trkpt lat="40.01189" lon="-0.69686">
        <ele>994.8436</ele>
        <time>2021-07-20T17:04:12Z</time>
      </trkpt>
      <trkpt lat="40.01306" lon="-0.6972">
        <ele>998.4623</ele>
        <time>2021-07-20T17:04:23Z</time>
      </trkpt>
      <trkpt lat="40.01317" lon="-0.69656">
        <ele>998.439</ele>
        <time>2021-07-20T17:04:34Z</time>
      </trkpt>
      <trkpt lat="40.01425" lon="-0.69654">
        <ele>993.9829</ele>
        <time>2021-07-20T17:04:45Z</time>
      </trkpt>
      <trkpt lat="40.01486" lon="-0.69632">
        <ele>993.5523</ele>
        <time>2021-07-20T17:04:56Z</time>
      </trkpt>
      <trkpt lat="40.0158" lon="-0.69642">
        <ele>990.8143</ele>
        <time>2021-07-20T17:05:07Z</time>
      </trkpt>
      <trkpt lat="40.01785" lon="-0.69687">
        <ele>985.5943</ele>
        <time>2021-07-20T17:05:18Z</time>
      </trkpt>
      <trkpt lat="40.01978" lon="-0.69732">
        <ele>980.6068</ele>
        <time>2021-07-20T17:05:29Z</time>
      </trkpt>
      <trkpt lat="40.02098" lon="-0.69801">
        <ele>974.5612</ele>
        <time>2021-07-20T17:05:40Z</time>
      </trkpt>
      <trkpt lat="40.02317" lon="-0.69979">
        <ele>971.3337</ele>
        <time>2021-07-20T17:05:51Z</time>
      </trkpt>
      <trkpt lat="40.02524" lon="-0.70209">
        <ele>965.6754</ele>
        <time>2021-07-20T17:06:02Z</time>
      </trkpt>
      <trkpt lat="40.02733" lon="-0.7044">
        <ele>956.7724</ele>
        <time>2021-07-20T17:06:13Z</time>
      </trkpt>
      <trkpt lat="40.02942" lon="-0.70671">
        <ele>952.2701</ele>
        <time>2021-07-20T17:06:24Z</time>
      </trkpt>
      <trkpt lat="40.03166" lon="-0.70873">
        <ele>955.2432</ele>
        <time>2021-07-20T17:06:35Z</time>
      </trkpt>
      <trkpt lat="40.03389" lon="-0.71085">
        <ele>953.4046</ele>
        <time>2021-07-20T17:06:46Z</time>
      </trkpt>
      <trkpt lat="40.03551" lon="-0.7133">
        <ele>951.3141</ele>
        <time>2021-07-20T17:06:57Z</time>
      </trkpt>
      <trkpt lat="40.0376" lon="-0.71594">
        <ele>947.3134</ele>
        <time>2021-07-20T17:07:08Z</time>
      </trkpt>
      <trkpt lat="40.0401" lon="-0.717">
        <ele>944.0891</ele>
        <time>2021-07-20T17:07:19Z</time>
      </trkpt>
      <trkpt lat="40.04264" lon="-0.71738">
        <ele>949.4376</ele>
        <time>2021-07-20T17:07:30Z</time>
      </trkpt>
      <trkpt lat="40.04519" lon="-0.71762">
        <ele>952.8195</ele>
        <time>2021-07-20T17:07:41Z</time>
      </trkpt>
      <trkpt lat="40.04798" lon="-0.71772">
        <ele>949.3142</ele>
        <time>2021-07-20T17:07:52Z</time>
      </trkpt>
      <trkpt lat="40.0508" lon="-0.71793">
        <ele>954.2177</ele>
        <time>2021-07-20T17:08:03Z</time>
      </trkpt>
      <trkpt lat="40.05356" lon="-0.71906">
        <ele>941.8532</ele>
        <time>2021-07-20T17:08:14Z</time>
      </trkpt>
      <trkpt lat="40.05614" lon="-0.72015">
        <ele>936.5197</ele>
        <time>2021-07-20T17:08:25Z</time>
      </trkpt>
      <trkpt lat="40.05864" lon="-0.72121">
        <ele>942.6159</ele>
        <time>2021-07-20T17:08:36Z</time>
      </trkpt>
      <trkpt lat="40.06121" lon="-0.72161">
        <ele>952.0599</ele>
        <time>2021-07-20T17:08:47Z</time>
      </trkpt>
      <trkpt lat="40.06383" lon="-0.72183">
        <ele>955.2272</ele>
        <time>2021-07-20T17:08:58Z</time>
      </trkpt>
      <trkpt lat="40.06525" lon="-0.72395">
        <ele>946.9283</ele>
        <time>2021-07-20T17:09:09Z</time>
      </trkpt>
      <trkpt lat="40.0676" lon="-0.72538">
        <ele>946.2312</ele>
        <time>2021-07-20T17:09:20Z</time>
      </trkpt>
      <trkpt lat="40.07016" lon="-0.72534">
        <ele>964.8897</ele>
        <time>2021-07-20T17:09:31Z</time>
      </trkpt>
      <trkpt lat="40.07276" lon="-0.72606">
        <ele>967.7033</ele>
        <time>2021-07-20T17:09:42Z</time>
      </trkpt>
      <trkpt lat="40.07538" lon="-0.72709">
        <ele>971.3771</ele>
        <time>2021-07-20T17:09:53Z</time>
      </trkpt>
      <trkpt lat="40.07787" lon="-0.72886">
        <ele>958.6801</ele>
        <time>2021-07-20T17:10:04Z</time>
      </trkpt>
      <trkpt lat="40.08035" lon="-0.73042">
        <ele>957.6013</ele>
        <time>2021-07-20T17:10:15Z</time>
      </trkpt>
      <trkpt lat="40.08291" lon="-0.73036">
        <ele>951.3074</ele>
        <time>2021-07-20T17:10:26Z</time>
      </trkpt>
      <trkpt lat="40.08568" lon="-0.73011">
        <ele>943.1885</ele>
        <time>2021-07-20T17:10:37Z</time>
      </trkpt>
      <trkpt lat="40.08848" lon="-0.73011">
        <ele>936.7331</ele>
        <time>2021-07-20T17:10:48Z</time>
      </trkpt>
      <trkpt lat="40.09132" lon="-0.73054">
        <ele>930.5179</ele>
        <time>2021-07-20T17:10:59Z</time>
      </trkpt>
      <trkpt lat="40.09409" lon="-0.73097">
        <ele>926.9758</ele>
        <time>2021-07-20T17:11:10Z</time>
      </trkpt>
      <trkpt lat="40.09691" lon="-0.7314">
        <ele>924.8615</ele>
        <time>2021-07-20T17:11:21Z</time>
      </trkpt>
      <trkpt lat="40.09975" lon="-0.73183">
        <ele>921.4075</ele>
        <time>2021-07-20T17:11:32Z</time>
      </trkpt>
      <trkpt lat="40.10257" lon="-0.73226">
        <ele>927.3426</ele>
        <time>2021-07-20T17:11:43Z</time>
      </trkpt>
      <trkpt lat="40.10513" lon="-0.73331">
        <ele>936.8908</ele>
        <time>2021-07-20T17:11:54Z</time>
      </trkpt>
      <trkpt lat="40.10723" lon="-0.73579">
        <ele>935.9055</ele>
        <time>2021-07-20T17:12:05Z</time>
      </trkpt>
      <trkpt lat="40.10923" lon="-0.73811">
        <ele>933.0695</ele>
        <time>2021-07-20T17:12:16Z</time>
      </trkpt>
      <trkpt lat="40.11144" lon="-0.73953">
        <ele>932.1233</ele>
        <time>2021-07-20T17:12:27Z</time>
      </trkpt>
      <trkpt lat="40.11331" lon="-0.74042">
        <ele>932.8552</ele>
        <time>2021-07-20T17:12:38Z</time>
      </trkpt>
      <trkpt lat="40.11363" lon="-0.7405">
        <ele>932.5982</ele>
        <time>2021-07-20T17:12:49Z</time>
      </trkpt>
      <trkpt lat="40.11362" lon="-0.74051">
        <ele>936.3381</ele>
        <time>2021-07-20T17:13:48Z</time>
      </trkpt>
      <trkpt lat="40.11361" lon="-0.74051">
        <ele>934.4076</ele>
        <time>2021-07-20T17:14:47Z</time>
      </trkpt>
      <trkpt lat="40.11359" lon="-0.74051">
        <ele>939.7922</ele>
        <time>2021-07-20T17:15:45Z</time>
      </trkpt>
      <trkpt lat="40.11458" lon="-0.74105">
        <ele>940.5053</ele>
        <time>2021-07-20T17:15:56Z</time>
      </trkpt>
      <trkpt lat="40.11592" lon="-0.74379">
        <ele>934.3626</ele>
        <time>2021-07-20T17:16:07Z</time>
      </trkpt>
      <trkpt lat="40.11687" lon="-0.74717">
        <ele>939.9975</ele>
        <time>2021-07-20T17:16:18Z</time>
      </trkpt>
      <trkpt lat="40.11884" lon="-0.74966">
        <ele>950.8844</ele>
        <time>2021-07-20T17:16:29Z</time>
      </trkpt>
      <trkpt lat="40.12121" lon="-0.75142">
        <ele>948.5819</ele>
        <time>2021-07-20T17:16:40Z</time>
      </trkpt>
      <trkpt lat="40.12349" lon="-0.7534">
        <ele>937.4431</ele>
        <time>2021-07-20T17:16:51Z</time>
      </trkpt>
      <trkpt lat="40.12394" lon="-0.75669">
        <ele>922.5253</ele>
        <time>2021-07-20T17:17:02Z</time>
      </trkpt>
      <trkpt lat="40.1248" lon="-0.75984">
        <ele>908.0134</ele>
        <time>2021-07-20T17:17:13Z</time>
      </trkpt>
      <trkpt lat="40.12401" lon="-0.76243">
        <ele>893.8403</ele>
        <time>2021-07-20T17:17:24Z</time>
      </trkpt>
      <trkpt lat="40.12216" lon="-0.76465">
        <ele>884.1459</ele>
        <time>2021-07-20T17:17:35Z</time>
      </trkpt>
      <trkpt lat="40.12146" lon="-0.76764">
        <ele>895.2755</ele>
        <time>2021-07-20T17:17:46Z</time>
      </trkpt>
      <trkpt lat="40.12302" lon="-0.76959">
        <ele>871.044</ele>
        <time>2021-07-20T17:17:57Z</time>
      </trkpt>
      <trkpt lat="40.12534" lon="-0.76946">
        <ele>920.0162</ele>
        <time>2021-07-20T17:18:08Z</time>
      </trkpt>
      <trkpt lat="40.12754" lon="-0.77077">
        <ele>925.8275</ele>
        <time>2021-07-20T17:18:19Z</time>
      </trkpt>
      <trkpt lat="40.12917" lon="-0.77211">
        <ele>913.4689</ele>
        <time>2021-07-20T17:18:30Z</time>
      </trkpt>
      <trkpt lat="40.13113" lon="-0.77357">
        <ele>899.8974</ele>
        <time>2021-07-20T17:18:41Z</time>
      </trkpt>
      <trkpt lat="40.13296" lon="-0.77389">
        <ele>893.3015</ele>
        <time>2021-07-20T17:18:52Z</time>
      </trkpt>
      <trkpt lat="40.13485" lon="-0.77386">
        <ele>892.6044</ele>
        <time>2021-07-20T17:19:03Z</time>
      </trkpt>
      <trkpt lat="40.13671" lon="-0.77307">
        <ele>882.8057</ele>
        <time>2021-07-20T17:19:14Z</time>
      </trkpt>
      <trkpt lat="40.13871" lon="-0.77103">
        <ele>877.0878</ele>
        <time>2021-07-20T17:19:25Z</time>
      </trkpt>
      <trkpt lat="40.14077" lon="-0.76901">
        <ele>871.9359</ele>
        <time>2021-07-20T17:19:36Z</time>
      </trkpt>
      <trkpt lat="40.14258" lon="-0.76683">
        <ele>872.4322</ele>
        <time>2021-07-20T17:19:47Z</time>
      </trkpt>
      <trkpt lat="40.14514" lon="-0.76625">
        <ele>872.4002</ele>
        <time>2021-07-20T17:19:58Z</time>
      </trkpt>
      <trkpt lat="40.14775" lon="-0.76594">
        <ele>878.9898</ele>
        <time>2021-07-20T17:20:09Z</time>
      </trkpt>
      <trkpt lat="40.15013" lon="-0.76747">
        <ele>871.2245</ele>
        <time>2021-07-20T17:20:20Z</time>
      </trkpt>
      <trkpt lat="40.15259" lon="-0.76889">
        <ele>864.3899</ele>
        <time>2021-07-20T17:20:31Z</time>
      </trkpt>
      <trkpt lat="40.15518" lon="-0.76992">
        <ele>856.6843</ele>
        <time>2021-07-20T17:20:42Z</time>
      </trkpt>
      <trkpt lat="40.15753" lon="-0.7705">
        <ele>855.697</ele>
        <time>2021-07-20T17:20:53Z</time>
      </trkpt>
      <trkpt lat="40.15985" lon="-0.76987">
        <ele>856.381</ele>
        <time>2021-07-20T17:21:04Z</time>
      </trkpt>
      <trkpt lat="40.1621" lon="-0.77024">
        <ele>860.7723</ele>
        <time>2021-07-20T17:21:15Z</time>
      </trkpt>
      <trkpt lat="40.16383" lon="-0.7724">
        <ele>874.6799</ele>
        <time>2021-07-20T17:21:26Z</time>
      </trkpt>
      <trkpt lat="40.16591" lon="-0.77288">
        <ele>877.8016</ele>
        <time>2021-07-20T17:21:37Z</time>
      </trkpt>
      <trkpt lat="40.16847" lon="-0.77353">
        <ele>888.0282</ele>
        <time>2021-07-20T17:21:48Z</time>
      </trkpt>
      <trkpt lat="40.17089" lon="-0.77483">
        <ele>905.7355</ele>
        <time>2021-07-20T17:21:59Z</time>
      </trkpt>
      <trkpt lat="40.17331" lon="-0.77542">
        <ele>914.9153</ele>
        <time>2021-07-20T17:22:10Z</time>
      </trkpt>
      <trkpt lat="40.17576" lon="-0.77686">
        <ele>922.4438</ele>
        <time>2021-07-20T17:22:21Z</time>
      </trkpt>
      <trkpt lat="40.17825" lon="-0.77831">
        <ele>926.8747</ele>
        <time>2021-07-20T17:22:32Z</time>
      </trkpt>
      <trkpt lat="40.18088" lon="-0.77874">
        <ele>929.2196</ele>
        <time>2021-07-20T17:22:43Z</time>
      </trkpt>
      <trkpt lat="40.18368" lon="-0.77892">
        <ele>933.4199</ele>
        <time>2021-07-20T17:22:54Z</time>
      </trkpt>
      <trkpt lat="40.18644" lon="-0.7796">
        <ele>943.8072</ele>
        <time>2021-07-20T17:23:05Z</time>
      </trkpt>
      <trkpt lat="40.18921" lon="-0.77997">
        <ele>942.1404</ele>
        <time>2021-07-20T17:23:16Z</time>
      </trkpt>
      <trkpt lat="40.19184" lon="-0.77974">
        <ele>958.5508</ele>
        <time>2021-07-20T17:23:27Z</time>
      </trkpt>
      <trkpt lat="40.19424" lon="-0.78165">
        <ele>965.9814</ele>
        <time>2021-07-20T17:23:38Z</time>
      </trkpt>
      <trkpt lat="40.19638" lon="-0.7832">
        <ele>972.5748</ele>
        <time>2021-07-20T17:23:49Z</time>
      </trkpt>
      <trkpt lat="40.1987" lon="-0.78395">
        <ele>969.6636</ele>
        <time>2021-07-20T17:24:00Z</time>
      </trkpt>
      <trkpt lat="40.20136" lon="-0.7835">
        <ele>970.4425</ele>
        <time>2021-07-20T17:24:11Z</time>
      </trkpt>
      <trkpt lat="40.20395" lon="-0.78257">
        <ele>976.62</ele>
        <time>2021-07-20T17:24:22Z</time>
      </trkpt>
      <trkpt lat="40.20646" lon="-0.78317">
        <ele>986.9449</ele>
        <time>2021-07-20T17:24:33Z</time>
      </trkpt>
      <trkpt lat="40.20916" lon="-0.78275">
        <ele>998.7833</ele>
        <time>2021-07-20T17:24:44Z</time>
      </trkpt>
      <trkpt lat="40.21168" lon="-0.78203">
        <ele>995.9411</ele>
        <time>2021-07-20T17:24:55Z</time>
      </trkpt>
      <trkpt lat="40.21373" lon="-0.78036">
        <ele>988.8063</ele>
        <time>2021-07-20T17:25:06Z</time>
      </trkpt>
      <trkpt lat="40.21611" lon="-0.77842">
        <ele>973.467</ele>
        <time>2021-07-20T17:25:17Z</time>
      </trkpt>
      <trkpt lat="40.21853" lon="-0.7767">
        <ele>980.5583</ele>
        <time>2021-07-20T17:25:28Z</time>
      </trkpt>
      <trkpt lat="40.22095" lon="-0.77535">
        <ele>988.3039</ele>
        <time>2021-07-20T17:25:39Z</time>
      </trkpt>
      <trkpt lat="40.22308" lon="-0.77374">
        <ele>987.6108</ele>
        <time>2021-07-20T17:25:50Z</time>
      </trkpt>
      <trkpt lat="40.22552" lon="-0.77275">
        <ele>998.9913</ele>
        <time>2021-07-20T17:26:01Z</time>
      </trkpt>
      <trkpt lat="40.22762" lon="-0.7721">
        <ele>1008.635</ele>
        <time>2021-07-20T17:26:12Z</time>
      </trkpt>
      <trkpt lat="40.22901" lon="-0.76961">
        <ele>1015.489</ele>
        <time>2021-07-20T17:26:23Z</time>
      </trkpt>
      <trkpt lat="40.23061" lon="-0.76715">
        <ele>1016.348</ele>
        <time>2021-07-20T17:26:34Z</time>
      </trkpt>
      <trkpt lat="40.23232" lon="-0.76574">
        <ele>1018.794</ele>
        <time>2021-07-20T17:26:45Z</time>
      </trkpt>
      <trkpt lat="40.23454" lon="-0.7657">
        <ele>1018.899</ele>
        <time>2021-07-20T17:26:56Z</time>
      </trkpt>
      <trkpt lat="40.23619" lon="-0.76511">
        <ele>1024.156</ele>
        <time>2021-07-20T17:27:07Z</time>
      </trkpt>
      <trkpt lat="40.23796" lon="-0.76451">
        <ele>1023.05</ele>
        <time>2021-07-20T17:27:18Z</time>
      </trkpt>
      <trkpt lat="40.23948" lon="-0.76475">
        <ele>1034.552</ele>
        <time>2021-07-20T17:27:29Z</time>
      </trkpt>
      <trkpt lat="40.24101" lon="-0.76479">
        <ele>1037.135</ele>
        <time>2021-07-20T17:27:40Z</time>
      </trkpt>
      <trkpt lat="40.2425" lon="-0.76404">
        <ele>1041.105</ele>
        <time>2021-07-20T17:27:51Z</time>
      </trkpt>
      <trkpt lat="40.244" lon="-0.76416">
        <ele>1035.903</ele>
        <time>2021-07-20T17:28:02Z</time>
      </trkpt>
      <trkpt lat="40.24515" lon="-0.76324">
        <ele>1041.869</ele>
        <time>2021-07-20T17:28:13Z</time>
      </trkpt>
      <trkpt lat="40.24627" lon="-0.76157">
        <ele>1036.003</ele>
        <time>2021-07-20T17:28:24Z</time>
      </trkpt>
      <trkpt lat="40.24744" lon="-0.75993">
        <ele>1037.45</ele>
        <time>2021-07-20T17:28:35Z</time>
      </trkpt>
      <trkpt lat="40.24849" lon="-0.75852">
        <ele>1039.791</ele>
        <time>2021-07-20T17:28:46Z</time>
      </trkpt>
      <trkpt lat="40.2494" lon="-0.75717">
        <ele>1042.124</ele>
        <time>2021-07-20T17:28:57Z</time>
      </trkpt>
      <trkpt lat="40.25008" lon="-0.75604">
        <ele>1041.851</ele>
        <time>2021-07-20T17:29:08Z</time>
      </trkpt>
      <trkpt lat="40.25038" lon="-0.75523">
        <ele>1038.279</ele>
        <time>2021-07-20T17:29:19Z</time>
      </trkpt>
      <trkpt lat="40.25071" lon="-0.75467">
        <ele>1041.357</ele>
        <time>2021-07-20T17:29:30Z</time>
      </trkpt>
      <trkpt lat="40.25128" lon="-0.75397">
        <ele>1040.036</ele>
        <time>2021-07-20T17:29:41Z</time>
      </trkpt>
      <trkpt lat="40.25192" lon="-0.7534">
        <ele>1041.241</ele>
        <time>2021-07-20T17:29:52Z</time>
      </trkpt>
      <trkpt lat="40.25256" lon="-0.753">
        <ele>1047.693</ele>
        <time>2021-07-20T17:30:03Z</time>
      </trkpt>
      <trkpt lat="40.25333" lon="-0.75304">
        <ele>1047.21</ele>
        <time>2021-07-20T17:30:14Z</time>
      </trkpt>
      <trkpt lat="40.2541" lon="-0.75194">
        <ele>1048.048</ele>
        <time>2021-07-20T17:30:25Z</time>
      </trkpt>
      <trkpt lat="40.25531" lon="-0.7509">
        <ele>1054.194</ele>
        <time>2021-07-20T17:30:36Z</time>
      </trkpt>
      <trkpt lat="40.25659" lon="-0.74992">
        <ele>1057.07</ele>
        <time>2021-07-20T17:30:47Z</time>
      </trkpt>
      <trkpt lat="40.25779" lon="-0.74861">
        <ele>1057.288</ele>
        <time>2021-07-20T17:30:58Z</time>
      </trkpt>
      <trkpt lat="40.25899" lon="-0.74698">
        <ele>1060.287</ele>
        <time>2021-07-20T17:31:09Z</time>
      </trkpt>
      <trkpt lat="40.26063" lon="-0.74581">
        <ele>1066.457</ele>
        <time>2021-07-20T17:31:20Z</time>
      </trkpt>
      <trkpt lat="40.26197" lon="-0.74594">
        <ele>1070.969</ele>
        <time>2021-07-20T17:31:31Z</time>
      </trkpt>
      <trkpt lat="40.26361" lon="-0.74603">
        <ele>1073.141</ele>
        <time>2021-07-20T17:31:42Z</time>
      </trkpt>
      <trkpt lat="40.26528" lon="-0.74588">
        <ele>1074.39</ele>
        <time>2021-07-20T17:31:53Z</time>
      </trkpt>
      <trkpt lat="40.26676" lon="-0.74675">
        <ele>1073.432</ele>
        <time>2021-07-20T17:32:04Z</time>
      </trkpt>
      <trkpt lat="40.26827" lon="-0.74667">
        <ele>1073.946</ele>
        <time>2021-07-20T17:32:15Z</time>
      </trkpt>
      <trkpt lat="40.26994" lon="-0.74566">
        <ele>1071.614</ele>
        <time>2021-07-20T17:32:26Z</time>
      </trkpt>
      <trkpt lat="40.27179" lon="-0.74382">
        <ele>1078.789</ele>
        <time>2021-07-20T17:32:37Z</time>
      </trkpt>
      <trkpt lat="40.27364" lon="-0.74288">
        <ele>1088.689</ele>
        <time>2021-07-20T17:32:48Z</time>
      </trkpt>
      <trkpt lat="40.27482" lon="-0.74107">
        <ele>1104.603</ele>
        <time>2021-07-20T17:32:59Z</time>
      </trkpt>
      <trkpt lat="40.27533" lon="-0.73853">
        <ele>1118.589</ele>
        <time>2021-07-20T17:33:10Z</time>
      </trkpt>
      <trkpt lat="40.27687" lon="-0.73777">
        <ele>1123.547</ele>
        <time>2021-07-20T17:33:21Z</time>
      </trkpt>
      <trkpt lat="40.27897" lon="-0.73789">
        <ele>1128.048</ele>
        <time>2021-07-20T17:33:32Z</time>
      </trkpt>
      <trkpt lat="40.2807" lon="-0.73645">
        <ele>1135.078</ele>
        <time>2021-07-20T17:33:43Z</time>
      </trkpt>
      <trkpt lat="40.28083" lon="-0.73414">
        <ele>1142.648</ele>
        <time>2021-07-20T17:33:54Z</time>
      </trkpt>
      <trkpt lat="40.28019" lon="-0.73198">
        <ele>1152.932</ele>
        <time>2021-07-20T17:34:05Z</time>
      </trkpt>
      <trkpt lat="40.28105" lon="-0.73012">
        <ele>1167.583</ele>
        <time>2021-07-20T17:34:16Z</time>
      </trkpt>
      <trkpt lat="40.28144" lon="-0.7279">
        <ele>1185.905</ele>
        <time>2021-07-20T17:34:27Z</time>
      </trkpt>
      <trkpt lat="40.28337" lon="-0.72737">
        <ele>1202.547</ele>
        <time>2021-07-20T17:34:38Z</time>
      </trkpt>
      <trkpt lat="40.28497" lon="-0.72593">
        <ele>1216.818</ele>
        <time>2021-07-20T17:34:49Z</time>
      </trkpt>
      <trkpt lat="40.28674" lon="-0.72497">
        <ele>1230.65</ele>
        <time>2021-07-20T17:35:00Z</time>
      </trkpt>
      <trkpt lat="40.28853" lon="-0.7233">
        <ele>1243.377</ele>
        <time>2021-07-20T17:35:11Z</time>
      </trkpt>
      <trkpt lat="40.2902" lon="-0.72169">
        <ele>1254.519</ele>
        <time>2021-07-20T17:35:22Z</time>
      </trkpt>
      <trkpt lat="40.29138" lon="-0.71965">
        <ele>1269.739</ele>
        <time>2021-07-20T17:35:33Z</time>
      </trkpt>
      <trkpt lat="40.29329" lon="-0.71847">
        <ele>1282.614</ele>
        <time>2021-07-20T17:35:44Z</time>
      </trkpt>
      <trkpt lat="40.29537" lon="-0.71764">
        <ele>1297.821</ele>
        <time>2021-07-20T17:35:55Z</time>
      </trkpt>
      <trkpt lat="40.29683" lon="-0.71634">
        <ele>1314.533</ele>
        <time>2021-07-20T17:36:06Z</time>
      </trkpt>
      <trkpt lat="40.29775" lon="-0.71755">
        <ele>1327.094</ele>
        <time>2021-07-20T17:36:18Z</time>
      </trkpt>
      <trkpt lat="40.29899" lon="-0.71825">
        <ele>1342.303</ele>
        <time>2021-07-20T17:36:29Z</time>
      </trkpt>
      <trkpt lat="40.3004" lon="-0.71965">
        <ele>1358.68</ele>
        <time>2021-07-20T17:36:40Z</time>
      </trkpt>
      <trkpt lat="40.30194" lon="-0.721">
        <ele>1367.727</ele>
        <time>2021-07-20T17:36:51Z</time>
      </trkpt>
      <trkpt lat="40.30387" lon="-0.72177">
        <ele>1367.144</ele>
        <time>2021-07-20T17:37:02Z</time>
      </trkpt>
      <trkpt lat="40.30621" lon="-0.72194">
        <ele>1370.261</ele>
        <time>2021-07-20T17:37:13Z</time>
      </trkpt>
      <trkpt lat="40.30838" lon="-0.72141">
        <ele>1371.779</ele>
        <time>2021-07-20T17:37:24Z</time>
      </trkpt>
      <trkpt lat="40.30992" lon="-0.72155">
        <ele>1375.943</ele>
        <time>2021-07-20T17:37:35Z</time>
      </trkpt>
      <trkpt lat="40.31153" lon="-0.72205">
        <ele>1380.328</ele>
        <time>2021-07-20T17:37:46Z</time>
      </trkpt>
      <trkpt lat="40.31335" lon="-0.72209">
        <ele>1384.577</ele>
        <time>2021-07-20T17:37:57Z</time>
      </trkpt>
      <trkpt lat="40.315" lon="-0.72148">
        <ele>1388.786</ele>
        <time>2021-07-20T17:38:08Z</time>
      </trkpt>
      <trkpt lat="40.31617" lon="-0.72292">
        <ele>1388.726</ele>
        <time>2021-07-20T17:38:19Z</time>
      </trkpt>
      <trkpt lat="40.31741" lon="-0.72178">
        <ele>1389.412</ele>
        <time>2021-07-20T17:38:30Z</time>
      </trkpt>
      <trkpt lat="40.31856" lon="-0.72006">
        <ele>1388.837</ele>
        <time>2021-07-20T17:38:41Z</time>
      </trkpt>
      <trkpt lat="40.31935" lon="-0.71906">
        <ele>1387.96</ele>
        <time>2021-07-20T17:38:52Z</time>
      </trkpt>
      <trkpt lat="40.3208" lon="-0.71986">
        <ele>1388.864</ele>
        <time>2021-07-20T17:39:03Z</time>
      </trkpt>
      <trkpt lat="40.3221" lon="-0.71849">
        <ele>1384.633</ele>
        <time>2021-07-20T17:39:14Z</time>
      </trkpt>
      <trkpt lat="40.32278" lon="-0.71886">
        <ele>1389.715</ele>
        <time>2021-07-20T17:39:25Z</time>
      </trkpt>
      <trkpt lat="40.32356" lon="-0.72079">
        <ele>1394.443</ele>
        <time>2021-07-20T17:39:36Z</time>
      </trkpt>
      <trkpt lat="40.32497" lon="-0.72076">
        <ele>1392.762</ele>
        <time>2021-07-20T17:39:47Z</time>
      </trkpt>
      <trkpt lat="40.3259" lon="-0.71881">
        <ele>1397.255</ele>
        <time>2021-07-20T17:39:58Z</time>
      </trkpt>
      <trkpt lat="40.32659" lon="-0.71632">
        <ele>1406.41</ele>
        <time>2021-07-20T17:40:09Z</time>
      </trkpt>
      <trkpt lat="40.32737" lon="-0.71405">
        <ele>1409.211</ele>
        <time>2021-07-20T17:40:20Z</time>
      </trkpt>
      <trkpt lat="40.32846" lon="-0.71311">
        <ele>1413.601</ele>
        <time>2021-07-20T17:40:31Z</time>
      </trkpt>
      <trkpt lat="40.32894" lon="-0.71468">
        <ele>1422.078</ele>
        <time>2021-07-20T17:40:42Z</time>
      </trkpt>
      <trkpt lat="40.3292" lon="-0.71638">
        <ele>1431.581</ele>
        <time>2021-07-20T17:40:53Z</time>
      </trkpt>
      <trkpt lat="40.33078" lon="-0.71642">
        <ele>1443.365</ele>
        <time>2021-07-20T17:41:04Z</time>
      </trkpt>
      <trkpt lat="40.33312" lon="-0.71556">
        <ele>1460.925</ele>
        <time>2021-07-20T17:41:15Z</time>
      </trkpt>
      <trkpt lat="40.33518" lon="-0.71469">
        <ele>1475.941</ele>
        <time>2021-07-20T17:41:26Z</time>
      </trkpt>
      <trkpt lat="40.33704" lon="-0.71416">
        <ele>1493.191</ele>
        <time>2021-07-20T17:41:37Z</time>
      </trkpt>
      <trkpt lat="40.339" lon="-0.71319">
        <ele>1508.543</ele>
        <time>2021-07-20T17:41:48Z</time>
      </trkpt>
      <trkpt lat="40.34093" lon="-0.71223">
        <ele>1524.622</ele>
        <time>2021-07-20T17:41:59Z</time>
      </trkpt>
      <trkpt lat="40.34228" lon="-0.71119">
        <ele>1535.439</ele>
        <time>2021-07-20T17:42:10Z</time>
      </trkpt>
      <trkpt lat="40.34327" lon="-0.70977">
        <ele>1548.284</ele>
        <time>2021-07-20T17:42:21Z</time>
      </trkpt>
      <trkpt lat="40.34484" lon="-0.70959">
        <ele>1562.918</ele>
        <time>2021-07-20T17:42:32Z</time>
      </trkpt>
      <trkpt lat="40.34622" lon="-0.71015">
        <ele>1556.308</ele>
        <time>2021-07-20T17:42:43Z</time>
      </trkpt>
      <trkpt lat="40.34777" lon="-0.7119">
        <ele>1543.969</ele>
        <time>2021-07-20T17:42:54Z</time>
      </trkpt>
      <trkpt lat="40.34912" lon="-0.71307">
        <ele>1535.92</ele>
        <time>2021-07-20T17:43:05Z</time>
      </trkpt>
      <trkpt lat="40.35079" lon="-0.71367">
        <ele>1523.859</ele>
        <time>2021-07-20T17:43:16Z</time>
      </trkpt>
      <trkpt lat="40.35207" lon="-0.71276">
        <ele>1506.68</ele>
        <time>2021-07-20T17:43:27Z</time>
      </trkpt>
      <trkpt lat="40.3526" lon="-0.71022">
        <ele>1497.123</ele>
        <time>2021-07-20T17:43:38Z</time>
      </trkpt>
      <trkpt lat="40.35234" lon="-0.70788">
        <ele>1482.501</ele>
        <time>2021-07-20T17:43:49Z</time>
      </trkpt>
      <trkpt lat="40.35319" lon="-0.70582">
        <ele>1469.022</ele>
        <time>2021-07-20T17:44:00Z</time>
      </trkpt>
      <trkpt lat="40.35381" lon="-0.70392">
        <ele>1454.067</ele>
        <time>2021-07-20T17:44:11Z</time>
      </trkpt>
      <trkpt lat="40.35379" lon="-0.70173">
        <ele>1437.674</ele>
        <time>2021-07-20T17:44:22Z</time>
      </trkpt>
      <trkpt lat="40.35432" lon="-0.70052">
        <ele>1427.594</ele>
        <time>2021-07-20T17:44:33Z</time>
      </trkpt>
      <trkpt lat="40.3555" lon="-0.70008">
        <ele>1420.535</ele>
        <time>2021-07-20T17:44:44Z</time>
      </trkpt>
      <trkpt lat="40.35702" lon="-0.7004">
        <ele>1415.367</ele>
        <time>2021-07-20T17:44:55Z</time>
      </trkpt>
      <trkpt lat="40.35818" lon="-0.70053">
        <ele>1408.321</ele>
        <time>2021-07-20T17:45:06Z</time>
      </trkpt>
      <trkpt lat="40.35934" lon="-0.7007">
        <ele>1402.017</ele>
        <time>2021-07-20T17:45:17Z</time>
      </trkpt>
      <trkpt lat="40.36062" lon="-0.70099">
        <ele>1398.744</ele>
        <time>2021-07-20T17:45:28Z</time>
      </trkpt>
      <trkpt lat="40.36162" lon="-0.70095">
        <ele>1398.166</ele>
        <time>2021-07-20T17:45:39Z</time>
      </trkpt>
      <trkpt lat="40.36202" lon="-0.7023">
        <ele>1394.03</ele>
        <time>2021-07-20T17:45:50Z</time>
      </trkpt>
      <trkpt lat="40.36249" lon="-0.70346">
        <ele>1389.514</ele>
        <time>2021-07-20T17:46:01Z</time>
      </trkpt>
      <trkpt lat="40.36355" lon="-0.70416">
        <ele>1389.086</ele>
        <time>2021-07-20T17:46:12Z</time>
      </trkpt>
      <trkpt lat="40.36446" lon="-0.70518">
        <ele>1388.196</ele>
        <time>2021-07-20T17:46:23Z</time>
      </trkpt>
      <trkpt lat="40.36545" lon="-0.70593">
        <ele>1385.781</ele>
        <time>2021-07-20T17:46:34Z</time>
      </trkpt>
      <trkpt lat="40.36571" lon="-0.70679">
        <ele>1383.29</ele>
        <time>2021-07-20T17:46:45Z</time>
      </trkpt>
      <trkpt lat="40.36582" lon="-0.70804">
        <ele>1381.251</ele>
        <time>2021-07-20T17:46:56Z</time>
      </trkpt>
      <trkpt lat="40.36681" lon="-0.7105">
        <ele>1373.899</ele>
        <time>2021-07-20T17:47:07Z</time>
      </trkpt>
      <trkpt lat="40.36778" lon="-0.71271">
        <ele>1372.372</ele>
        <time>2021-07-20T17:47:18Z</time>
      </trkpt>
      <trkpt lat="40.36901" lon="-0.71325">
        <ele>1379.447</ele>
        <time>2021-07-20T17:47:29Z</time>
      </trkpt>
      <trkpt lat="40.37065" lon="-0.71202">
        <ele>1389.2</ele>
        <time>2021-07-20T17:47:40Z</time>
      </trkpt>
      <trkpt lat="40.37193" lon="-0.71009">
        <ele>1397.352</ele>
        <time>2021-07-20T17:47:51Z</time>
      </trkpt>
      <trkpt lat="40.37342" lon="-0.70858">
        <ele>1407.188</ele>
        <time>2021-07-20T17:48:02Z</time>
      </trkpt>
      <trkpt lat="40.37549" lon="-0.70818">
        <ele>1418.919</ele>
        <time>2021-07-20T17:48:13Z</time>
      </trkpt>
      <trkpt lat="40.37672" lon="-0.70657">
        <ele>1426.923</ele>
        <time>2021-07-20T17:48:24Z</time>
      </trkpt>
      <trkpt lat="40.37851" lon="-0.7059">
        <ele>1437.64</ele>
        <time>2021-07-20T17:48:35Z</time>
      </trkpt>
      <trkpt lat="40.38085" lon="-0.70654">
        <ele>1455.358</ele>
        <time>2021-07-20T17:48:46Z</time>
      </trkpt>
      <trkpt lat="40.38304" lon="-0.70623">
        <ele>1472.205</ele>
        <time>2021-07-20T17:48:57Z</time>
      </trkpt>
      <trkpt lat="40.38508" lon="-0.70566">
        <ele>1485.287</ele>
        <time>2021-07-20T17:49:08Z</time>
      </trkpt>
      <trkpt lat="40.38682" lon="-0.70446">
        <ele>1497.712</ele>
        <time>2021-07-20T17:49:19Z</time>
      </trkpt>
      <trkpt lat="40.38935" lon="-0.70429">
        <ele>1515.984</ele>
        <time>2021-07-20T17:49:30Z</time>
      </trkpt>
      <trkpt lat="40.39139" lon="-0.70348">
        <ele>1534.238</ele>
        <time>2021-07-20T17:49:41Z</time>
      </trkpt>
      <trkpt lat="40.3935" lon="-0.7045">
        <ele>1530.018</ele>
        <time>2021-07-20T17:49:52Z</time>
      </trkpt>
      <trkpt lat="40.39573" lon="-0.70657">
        <ele>1511.158</ele>
        <time>2021-07-20T17:50:03Z</time>
      </trkpt>
      <trkpt lat="40.39805" lon="-0.70859">
        <ele>1504.407</ele>
        <time>2021-07-20T17:50:14Z</time>
      </trkpt>
      <trkpt lat="40.40065" lon="-0.71016">
        <ele>1494.43</ele>
        <time>2021-07-20T17:50:25Z</time>
      </trkpt>
      <trkpt lat="40.40326" lon="-0.7117">
        <ele>1490.139</ele>
        <time>2021-07-20T17:50:36Z</time>
      </trkpt>
      <trkpt lat="40.40586" lon="-0.71323">
        <ele>1483.718</ele>
        <time>2021-07-20T17:50:47Z</time>
      </trkpt>
      <trkpt lat="40.40815" lon="-0.7145">
        <ele>1477.81</ele>
        <time>2021-07-20T17:50:58Z</time>
      </trkpt>
      <trkpt lat="40.41043" lon="-0.71476">
        <ele>1471.555</ele>
        <time>2021-07-20T17:51:09Z</time>
      </trkpt>
      <trkpt lat="40.41303" lon="-0.71488">
        <ele>1467.949</ele>
        <time>2021-07-20T17:51:20Z</time>
      </trkpt>
      <trkpt lat="40.41539" lon="-0.7165">
        <ele>1467.445</ele>
        <time>2021-07-20T17:51:31Z</time>
      </trkpt>
      <trkpt lat="40.4173" lon="-0.71953">
        <ele>1458.337</ele>
        <time>2021-07-20T17:51:42Z</time>
      </trkpt>
      <trkpt lat="40.41925" lon="-0.72143">
        <ele>1455.345</ele>
        <time>2021-07-20T17:51:53Z</time>
      </trkpt>
      <trkpt lat="40.42148" lon="-0.72229">
        <ele>1452.749</ele>
        <time>2021-07-20T17:52:04Z</time>
      </trkpt>
      <trkpt lat="40.42277" lon="-0.72362">
        <ele>1452.365</ele>
        <time>2021-07-20T17:52:15Z</time>
      </trkpt>
      <trkpt lat="40.42451" lon="-0.72511">
        <ele>1450.336</ele>
        <time>2021-07-20T17:52:26Z</time>
      </trkpt>
      <trkpt lat="40.42617" lon="-0.72598">
        <ele>1447.911</ele>
        <time>2021-07-20T17:52:37Z</time>
      </trkpt>
      <trkpt lat="40.42821" lon="-0.7259">
        <ele>1450.343</ele>
        <time>2021-07-20T17:52:48Z</time>
      </trkpt>
      <trkpt lat="40.42999" lon="-0.72654">
        <ele>1445.376</ele>
        <time>2021-07-20T17:52:59Z</time>
      </trkpt>
      <trkpt lat="40.43147" lon="-0.72602">
        <ele>1449.053</ele>
        <time>2021-07-20T17:53:10Z</time>
      </trkpt>
      <trkpt lat="40.43281" lon="-0.72644">
        <ele>1440.848</ele>
        <time>2021-07-20T17:53:21Z</time>
      </trkpt>
      <trkpt lat="40.43413" lon="-0.72706">
        <ele>1435.877</ele>
        <time>2021-07-20T17:53:32Z</time>
      </trkpt>
      <trkpt lat="40.43568" lon="-0.72769">
        <ele>1436.62</ele>
        <time>2021-07-20T17:53:43Z</time>
      </trkpt>
      <trkpt lat="40.43724" lon="-0.72798">
        <ele>1434.016</ele>
        <time>2021-07-20T17:53:54Z</time>
      </trkpt>
      <trkpt lat="40.43866" lon="-0.72797">
        <ele>1427.441</ele>
        <time>2021-07-20T17:54:05Z</time>
      </trkpt>
      <trkpt lat="40.44005" lon="-0.72852">
        <ele>1428.851</ele>
        <time>2021-07-20T17:54:16Z</time>
      </trkpt>
      <trkpt lat="40.44105" lon="-0.73024">
        <ele>1429.896</ele>
        <time>2021-07-20T17:54:27Z</time>
      </trkpt>
      <trkpt lat="40.44225" lon="-0.73137">
        <ele>1432.406</ele>
        <time>2021-07-20T17:54:38Z</time>
      </trkpt>
      <trkpt lat="40.44394" lon="-0.731">
        <ele>1430.481</ele>
        <time>2021-07-20T17:54:49Z</time>
      </trkpt>
      <trkpt lat="40.44571" lon="-0.73025">
        <ele>1421.773</ele>
        <time>2021-07-20T17:55:00Z</time>
      </trkpt>
      <trkpt lat="40.44717" lon="-0.73031">
        <ele>1410.94</ele>
        <time>2021-07-20T17:55:12Z</time>
      </trkpt>
      <trkpt lat="40.44885" lon="-0.73066">
        <ele>1408.058</ele>
        <time>2021-07-20T17:55:23Z</time>
      </trkpt>
      <trkpt lat="40.44944" lon="-0.72879">
        <ele>1405.539</ele>
        <time>2021-07-20T17:55:34Z</time>
      </trkpt>
      <trkpt lat="40.45094" lon="-0.72839">
        <ele>1404.909</ele>
        <time>2021-07-20T17:55:45Z</time>
      </trkpt>
      <trkpt lat="40.45334" lon="-0.72923">
        <ele>1421.848</ele>
        <time>2021-07-20T17:55:56Z</time>
      </trkpt>
      <trkpt lat="40.45575" lon="-0.73028">
        <ele>1422.891</ele>
        <time>2021-07-20T17:56:07Z</time>
      </trkpt>
      <trkpt lat="40.45829" lon="-0.73056">
        <ele>1414.93</ele>
        <time>2021-07-20T17:56:18Z</time>
      </trkpt>
      <trkpt lat="40.46063" lon="-0.73108">
        <ele>1402.061</ele>
        <time>2021-07-20T17:56:29Z</time>
      </trkpt>
      <trkpt lat="40.46228" lon="-0.73191">
        <ele>1396.375</ele>
        <time>2021-07-20T17:56:40Z</time>
      </trkpt>
      <trkpt lat="40.46425" lon="-0.73291">
        <ele>1393.704</ele>
        <time>2021-07-20T17:56:51Z</time>
      </trkpt>
      <trkpt lat="40.46619" lon="-0.73227">
        <ele>1393.175</ele>
        <time>2021-07-20T17:57:02Z</time>
      </trkpt>
      <trkpt lat="40.46739" lon="-0.73297">
        <ele>1386.659</ele>
        <time>2021-07-20T17:57:13Z</time>
      </trkpt>
      <trkpt lat="40.46916" lon="-0.73301">
        <ele>1389.207</ele>
        <time>2021-07-20T17:57:24Z</time>
      </trkpt>
      <trkpt lat="40.47071" lon="-0.73232">
        <ele>1390.575</ele>
        <time>2021-07-20T17:57:35Z</time>
      </trkpt>
      <trkpt lat="40.47204" lon="-0.7319">
        <ele>1382.331</ele>
        <time>2021-07-20T17:57:46Z</time>
      </trkpt>
      <trkpt lat="40.47386" lon="-0.73217">
        <ele>1383.302</ele>
        <time>2021-07-20T17:57:57Z</time>
      </trkpt>
      <trkpt lat="40.47557" lon="-0.73257">
        <ele>1375.463</ele>
        <time>2021-07-20T17:58:08Z</time>
      </trkpt>
      <trkpt lat="40.47736" lon="-0.73451">
        <ele>1371.348</ele>
        <time>2021-07-20T17:58:19Z</time>
      </trkpt>
      <trkpt lat="40.47977" lon="-0.73565">
        <ele>1364.431</ele>
        <time>2021-07-20T17:58:30Z</time>
      </trkpt>
      <trkpt lat="40.48249" lon="-0.73668">
        <ele>1359.222</ele>
        <time>2021-07-20T17:58:41Z</time>
      </trkpt>
      <trkpt lat="40.48485" lon="-0.73712">
        <ele>1359.057</ele>
        <time>2021-07-20T17:58:52Z</time>
      </trkpt>
      <trkpt lat="40.48653" lon="-0.73592">
        <ele>1359.965</ele>
        <time>2021-07-20T17:59:03Z</time>
      </trkpt>
      <trkpt lat="40.48778" lon="-0.73464">
        <ele>1354.074</ele>
        <time>2021-07-20T17:59:14Z</time>
      </trkpt>
      <trkpt lat="40.48843" lon="-0.73579">
        <ele>1359.193</ele>
        <time>2021-07-20T17:59:25Z</time>
      </trkpt>
      <trkpt lat="40.48978" lon="-0.73655">
        <ele>1369.901</ele>
        <time>2021-07-20T17:59:36Z</time>
      </trkpt>
      <trkpt lat="40.49154" lon="-0.73745">
        <ele>1375.204</ele>
        <time>2021-07-20T17:59:47Z</time>
      </trkpt>
      <trkpt lat="40.49217" lon="-0.73843">
        <ele>1377.649</ele>
        <time>2021-07-20T17:59:58Z</time>
      </trkpt>
      <trkpt lat="40.49222" lon="-0.74042">
        <ele>1367.939</ele>
        <time>2021-07-20T18:00:09Z</time>
      </trkpt>
      <trkpt lat="40.49326" lon="-0.74244">
        <ele>1354.579</ele>
        <time>2021-07-20T18:00:20Z</time>
      </trkpt>
      <trkpt lat="40.49497" lon="-0.74369">
        <ele>1365.266</ele>
        <time>2021-07-20T18:00:31Z</time>
      </trkpt>
      <trkpt lat="40.49672" lon="-0.74479">
        <ele>1355.873</ele>
        <time>2021-07-20T18:00:42Z</time>
      </trkpt>
      <trkpt lat="40.49818" lon="-0.74662">
        <ele>1348.371</ele>
        <time>2021-07-20T18:00:53Z</time>
      </trkpt>
      <trkpt lat="40.49993" lon="-0.74757">
        <ele>1351.462</ele>
        <time>2021-07-20T18:01:04Z</time>
      </trkpt>
      <trkpt lat="40.50198" lon="-0.74877">
        <ele>1345.351</ele>
        <time>2021-07-20T18:01:15Z</time>
      </trkpt>
      <trkpt lat="40.50406" lon="-0.7503">
        <ele>1341.909</ele>
        <time>2021-07-20T18:01:26Z</time>
      </trkpt>
      <trkpt lat="40.50609" lon="-0.7517">
        <ele>1335.975</ele>
        <time>2021-07-20T18:01:37Z</time>
      </trkpt>
      <trkpt lat="40.50717" lon="-0.75302">
        <ele>1333.286</ele>
        <time>2021-07-20T18:01:48Z</time>
      </trkpt>
      <trkpt lat="40.50891" lon="-0.75423">
        <ele>1330.493</ele>
        <time>2021-07-20T18:01:59Z</time>
      </trkpt>
      <trkpt lat="40.51076" lon="-0.75518">
        <ele>1329.636</ele>
        <time>2021-07-20T18:02:10Z</time>
      </trkpt>
      <trkpt lat="40.51232" lon="-0.75633">
        <ele>1329.078</ele>
        <time>2021-07-20T18:02:21Z</time>
      </trkpt>
      <trkpt lat="40.51379" lon="-0.75775">
        <ele>1328.632</ele>
        <time>2021-07-20T18:02:32Z</time>
      </trkpt>
      <trkpt lat="40.51567" lon="-0.759">
        <ele>1329.831</ele>
        <time>2021-07-20T18:02:43Z</time>
      </trkpt>
      <trkpt lat="40.51688" lon="-0.75893">
        <ele>1328.81</ele>
        <time>2021-07-20T18:02:54Z</time>
      </trkpt>
      <trkpt lat="40.51819" lon="-0.75971">
        <ele>1332.519</ele>
        <time>2021-07-20T18:03:05Z</time>
      </trkpt>
      <trkpt lat="40.5204" lon="-0.76024">
        <ele>1333.246</ele>
        <time>2021-07-20T18:03:16Z</time>
      </trkpt>
      <trkpt lat="40.52238" lon="-0.76039">
        <ele>1338.166</ele>
        <time>2021-07-20T18:03:27Z</time>
      </trkpt>
      <trkpt lat="40.52454" lon="-0.76075">
        <ele>1337.373</ele>
        <time>2021-07-20T18:03:38Z</time>
      </trkpt>
      <trkpt lat="40.52709" lon="-0.76083">
        <ele>1331.914</ele>
        <time>2021-07-20T18:03:49Z</time>
      </trkpt>
      <trkpt lat="40.52968" lon="-0.76086">
        <ele>1328.848</ele>
        <time>2021-07-20T18:04:00Z</time>
      </trkpt>
      <trkpt lat="40.53158" lon="-0.76093">
        <ele>1324.168</ele>
        <time>2021-07-20T18:04:11Z</time>
      </trkpt>
      <trkpt lat="40.53316" lon="-0.75991">
        <ele>1334.122</ele>
        <time>2021-07-20T18:04:22Z</time>
      </trkpt>
      <trkpt lat="40.53466" lon="-0.76093">
        <ele>1343.815</ele>
        <time>2021-07-20T18:04:33Z</time>
      </trkpt>
      <trkpt lat="40.53607" lon="-0.761">
        <ele>1346.479</ele>
        <time>2021-07-20T18:04:44Z</time>
      </trkpt>
      <trkpt lat="40.53792" lon="-0.76212">
        <ele>1348.941</ele>
        <time>2021-07-20T18:04:55Z</time>
      </trkpt>
      <trkpt lat="40.54038" lon="-0.76323">
        <ele>1345.874</ele>
        <time>2021-07-20T18:05:06Z</time>
      </trkpt>
      <trkpt lat="40.54267" lon="-0.76414">
        <ele>1346.952</ele>
        <time>2021-07-20T18:05:17Z</time>
      </trkpt>
      <trkpt lat="40.54433" lon="-0.76404">
        <ele>1343.61</ele>
        <time>2021-07-20T18:05:28Z</time>
      </trkpt>
      <trkpt lat="40.5456" lon="-0.7626">
        <ele>1329.287</ele>
        <time>2021-07-20T18:05:39Z</time>
      </trkpt>
      <trkpt lat="40.54703" lon="-0.76063">
        <ele>1316.303</ele>
        <time>2021-07-20T18:05:50Z</time>
      </trkpt>
      <trkpt lat="40.54879" lon="-0.75901">
        <ele>1322.701</ele>
        <time>2021-07-20T18:06:01Z</time>
      </trkpt>
      <trkpt lat="40.55035" lon="-0.75899">
        <ele>1327.447</ele>
        <time>2021-07-20T18:06:12Z</time>
      </trkpt>
      <trkpt lat="40.5525" lon="-0.76047">
        <ele>1328.394</ele>
        <time>2021-07-20T18:06:23Z</time>
      </trkpt>
      <trkpt lat="40.55462" lon="-0.7618">
        <ele>1324.365</ele>
        <time>2021-07-20T18:06:34Z</time>
      </trkpt>
      <trkpt lat="40.55649" lon="-0.76328">
        <ele>1323.841</ele>
        <time>2021-07-20T18:06:45Z</time>
      </trkpt>
      <trkpt lat="40.55811" lon="-0.76419">
        <ele>1322.358</ele>
        <time>2021-07-20T18:06:56Z</time>
      </trkpt>
      <trkpt lat="40.55936" lon="-0.76448">
        <ele>1312.758</ele>
        <time>2021-07-20T18:07:07Z</time>
      </trkpt>
      <trkpt lat="40.56011" lon="-0.76368">
        <ele>1311.148</ele>
        <time>2021-07-20T18:07:18Z</time>
      </trkpt>
      <trkpt lat="40.56096" lon="-0.76505">
        <ele>1310.866</ele>
        <time>2021-07-20T18:07:29Z</time>
      </trkpt>
      <trkpt lat="40.56259" lon="-0.76616">
        <ele>1313.879</ele>
        <time>2021-07-20T18:07:40Z</time>
      </trkpt>
      <trkpt lat="40.56507" lon="-0.76695">
        <ele>1311.337</ele>
        <time>2021-07-20T18:07:51Z</time>
      </trkpt>
      <trkpt lat="40.56771" lon="-0.76778">
        <ele>1311.262</ele>
        <time>2021-07-20T18:08:02Z</time>
      </trkpt>
      <trkpt lat="40.57031" lon="-0.7686">
        <ele>1308.616</ele>
        <time>2021-07-20T18:08:13Z</time>
      </trkpt>
      <trkpt lat="40.5729" lon="-0.76942">
        <ele>1312.433</ele>
        <time>2021-07-20T18:08:24Z</time>
      </trkpt>
      <trkpt lat="40.57538" lon="-0.77016">
        <ele>1314.531</ele>
        <time>2021-07-20T18:08:35Z</time>
      </trkpt>
      <trkpt lat="40.57787" lon="-0.77083">
        <ele>1310.84</ele>
        <time>2021-07-20T18:08:46Z</time>
      </trkpt>
      <trkpt lat="40.58027" lon="-0.77148">
        <ele>1310.217</ele>
        <time>2021-07-20T18:08:57Z</time>
      </trkpt>
      <trkpt lat="40.5827" lon="-0.77214">
        <ele>1311.55</ele>
        <time>2021-07-20T18:09:08Z</time>
      </trkpt>
      <trkpt lat="40.58511" lon="-0.77296">
        <ele>1309.41</ele>
        <time>2021-07-20T18:09:19Z</time>
      </trkpt>
      <trkpt lat="40.58747" lon="-0.7742">
        <ele>1306.497</ele>
        <time>2021-07-20T18:09:30Z</time>
      </trkpt>
      <trkpt lat="40.59001" lon="-0.77515">
        <ele>1305.833</ele>
        <time>2021-07-20T18:09:41Z</time>
      </trkpt>
      <trkpt lat="40.59273" lon="-0.7749">
        <ele>1304.458</ele>
        <time>2021-07-20T18:09:52Z</time>
      </trkpt>
      <trkpt lat="40.59541" lon="-0.77447">
        <ele>1302.378</ele>
        <time>2021-07-20T18:10:03Z</time>
      </trkpt>
      <trkpt lat="40.59804" lon="-0.775">
        <ele>1305.068</ele>
        <time>2021-07-20T18:10:14Z</time>
      </trkpt>
      <trkpt lat="40.60061" lon="-0.77495">
        <ele>1303.372</ele>
        <time>2021-07-20T18:10:25Z</time>
      </trkpt>
      <trkpt lat="40.60293" lon="-0.77339">
        <ele>1301.255</ele>
        <time>2021-07-20T18:10:36Z</time>
      </trkpt>
      <trkpt lat="40.60549" lon="-0.77209">
        <ele>1297.552</ele>
        <time>2021-07-20T18:10:47Z</time>
      </trkpt>
      <trkpt lat="40.60819" lon="-0.77149">
        <ele>1292.1</ele>
        <time>2021-07-20T18:10:58Z</time>
      </trkpt>
      <trkpt lat="40.6109" lon="-0.77207">
        <ele>1286.154</ele>
        <time>2021-07-20T18:11:09Z</time>
      </trkpt>
      <trkpt lat="40.61317" lon="-0.77402">
        <ele>1282.773</ele>
        <time>2021-07-20T18:11:20Z</time>
      </trkpt>
      <trkpt lat="40.61533" lon="-0.77637">
        <ele>1277.431</ele>
        <time>2021-07-20T18:11:31Z</time>
      </trkpt>
      <trkpt lat="40.61746" lon="-0.77872">
        <ele>1272.069</ele>
        <time>2021-07-20T18:11:42Z</time>
      </trkpt>
      <trkpt lat="40.61929" lon="-0.78146">
        <ele>1266.617</ele>
        <time>2021-07-20T18:11:53Z</time>
      </trkpt>
      <trkpt lat="40.62086" lon="-0.78398">
        <ele>1261.319</ele>
        <time>2021-07-20T18:12:04Z</time>
      </trkpt>
      <trkpt lat="40.6229" lon="-0.78503">
        <ele>1258.23</ele>
        <time>2021-07-20T18:12:15Z</time>
      </trkpt>
      <trkpt lat="40.62467" lon="-0.78486">
        <ele>1256.344</ele>
        <time>2021-07-20T18:12:26Z</time>
      </trkpt>
      <trkpt lat="40.62481" lon="-0.78399">
        <ele>1256.907</ele>
        <time>2021-07-20T18:12:37Z</time>
      </trkpt>
      <trkpt lat="40.62346" lon="-0.78138">
        <ele>1259.313</ele>
        <time>2021-07-20T18:12:48Z</time>
      </trkpt>
      <trkpt lat="40.62228" lon="-0.77833">
        <ele>1263.507</ele>
        <time>2021-07-20T18:12:59Z</time>
      </trkpt>
      <trkpt lat="40.62205" lon="-0.77507">
        <ele>1266.613</ele>
        <time>2021-07-20T18:13:10Z</time>
      </trkpt>
      <trkpt lat="40.62197" lon="-0.77178">
        <ele>1274.694</ele>
        <time>2021-07-20T18:13:21Z</time>
      </trkpt>
      <trkpt lat="40.6208" lon="-0.76888">
        <ele>1283.458</ele>
        <time>2021-07-20T18:13:32Z</time>
      </trkpt>
      <trkpt lat="40.61924" lon="-0.76613">
        <ele>1287.7</ele>
        <time>2021-07-20T18:13:43Z</time>
      </trkpt>
      <trkpt lat="40.61822" lon="-0.7633">
        <ele>1293.995</ele>
        <time>2021-07-20T18:13:54Z</time>
      </trkpt>
      <trkpt lat="40.61797" lon="-0.76037">
        <ele>1299.029</ele>
        <time>2021-07-20T18:14:05Z</time>
      </trkpt>
      <trkpt lat="40.61769" lon="-0.75745">
        <ele>1304.823</ele>
        <time>2021-07-20T18:14:16Z</time>
      </trkpt>
      <trkpt lat="40.61829" lon="-0.75553">
        <ele>1312.577</ele>
        <time>2021-07-20T18:14:27Z</time>
      </trkpt>
      <trkpt lat="40.62037" lon="-0.75508">
        <ele>1307.906</ele>
        <time>2021-07-20T18:14:38Z</time>
      </trkpt>
      <trkpt lat="40.62253" lon="-0.75594">
        <ele>1307.251</ele>
        <time>2021-07-20T18:14:49Z</time>
      </trkpt>
      <trkpt lat="40.62466" lon="-0.75655">
        <ele>1309.23</ele>
        <time>2021-07-20T18:15:00Z</time>
      </trkpt>
      <trkpt lat="40.62709" lon="-0.75695">
        <ele>1312.6</ele>
        <time>2021-07-20T18:15:11Z</time>
      </trkpt>
      <trkpt lat="40.62944" lon="-0.757">
        <ele>1314.12</ele>
        <time>2021-07-20T18:15:22Z</time>
      </trkpt>
      <trkpt lat="40.63133" lon="-0.75565">
        <ele>1311.94</ele>
        <time>2021-07-20T18:15:33Z</time>
      </trkpt>
      <trkpt lat="40.63326" lon="-0.7534">
        <ele>1305.81</ele>
        <time>2021-07-20T18:15:44Z</time>
      </trkpt>
      <trkpt lat="40.63513" lon="-0.75122">
        <ele>1307.113</ele>
        <time>2021-07-20T18:15:55Z</time>
      </trkpt>
      <trkpt lat="40.63635" lon="-0.75033">
        <ele>1304.679</ele>
        <time>2021-07-20T18:16:06Z</time>
      </trkpt>
      <trkpt lat="40.63771" lon="-0.74991">
        <ele>1302.577</ele>
        <time>2021-07-20T18:16:17Z</time>
      </trkpt>
      <trkpt lat="40.6391" lon="-0.74902">
        <ele>1305.394</ele>
        <time>2021-07-20T18:16:28Z</time>
      </trkpt>
      <trkpt lat="40.6405" lon="-0.74679">
        <ele>1300.659</ele>
        <time>2021-07-20T18:16:39Z</time>
      </trkpt>
      <trkpt lat="40.64146" lon="-0.74608">
        <ele>1304.746</ele>
        <time>2021-07-20T18:16:50Z</time>
      </trkpt>
      <trkpt lat="40.64309" lon="-0.7444">
        <ele>1304.603</ele>
        <time>2021-07-20T18:17:01Z</time>
      </trkpt>
      <trkpt lat="40.64467" lon="-0.74263">
        <ele>1308.03</ele>
        <time>2021-07-20T18:17:12Z</time>
      </trkpt>
      <trkpt lat="40.64604" lon="-0.74034">
        <ele>1296.464</ele>
        <time>2021-07-20T18:17:23Z</time>
      </trkpt>
      <trkpt lat="40.64713" lon="-0.73937">
        <ele>1295.242</ele>
        <time>2021-07-20T18:17:34Z</time>
      </trkpt>
      <trkpt lat="40.64865" lon="-0.73876">
        <ele>1290.811</ele>
        <time>2021-07-20T18:17:45Z</time>
      </trkpt>
      <trkpt lat="40.65026" lon="-0.73681">
        <ele>1284.802</ele>
        <time>2021-07-20T18:17:56Z</time>
      </trkpt>
      <trkpt lat="40.65157" lon="-0.73531">
        <ele>1279.284</ele>
        <time>2021-07-20T18:18:07Z</time>
      </trkpt>
      <trkpt lat="40.65292" lon="-0.73458">
        <ele>1271.695</ele>
        <time>2021-07-20T18:18:18Z</time>
      </trkpt>
      <trkpt lat="40.65325" lon="-0.73394">
        <ele>1271.334</ele>
        <time>2021-07-20T18:18:29Z</time>
      </trkpt>
      <trkpt lat="40.65379" lon="-0.73185">
        <ele>1278.888</ele>
        <time>2021-07-20T18:18:40Z</time>
      </trkpt>
      <trkpt lat="40.65444" lon="-0.7301">
        <ele>1286.391</ele>
        <time>2021-07-20T18:18:51Z</time>
      </trkpt>
      <trkpt lat="40.6556" lon="-0.72885">
        <ele>1294.416</ele>
        <time>2021-07-20T18:19:02Z</time>
      </trkpt>
      <trkpt lat="40.65612" lon="-0.7275">
        <ele>1301.03</ele>
        <time>2021-07-20T18:19:13Z</time>
      </trkpt>
      <trkpt lat="40.65704" lon="-0.72683">
        <ele>1306.69</ele>
        <time>2021-07-20T18:19:24Z</time>
      </trkpt>
      <trkpt lat="40.65788" lon="-0.72596">
        <ele>1308.175</ele>
        <time>2021-07-20T18:19:35Z</time>
      </trkpt>
      <trkpt lat="40.65938" lon="-0.72471">
        <ele>1318.315</ele>
        <time>2021-07-20T18:19:46Z</time>
      </trkpt>
      <trkpt lat="40.66069" lon="-0.72277">
        <ele>1330.897</ele>
        <time>2021-07-20T18:19:57Z</time>
      </trkpt>
      <trkpt lat="40.66214" lon="-0.72191">
        <ele>1320.977</ele>
        <time>2021-07-20T18:20:08Z</time>
      </trkpt>
      <trkpt lat="40.66379" lon="-0.72197">
        <ele>1307.055</ele>
        <time>2021-07-20T18:20:19Z</time>
      </trkpt>
      <trkpt lat="40.6643" lon="-0.72064">
        <ele>1293.719</ele>
        <time>2021-07-20T18:20:30Z</time>
      </trkpt>
      <trkpt lat="40.66504" lon="-0.71911">
        <ele>1282.843</ele>
        <time>2021-07-20T18:20:41Z</time>
      </trkpt>
      <trkpt lat="40.66566" lon="-0.7176">
        <ele>1274.996</ele>
        <time>2021-07-20T18:20:52Z</time>
      </trkpt>
      <trkpt lat="40.66565" lon="-0.71618">
        <ele>1265.114</ele>
        <time>2021-07-20T18:21:03Z</time>
      </trkpt>
      <trkpt lat="40.66568" lon="-0.71559">
        <ele>1258.57</ele>
        <time>2021-07-20T18:21:14Z</time>
      </trkpt>
      <trkpt lat="40.6664" lon="-0.71614">
        <ele>1248.797</ele>
        <time>2021-07-20T18:21:25Z</time>
      </trkpt>
      <trkpt lat="40.66754" lon="-0.71648">
        <ele>1236.737</ele>
        <time>2021-07-20T18:21:36Z</time>
      </trkpt>
      <trkpt lat="40.66872" lon="-0.71692">
        <ele>1223.941</ele>
        <time>2021-07-20T18:21:47Z</time>
      </trkpt>
      <trkpt lat="40.67001" lon="-0.71798">
        <ele>1214.307</ele>
        <time>2021-07-20T18:21:58Z</time>
      </trkpt>
      <trkpt lat="40.67167" lon="-0.71771">
        <ele>1201.795</ele>
        <time>2021-07-20T18:22:09Z</time>
      </trkpt>
      <trkpt lat="40.6731" lon="-0.71671">
        <ele>1190.88</ele>
        <time>2021-07-20T18:22:20Z</time>
      </trkpt>
      <trkpt lat="40.67407" lon="-0.71603">
        <ele>1182.774</ele>
        <time>2021-07-20T18:22:31Z</time>
      </trkpt>
      <trkpt lat="40.67477" lon="-0.71471">
        <ele>1175.205</ele>
        <time>2021-07-20T18:22:42Z</time>
      </trkpt>
      <trkpt lat="40.67563" lon="-0.71297">
        <ele>1168.721</ele>
        <time>2021-07-20T18:22:53Z</time>
      </trkpt>
      <trkpt lat="40.67598" lon="-0.71119">
        <ele>1160.533</ele>
        <time>2021-07-20T18:23:04Z</time>
      </trkpt>
      <trkpt lat="40.67521" lon="-0.70977">
        <ele>1152.541</ele>
        <time>2021-07-20T18:23:15Z</time>
      </trkpt>
      <trkpt lat="40.67397" lon="-0.70923">
        <ele>1142.951</ele>
        <time>2021-07-20T18:23:26Z</time>
      </trkpt>
      <trkpt lat="40.6724" lon="-0.70961">
        <ele>1134.877</ele>
        <time>2021-07-20T18:23:37Z</time>
      </trkpt>
      <trkpt lat="40.67116" lon="-0.70973">
        <ele>1127.066</ele>
        <time>2021-07-20T18:23:48Z</time>
      </trkpt>
      <trkpt lat="40.67131" lon="-0.70873">
        <ele>1121.506</ele>
        <time>2021-07-20T18:23:59Z</time>
      </trkpt>
      <trkpt lat="40.67174" lon="-0.70773">
        <ele>1123.259</ele>
        <time>2021-07-20T18:24:10Z</time>
      </trkpt>
      <trkpt lat="40.67111" lon="-0.70628">
        <ele>1123.705</ele>
        <time>2021-07-20T18:24:21Z</time>
      </trkpt>
      <trkpt lat="40.67098" lon="-0.70467">
        <ele>1119.144</ele>
        <time>2021-07-20T18:24:32Z</time>
      </trkpt>
      <trkpt lat="40.672" lon="-0.70401">
        <ele>1116.177</ele>
        <time>2021-07-20T18:24:43Z</time>
      </trkpt>
      <trkpt lat="40.673" lon="-0.7035">
        <ele>1118.341</ele>
        <time>2021-07-20T18:24:54Z</time>
      </trkpt>
      <trkpt lat="40.67392" lon="-0.70299">
        <ele>1120.079</ele>
        <time>2021-07-20T18:25:05Z</time>
      </trkpt>
      <trkpt lat="40.67453" lon="-0.70234">
        <ele>1115.758</ele>
        <time>2021-07-20T18:25:16Z</time>
      </trkpt>
      <trkpt lat="40.67434" lon="-0.70169">
        <ele>1116.154</ele>
        <time>2021-07-20T18:25:27Z</time>
      </trkpt>
      <trkpt lat="40.67416" lon="-0.70095">
        <ele>1111.187</ele>
        <time>2021-07-20T18:25:38Z</time>
      </trkpt>
      <trkpt lat="40.67332" lon="-0.70013">
        <ele>1110.536</ele>
        <time>2021-07-20T18:25:49Z</time>
      </trkpt>
      <trkpt lat="40.67324" lon="-0.69952">
        <ele>1116.315</ele>
        <time>2021-07-20T18:26:00Z</time>
      </trkpt>
      <trkpt lat="40.67275" lon="-0.69936">
        <ele>1120.029</ele>
        <time>2021-07-20T18:26:11Z</time>
      </trkpt>
      <trkpt lat="40.67265" lon="-0.6986">
        <ele>1120.519</ele>
        <time>2021-07-20T18:26:22Z</time>
      </trkpt>
      <trkpt lat="40.6727" lon="-0.69836">
        <ele>1120.295</ele>
        <time>2021-07-20T18:26:33Z</time>
      </trkpt>
      <trkpt lat="40.67282" lon="-0.69845">
        <ele>1119.841</ele>
        <time>2021-07-20T18:26:44Z</time>
      </trkpt>
      <trkpt lat="40.67282" lon="-0.69846">
        <ele>1120.986</ele>
        <time>2021-07-20T18:27:43Z</time>
      </trkpt>
      <trkpt lat="40.67282" lon="-0.69846">
        <ele>1120.871</ele>
        <time>2021-07-20T18:28:42Z</time>
      </trkpt>
      <trkpt lat="40.67282" lon="-0.69846">
        <ele>1120.871</ele>
        <time>2021-07-20T18:29:41Z</time>
      </trkpt>
      <trkpt lat="40.67282" lon="-0.69846">
        <ele>1120.871</ele>
        <time>2021-07-20T18:30:40Z</time>
      </trkpt>
      <trkpt lat="40.67282" lon="-0.69846">
        <ele>1120.871</ele>
        <time>2021-07-20T18:31:39Z</time>
      </trkpt>
      <trkpt lat="40.67283" lon="-0.69847">
        <ele>1116.112</ele>
        <time>2021-07-20T18:32:38Z</time>
      </trkpt>
      <trkpt lat="40.67286" lon="-0.69843">
        <ele>1117.507</ele>
        <time>2021-07-20T18:32:58Z</time>
      </trkpt>
      <trkpt lat="40.67283" lon="-0.69801">
        <ele>1119.196</ele>
        <time>2021-07-20T18:33:09Z</time>
      </trkpt>
      <trkpt lat="40.67287" lon="-0.69778">
        <ele>1120.015</ele>
        <time>2021-07-20T18:33:20Z</time>
      </trkpt>
      <trkpt lat="40.67289" lon="-0.69763">
        <ele>1119.949</ele>
        <time>2021-07-20T18:33:31Z</time>
      </trkpt>
      <trkpt lat="40.67295" lon="-0.69757">
        <ele>1118.986</ele>
        <time>2021-07-20T18:33:42Z</time>
      </trkpt>
      <trkpt lat="40.67295" lon="-0.69756">
        <ele>1116.147</ele>
        <time>2021-07-20T18:34:40Z</time>
      </trkpt>
      <trkpt lat="40.67296" lon="-0.69756">
        <ele>1117.279</ele>
        <time>2021-07-20T18:35:39Z</time>
      </trkpt>
      <trkpt lat="40.67293" lon="-0.69756">
        <ele>1117.242</ele>
        <time>2021-07-20T18:36:20Z</time>
      </trkpt>
      <trkpt lat="40.67296" lon="-0.69755">
        <ele>1112.5</ele>
        <time>2021-07-20T18:37:18Z</time>
      </trkpt>
      <trkpt lat="40.67292" lon="-0.69755">
        <ele>1109.843</ele>
        <time>2021-07-20T18:37:44Z</time>
      </trkpt>
      <trkpt lat="40.67293" lon="-0.6975">
        <ele>1113.919</ele>
        <time>2021-07-20T18:38:33Z</time>
      </trkpt>
      <trkpt lat="40.67289" lon="-0.69752">
        <ele>1112.316</ele>
        <time>2021-07-20T18:39:19Z</time>
      </trkpt>
      <trkpt lat="40.67293" lon="-0.69754">
        <ele>1112.424</ele>
        <time>2021-07-20T18:39:35Z</time>
      </trkpt>
      <trkpt lat="40.67297" lon="-0.69754">
        <ele>1111.41</ele>
        <time>2021-07-20T18:39:46Z</time>
      </trkpt>
      <trkpt lat="40.67294" lon="-0.69751">
        <ele>1110.851</ele>
        <time>2021-07-20T18:39:58Z</time>
      </trkpt>
      <trkpt lat="40.67291" lon="-0.69753">
        <ele>1112.833</ele>
        <time>2021-07-20T18:40:19Z</time>
      </trkpt>
      <trkpt lat="40.67292" lon="-0.69758">
        <ele>1112.201</ele>
        <time>2021-07-20T18:41:12Z</time>
      </trkpt>
      <trkpt lat="40.67292" lon="-0.69753">
        <ele>1111.657</ele>
        <time>2021-07-20T18:41:27Z</time>
      </trkpt>
      <trkpt lat="40.67294" lon="-0.69757">
        <ele>1111.99</ele>
        <time>2021-07-20T18:42:17Z</time>
      </trkpt>
      <trkpt lat="40.67298" lon="-0.69754">
        <ele>1111.716</ele>
        <time>2021-07-20T18:43:04Z</time>
      </trkpt>
      <trkpt lat="40.67292" lon="-0.69753">
        <ele>1111.897</ele>
        <time>2021-07-20T18:43:17Z</time>
      </trkpt>
      <trkpt lat="40.67296" lon="-0.69752">
        <ele>1112.391</ele>
        <time>2021-07-20T18:43:46Z</time>
      </trkpt>
      <trkpt lat="40.67292" lon="-0.69752">
        <ele>1112.572</ele>
        <time>2021-07-20T18:43:57Z</time>
      </trkpt>
      <trkpt lat="40.67289" lon="-0.69755">
        <ele>1112.919</ele>
        <time>2021-07-20T18:44:25Z</time>
      </trkpt>
    </trkseg>
  </trk>
</gpx>